<?xml version="1.0" encoding="UTF-8" standalone="no" ?>
<gpx xmlns="http://www.topografix.com/GPX/1/1" xmlns:xsi="http://www.w3.org/2001/XMLSchema-instance" xsi:schemaLocation="http://www.topografix.com/GPX/1/1 http://www.topografix.com/GPX/1/1/gpx.xsd" version="1.1" creator="VisuGPX - https://www.visugpx.com">
  <metadata>
    <name>Entrevaux - Cretes etvsommet de la Lette</name>
    <desc><![CDATA[depart Entrevaux porte d'Italie, Les Lacs, col de Velac,Villars Ste Croix, col daint Leger, crete et sommet de la Lette, Le brec, retour Entrevaux porte de France]]></desc>
  </metadata>
  <trk>
    <name><![CDATA[2025-03-08 16:46:52]]></name>
    <trkseg>
      <trkpt lat="43.9492" lon="6.80997">
        <ele>496.66</ele>
        <time>2025-03-08T07:28:51Z</time>
      </trkpt>
      <trkpt lat="43.9492" lon="6.80996">
        <ele>496.66</ele>
        <time>2025-03-08T07:28:52Z</time>
      </trkpt>
      <trkpt lat="43.94917" lon="6.80999">
        <ele>497.14</ele>
        <time>2025-03-08T07:29:17Z</time>
      </trkpt>
      <trkpt lat="43.94917" lon="6.80999">
        <ele>497.14</ele>
        <time>2025-03-08T07:29:32Z</time>
      </trkpt>
      <trkpt lat="43.9492" lon="6.80998">
        <ele>497.62</ele>
        <time>2025-03-08T07:29:39Z</time>
      </trkpt>
      <trkpt lat="43.9493" lon="6.80997">
        <ele>497.14</ele>
        <time>2025-03-08T07:29:48Z</time>
      </trkpt>
      <trkpt lat="43.94948" lon="6.81009">
        <ele>497.14</ele>
        <time>2025-03-08T07:30:05Z</time>
      </trkpt>
      <trkpt lat="43.94963" lon="6.8102">
        <ele>495.7</ele>
        <time>2025-03-08T07:30:22Z</time>
      </trkpt>
      <trkpt lat="43.94961" lon="6.81028">
        <ele>492.33</ele>
        <time>2025-03-08T07:30:30Z</time>
      </trkpt>
      <trkpt lat="43.94961" lon="6.81028">
        <ele>499.54</ele>
        <time>2025-03-08T07:30:31Z</time>
      </trkpt>
      <trkpt lat="43.94961" lon="6.81028">
        <ele>495.22</ele>
        <time>2025-03-08T07:30:32Z</time>
      </trkpt>
      <trkpt lat="43.94961" lon="6.81041">
        <ele>492.33</ele>
        <time>2025-03-08T07:30:46Z</time>
      </trkpt>
      <trkpt lat="43.9496" lon="6.81041">
        <ele>494.74</ele>
        <time>2025-03-08T07:30:49Z</time>
      </trkpt>
      <trkpt lat="43.94959" lon="6.81042">
        <ele>491.85</ele>
        <time>2025-03-08T07:30:51Z</time>
      </trkpt>
      <trkpt lat="43.94966" lon="6.81074">
        <ele>489.93</ele>
        <time>2025-03-08T07:31:07Z</time>
      </trkpt>
      <trkpt lat="43.94963" lon="6.81078">
        <ele>488.01</ele>
        <time>2025-03-08T07:31:12Z</time>
      </trkpt>
      <trkpt lat="43.94963" lon="6.81081">
        <ele>487.53</ele>
        <time>2025-03-08T07:31:13Z</time>
      </trkpt>
      <trkpt lat="43.94962" lon="6.81089">
        <ele>485.6</ele>
        <time>2025-03-08T07:31:19Z</time>
      </trkpt>
      <trkpt lat="43.94962" lon="6.81097">
        <ele>484.16</ele>
        <time>2025-03-08T07:31:23Z</time>
      </trkpt>
      <trkpt lat="43.94991" lon="6.81118">
        <ele>483.68</ele>
        <time>2025-03-08T07:31:44Z</time>
      </trkpt>
      <trkpt lat="43.95004" lon="6.81134">
        <ele>482.72</ele>
        <time>2025-03-08T07:31:55Z</time>
      </trkpt>
      <trkpt lat="43.95025" lon="6.81154">
        <ele>481.28</ele>
        <time>2025-03-08T07:32:12Z</time>
      </trkpt>
      <trkpt lat="43.95027" lon="6.81154">
        <ele>481.28</ele>
        <time>2025-03-08T07:32:13Z</time>
      </trkpt>
      <trkpt lat="43.95035" lon="6.81166">
        <ele>482.24</ele>
        <time>2025-03-08T07:32:20Z</time>
      </trkpt>
      <trkpt lat="43.95037" lon="6.81175">
        <ele>482.72</ele>
        <time>2025-03-08T07:32:24Z</time>
      </trkpt>
      <trkpt lat="43.95047" lon="6.81194">
        <ele>485.6</ele>
        <time>2025-03-08T07:32:39Z</time>
      </trkpt>
      <trkpt lat="43.95053" lon="6.81202">
        <ele>486.56</ele>
        <time>2025-03-08T07:32:51Z</time>
      </trkpt>
      <trkpt lat="43.9507" lon="6.81231">
        <ele>487.05</ele>
        <time>2025-03-08T07:33:08Z</time>
      </trkpt>
      <trkpt lat="43.95072" lon="6.81252">
        <ele>487.53</ele>
        <time>2025-03-08T07:33:22Z</time>
      </trkpt>
      <trkpt lat="43.95075" lon="6.81255">
        <ele>487.53</ele>
        <time>2025-03-08T07:33:38Z</time>
      </trkpt>
      <trkpt lat="43.95084" lon="6.81274">
        <ele>487.53</ele>
        <time>2025-03-08T07:33:53Z</time>
      </trkpt>
      <trkpt lat="43.95086" lon="6.81276">
        <ele>487.53</ele>
        <time>2025-03-08T07:33:55Z</time>
      </trkpt>
      <trkpt lat="43.95101" lon="6.81308">
        <ele>488.01</ele>
        <time>2025-03-08T07:34:13Z</time>
      </trkpt>
      <trkpt lat="43.95114" lon="6.81331">
        <ele>489.45</ele>
        <time>2025-03-08T07:34:29Z</time>
      </trkpt>
      <trkpt lat="43.95121" lon="6.81367">
        <ele>490.89</ele>
        <time>2025-03-08T07:34:49Z</time>
      </trkpt>
      <trkpt lat="43.95129" lon="6.81403">
        <ele>492.33</ele>
        <time>2025-03-08T07:35:09Z</time>
      </trkpt>
      <trkpt lat="43.95132" lon="6.81414">
        <ele>492.33</ele>
        <time>2025-03-08T07:35:16Z</time>
      </trkpt>
      <trkpt lat="43.9513" lon="6.81448">
        <ele>492.81</ele>
        <time>2025-03-08T07:35:34Z</time>
      </trkpt>
      <trkpt lat="43.95129" lon="6.81459">
        <ele>492.81</ele>
        <time>2025-03-08T07:35:40Z</time>
      </trkpt>
      <trkpt lat="43.95128" lon="6.81463">
        <ele>491.85</ele>
        <time>2025-03-08T07:35:42Z</time>
      </trkpt>
      <trkpt lat="43.95127" lon="6.81497">
        <ele>489.45</ele>
        <time>2025-03-08T07:36:00Z</time>
      </trkpt>
      <trkpt lat="43.95128" lon="6.81532">
        <ele>488.49</ele>
        <time>2025-03-08T07:36:17Z</time>
      </trkpt>
      <trkpt lat="43.95127" lon="6.81538">
        <ele>488.01</ele>
        <time>2025-03-08T07:36:31Z</time>
      </trkpt>
      <trkpt lat="43.95126" lon="6.81537">
        <ele>488.01</ele>
        <time>2025-03-08T07:36:40Z</time>
      </trkpt>
      <trkpt lat="43.9513" lon="6.81544">
        <ele>488.01</ele>
        <time>2025-03-08T07:36:44Z</time>
      </trkpt>
      <trkpt lat="43.95143" lon="6.81587">
        <ele>487.53</ele>
        <time>2025-03-08T07:37:06Z</time>
      </trkpt>
      <trkpt lat="43.95147" lon="6.81609">
        <ele>487.05</ele>
        <time>2025-03-08T07:37:18Z</time>
      </trkpt>
      <trkpt lat="43.95148" lon="6.81616">
        <ele>488.01</ele>
        <time>2025-03-08T07:37:22Z</time>
      </trkpt>
      <trkpt lat="43.9515" lon="6.81625">
        <ele>489.45</ele>
        <time>2025-03-08T07:37:28Z</time>
      </trkpt>
      <trkpt lat="43.95159" lon="6.81644">
        <ele>492.33</ele>
        <time>2025-03-08T07:37:42Z</time>
      </trkpt>
      <trkpt lat="43.95163" lon="6.81657">
        <ele>492.81</ele>
        <time>2025-03-08T07:38:00Z</time>
      </trkpt>
      <trkpt lat="43.95161" lon="6.81655">
        <ele>492.81</ele>
        <time>2025-03-08T07:38:27Z</time>
      </trkpt>
      <trkpt lat="43.95161" lon="6.81656">
        <ele>494.74</ele>
        <time>2025-03-08T07:38:30Z</time>
      </trkpt>
      <trkpt lat="43.95162" lon="6.81661">
        <ele>494.74</ele>
        <time>2025-03-08T07:38:56Z</time>
      </trkpt>
      <trkpt lat="43.95163" lon="6.81664">
        <ele>495.7</ele>
        <time>2025-03-08T07:38:59Z</time>
      </trkpt>
      <trkpt lat="43.95167" lon="6.81677">
        <ele>498.1</ele>
        <time>2025-03-08T07:39:15Z</time>
      </trkpt>
      <trkpt lat="43.95168" lon="6.81678">
        <ele>496.18</ele>
        <time>2025-03-08T07:39:20Z</time>
      </trkpt>
      <trkpt lat="43.95168" lon="6.81679">
        <ele>498.58</ele>
        <time>2025-03-08T07:39:38Z</time>
      </trkpt>
      <trkpt lat="43.95169" lon="6.8168">
        <ele>497.14</ele>
        <time>2025-03-08T07:40:00Z</time>
      </trkpt>
      <trkpt lat="43.9517" lon="6.81678">
        <ele>498.58</ele>
        <time>2025-03-08T07:40:09Z</time>
      </trkpt>
      <trkpt lat="43.9517" lon="6.81678">
        <ele>498.58</ele>
        <time>2025-03-08T07:40:12Z</time>
      </trkpt>
      <trkpt lat="43.95172" lon="6.81683">
        <ele>498.58</ele>
        <time>2025-03-08T07:40:16Z</time>
      </trkpt>
      <trkpt lat="43.95177" lon="6.81693">
        <ele>500.5</ele>
        <time>2025-03-08T07:40:24Z</time>
      </trkpt>
      <trkpt lat="43.95183" lon="6.81705">
        <ele>502.43</ele>
        <time>2025-03-08T07:40:34Z</time>
      </trkpt>
      <trkpt lat="43.95192" lon="6.81721">
        <ele>504.83</ele>
        <time>2025-03-08T07:40:47Z</time>
      </trkpt>
      <trkpt lat="43.95194" lon="6.81724">
        <ele>505.31</ele>
        <time>2025-03-08T07:40:50Z</time>
      </trkpt>
      <trkpt lat="43.95202" lon="6.8174">
        <ele>508.67</ele>
        <time>2025-03-08T07:41:04Z</time>
      </trkpt>
      <trkpt lat="43.95213" lon="6.81755">
        <ele>511.56</ele>
        <time>2025-03-08T07:41:19Z</time>
      </trkpt>
      <trkpt lat="43.95218" lon="6.81763">
        <ele>513</ele>
        <time>2025-03-08T07:41:27Z</time>
      </trkpt>
      <trkpt lat="43.95221" lon="6.81766">
        <ele>513.96</ele>
        <time>2025-03-08T07:41:31Z</time>
      </trkpt>
      <trkpt lat="43.95234" lon="6.81777">
        <ele>516.85</ele>
        <time>2025-03-08T07:41:46Z</time>
      </trkpt>
      <trkpt lat="43.95235" lon="6.81779">
        <ele>516.85</ele>
        <time>2025-03-08T07:41:48Z</time>
      </trkpt>
      <trkpt lat="43.95241" lon="6.81781">
        <ele>518.29</ele>
        <time>2025-03-08T07:41:55Z</time>
      </trkpt>
      <trkpt lat="43.95246" lon="6.81799">
        <ele>516.85</ele>
        <time>2025-03-08T07:42:08Z</time>
      </trkpt>
      <trkpt lat="43.95249" lon="6.81818">
        <ele>513.48</ele>
        <time>2025-03-08T07:42:20Z</time>
      </trkpt>
      <trkpt lat="43.95258" lon="6.81839">
        <ele>511.56</ele>
        <time>2025-03-08T07:42:37Z</time>
      </trkpt>
      <trkpt lat="43.95259" lon="6.81843">
        <ele>511.08</ele>
        <time>2025-03-08T07:42:54Z</time>
      </trkpt>
      <trkpt lat="43.95264" lon="6.81851">
        <ele>511.08</ele>
        <time>2025-03-08T07:43:00Z</time>
      </trkpt>
      <trkpt lat="43.95261" lon="6.81882">
        <ele>511.56</ele>
        <time>2025-03-08T07:43:17Z</time>
      </trkpt>
      <trkpt lat="43.95266" lon="6.81903">
        <ele>511.08</ele>
        <time>2025-03-08T07:43:28Z</time>
      </trkpt>
      <trkpt lat="43.9527" lon="6.81921">
        <ele>509.16</ele>
        <time>2025-03-08T07:43:38Z</time>
      </trkpt>
      <trkpt lat="43.95278" lon="6.81954">
        <ele>507.23</ele>
        <time>2025-03-08T07:43:56Z</time>
      </trkpt>
      <trkpt lat="43.95292" lon="6.81981">
        <ele>507.23</ele>
        <time>2025-03-08T07:44:14Z</time>
      </trkpt>
      <trkpt lat="43.95295" lon="6.8201">
        <ele>506.75</ele>
        <time>2025-03-08T07:44:31Z</time>
      </trkpt>
      <trkpt lat="43.95301" lon="6.82039">
        <ele>504.83</ele>
        <time>2025-03-08T07:44:47Z</time>
      </trkpt>
      <trkpt lat="43.95301" lon="6.82044">
        <ele>504.35</ele>
        <time>2025-03-08T07:45:00Z</time>
      </trkpt>
      <trkpt lat="43.95303" lon="6.82052">
        <ele>504.35</ele>
        <time>2025-03-08T07:45:19Z</time>
      </trkpt>
      <trkpt lat="43.95303" lon="6.82053">
        <ele>504.35</ele>
        <time>2025-03-08T07:45:20Z</time>
      </trkpt>
      <trkpt lat="43.95306" lon="6.82069">
        <ele>503.87</ele>
        <time>2025-03-08T07:45:29Z</time>
      </trkpt>
      <trkpt lat="43.95304" lon="6.82094">
        <ele>502.43</ele>
        <time>2025-03-08T07:45:44Z</time>
      </trkpt>
      <trkpt lat="43.95304" lon="6.82108">
        <ele>500.98</ele>
        <time>2025-03-08T07:45:52Z</time>
      </trkpt>
      <trkpt lat="43.95307" lon="6.82135">
        <ele>497.62</ele>
        <time>2025-03-08T07:46:07Z</time>
      </trkpt>
      <trkpt lat="43.95308" lon="6.8215">
        <ele>495.7</ele>
        <time>2025-03-08T07:46:22Z</time>
      </trkpt>
      <trkpt lat="43.95309" lon="6.82155">
        <ele>495.7</ele>
        <time>2025-03-08T07:46:37Z</time>
      </trkpt>
      <trkpt lat="43.95309" lon="6.82153">
        <ele>495.7</ele>
        <time>2025-03-08T07:46:40Z</time>
      </trkpt>
      <trkpt lat="43.95308" lon="6.82154">
        <ele>495.22</ele>
        <time>2025-03-08T07:46:49Z</time>
      </trkpt>
      <trkpt lat="43.95315" lon="6.82178">
        <ele>492.81</ele>
        <time>2025-03-08T07:47:05Z</time>
      </trkpt>
      <trkpt lat="43.9532" lon="6.82184">
        <ele>491.37</ele>
        <time>2025-03-08T07:47:10Z</time>
      </trkpt>
      <trkpt lat="43.95321" lon="6.82186">
        <ele>491.37</ele>
        <time>2025-03-08T07:47:13Z</time>
      </trkpt>
      <trkpt lat="43.95319" lon="6.82194">
        <ele>490.41</ele>
        <time>2025-03-08T07:47:18Z</time>
      </trkpt>
      <trkpt lat="43.95308" lon="6.82226">
        <ele>487.05</ele>
        <time>2025-03-08T07:47:37Z</time>
      </trkpt>
      <trkpt lat="43.95305" lon="6.82253">
        <ele>485.6</ele>
        <time>2025-03-08T07:47:52Z</time>
      </trkpt>
      <trkpt lat="43.95305" lon="6.82261">
        <ele>487.05</ele>
        <time>2025-03-08T07:47:57Z</time>
      </trkpt>
      <trkpt lat="43.95303" lon="6.82294">
        <ele>487.05</ele>
        <time>2025-03-08T07:48:14Z</time>
      </trkpt>
      <trkpt lat="43.95301" lon="6.82307">
        <ele>485.6</ele>
        <time>2025-03-08T07:48:21Z</time>
      </trkpt>
      <trkpt lat="43.95302" lon="6.82341">
        <ele>486.56</ele>
        <time>2025-03-08T07:48:39Z</time>
      </trkpt>
      <trkpt lat="43.95304" lon="6.82364">
        <ele>488.97</ele>
        <time>2025-03-08T07:48:53Z</time>
      </trkpt>
      <trkpt lat="43.95313" lon="6.82396">
        <ele>489.93</ele>
        <time>2025-03-08T07:49:12Z</time>
      </trkpt>
      <trkpt lat="43.95318" lon="6.8243">
        <ele>491.85</ele>
        <time>2025-03-08T07:49:32Z</time>
      </trkpt>
      <trkpt lat="43.95324" lon="6.82459">
        <ele>492.81</ele>
        <time>2025-03-08T07:49:49Z</time>
      </trkpt>
      <trkpt lat="43.95336" lon="6.82478">
        <ele>493.29</ele>
        <time>2025-03-08T07:50:03Z</time>
      </trkpt>
      <trkpt lat="43.95338" lon="6.82485">
        <ele>493.77</ele>
        <time>2025-03-08T07:50:08Z</time>
      </trkpt>
      <trkpt lat="43.95334" lon="6.82505">
        <ele>496.66</ele>
        <time>2025-03-08T07:50:24Z</time>
      </trkpt>
      <trkpt lat="43.95332" lon="6.82508">
        <ele>497.14</ele>
        <time>2025-03-08T07:50:28Z</time>
      </trkpt>
      <trkpt lat="43.95331" lon="6.82514">
        <ele>497.62</ele>
        <time>2025-03-08T07:50:32Z</time>
      </trkpt>
      <trkpt lat="43.95335" lon="6.82541">
        <ele>498.1</ele>
        <time>2025-03-08T07:50:48Z</time>
      </trkpt>
      <trkpt lat="43.95337" lon="6.82558">
        <ele>499.06</ele>
        <time>2025-03-08T07:50:59Z</time>
      </trkpt>
      <trkpt lat="43.95343" lon="6.82565">
        <ele>501.46</ele>
        <time>2025-03-08T07:51:11Z</time>
      </trkpt>
      <trkpt lat="43.95343" lon="6.82567">
        <ele>501.95</ele>
        <time>2025-03-08T07:51:13Z</time>
      </trkpt>
      <trkpt lat="43.95344" lon="6.82574">
        <ele>501.95</ele>
        <time>2025-03-08T07:51:18Z</time>
      </trkpt>
      <trkpt lat="43.95344" lon="6.8258">
        <ele>500.5</ele>
        <time>2025-03-08T07:51:22Z</time>
      </trkpt>
      <trkpt lat="43.95346" lon="6.82596">
        <ele>499.54</ele>
        <time>2025-03-08T07:51:32Z</time>
      </trkpt>
      <trkpt lat="43.95346" lon="6.82603">
        <ele>499.54</ele>
        <time>2025-03-08T07:51:37Z</time>
      </trkpt>
      <trkpt lat="43.95344" lon="6.82609">
        <ele>500.98</ele>
        <time>2025-03-08T07:51:41Z</time>
      </trkpt>
      <trkpt lat="43.95347" lon="6.82635">
        <ele>501.95</ele>
        <time>2025-03-08T07:51:58Z</time>
      </trkpt>
      <trkpt lat="43.95347" lon="6.82646">
        <ele>501.95</ele>
        <time>2025-03-08T07:52:04Z</time>
      </trkpt>
      <trkpt lat="43.95354" lon="6.82671">
        <ele>501.95</ele>
        <time>2025-03-08T07:52:21Z</time>
      </trkpt>
      <trkpt lat="43.95357" lon="6.8269">
        <ele>500.5</ele>
        <time>2025-03-08T07:52:32Z</time>
      </trkpt>
      <trkpt lat="43.95366" lon="6.82705">
        <ele>498.58</ele>
        <time>2025-03-08T07:52:43Z</time>
      </trkpt>
      <trkpt lat="43.95365" lon="6.82727">
        <ele>496.66</ele>
        <time>2025-03-08T07:52:56Z</time>
      </trkpt>
      <trkpt lat="43.95366" lon="6.82743">
        <ele>496.66</ele>
        <time>2025-03-08T07:53:05Z</time>
      </trkpt>
      <trkpt lat="43.95368" lon="6.82746">
        <ele>498.1</ele>
        <time>2025-03-08T07:53:07Z</time>
      </trkpt>
      <trkpt lat="43.95369" lon="6.82747">
        <ele>498.58</ele>
        <time>2025-03-08T07:53:08Z</time>
      </trkpt>
      <trkpt lat="43.95369" lon="6.82762">
        <ele>498.58</ele>
        <time>2025-03-08T07:53:17Z</time>
      </trkpt>
      <trkpt lat="43.95369" lon="6.82769">
        <ele>498.58</ele>
        <time>2025-03-08T07:53:21Z</time>
      </trkpt>
      <trkpt lat="43.95373" lon="6.82805">
        <ele>498.58</ele>
        <time>2025-03-08T07:53:40Z</time>
      </trkpt>
      <trkpt lat="43.95375" lon="6.82808">
        <ele>498.58</ele>
        <time>2025-03-08T07:53:45Z</time>
      </trkpt>
      <trkpt lat="43.95378" lon="6.82819">
        <ele>498.58</ele>
        <time>2025-03-08T07:53:52Z</time>
      </trkpt>
      <trkpt lat="43.95386" lon="6.82856">
        <ele>498.58</ele>
        <time>2025-03-08T07:54:12Z</time>
      </trkpt>
      <trkpt lat="43.9539" lon="6.82864">
        <ele>498.58</ele>
        <time>2025-03-08T07:54:20Z</time>
      </trkpt>
      <trkpt lat="43.95408" lon="6.82893">
        <ele>499.06</ele>
        <time>2025-03-08T07:54:41Z</time>
      </trkpt>
      <trkpt lat="43.95412" lon="6.82897">
        <ele>499.54</ele>
        <time>2025-03-08T07:54:45Z</time>
      </trkpt>
      <trkpt lat="43.95422" lon="6.82908">
        <ele>500.02</ele>
        <time>2025-03-08T07:54:57Z</time>
      </trkpt>
      <trkpt lat="43.95427" lon="6.82916">
        <ele>498.58</ele>
        <time>2025-03-08T07:55:03Z</time>
      </trkpt>
      <trkpt lat="43.95423" lon="6.82928">
        <ele>497.62</ele>
        <time>2025-03-08T07:55:11Z</time>
      </trkpt>
      <trkpt lat="43.95414" lon="6.82954">
        <ele>497.14</ele>
        <time>2025-03-08T07:55:28Z</time>
      </trkpt>
      <trkpt lat="43.9542" lon="6.82987">
        <ele>497.14</ele>
        <time>2025-03-08T07:55:46Z</time>
      </trkpt>
      <trkpt lat="43.95422" lon="6.82995">
        <ele>497.14</ele>
        <time>2025-03-08T07:55:52Z</time>
      </trkpt>
      <trkpt lat="43.95422" lon="6.83015">
        <ele>497.14</ele>
        <time>2025-03-08T07:56:04Z</time>
      </trkpt>
      <trkpt lat="43.95425" lon="6.83025">
        <ele>497.14</ele>
        <time>2025-03-08T07:56:10Z</time>
      </trkpt>
      <trkpt lat="43.95425" lon="6.8303">
        <ele>498.58</ele>
        <time>2025-03-08T07:56:14Z</time>
      </trkpt>
      <trkpt lat="43.95428" lon="6.83039">
        <ele>499.06</ele>
        <time>2025-03-08T07:56:20Z</time>
      </trkpt>
      <trkpt lat="43.95428" lon="6.83044">
        <ele>499.54</ele>
        <time>2025-03-08T07:56:24Z</time>
      </trkpt>
      <trkpt lat="43.95427" lon="6.83047">
        <ele>499.54</ele>
        <time>2025-03-08T07:56:26Z</time>
      </trkpt>
      <trkpt lat="43.95426" lon="6.83055">
        <ele>500.98</ele>
        <time>2025-03-08T07:56:35Z</time>
      </trkpt>
      <trkpt lat="43.95429" lon="6.83059">
        <ele>502.91</ele>
        <time>2025-03-08T07:56:47Z</time>
      </trkpt>
      <trkpt lat="43.95428" lon="6.83064">
        <ele>504.35</ele>
        <time>2025-03-08T07:56:55Z</time>
      </trkpt>
      <trkpt lat="43.95429" lon="6.83069">
        <ele>507.23</ele>
        <time>2025-03-08T07:57:07Z</time>
      </trkpt>
      <trkpt lat="43.95436" lon="6.83072">
        <ele>509.16</ele>
        <time>2025-03-08T07:57:20Z</time>
      </trkpt>
      <trkpt lat="43.95433" lon="6.83078">
        <ele>511.08</ele>
        <time>2025-03-08T07:57:31Z</time>
      </trkpt>
      <trkpt lat="43.95434" lon="6.83087">
        <ele>512.52</ele>
        <time>2025-03-08T07:57:41Z</time>
      </trkpt>
      <trkpt lat="43.95438" lon="6.83094">
        <ele>514.92</ele>
        <time>2025-03-08T07:57:54Z</time>
      </trkpt>
      <trkpt lat="43.95441" lon="6.831">
        <ele>517.81</ele>
        <time>2025-03-08T07:58:07Z</time>
      </trkpt>
      <trkpt lat="43.95442" lon="6.83103">
        <ele>519.73</ele>
        <time>2025-03-08T07:58:22Z</time>
      </trkpt>
      <trkpt lat="43.95443" lon="6.83107">
        <ele>522.61</ele>
        <time>2025-03-08T07:58:33Z</time>
      </trkpt>
      <trkpt lat="43.95444" lon="6.83111">
        <ele>524.54</ele>
        <time>2025-03-08T07:58:46Z</time>
      </trkpt>
      <trkpt lat="43.95445" lon="6.83112">
        <ele>524.54</ele>
        <time>2025-03-08T07:58:58Z</time>
      </trkpt>
      <trkpt lat="43.95449" lon="6.83112">
        <ele>526.94</ele>
        <time>2025-03-08T07:59:10Z</time>
      </trkpt>
      <trkpt lat="43.9545" lon="6.83107">
        <ele>528.38</ele>
        <time>2025-03-08T07:59:23Z</time>
      </trkpt>
      <trkpt lat="43.95451" lon="6.83108">
        <ele>528.86</ele>
        <time>2025-03-08T07:59:39Z</time>
      </trkpt>
      <trkpt lat="43.9545" lon="6.83111">
        <ele>528.86</ele>
        <time>2025-03-08T07:59:54Z</time>
      </trkpt>
      <trkpt lat="43.95448" lon="6.83124">
        <ele>531.75</ele>
        <time>2025-03-08T08:00:09Z</time>
      </trkpt>
      <trkpt lat="43.95445" lon="6.83134">
        <ele>534.15</ele>
        <time>2025-03-08T08:00:22Z</time>
      </trkpt>
      <trkpt lat="43.95444" lon="6.83144">
        <ele>537.03</ele>
        <time>2025-03-08T08:00:35Z</time>
      </trkpt>
      <trkpt lat="43.95444" lon="6.83157">
        <ele>536.07</ele>
        <time>2025-03-08T08:00:48Z</time>
      </trkpt>
      <trkpt lat="43.9544" lon="6.8316">
        <ele>532.23</ele>
        <time>2025-03-08T08:00:58Z</time>
      </trkpt>
      <trkpt lat="43.95437" lon="6.83169">
        <ele>529.34</ele>
        <time>2025-03-08T08:01:10Z</time>
      </trkpt>
      <trkpt lat="43.95437" lon="6.83168">
        <ele>528.86</ele>
        <time>2025-03-08T08:01:11Z</time>
      </trkpt>
      <trkpt lat="43.95433" lon="6.83159">
        <ele>526.46</ele>
        <time>2025-03-08T08:01:20Z</time>
      </trkpt>
      <trkpt lat="43.95432" lon="6.83176">
        <ele>523.09</ele>
        <time>2025-03-08T08:01:33Z</time>
      </trkpt>
      <trkpt lat="43.95436" lon="6.83193">
        <ele>519.73</ele>
        <time>2025-03-08T08:01:45Z</time>
      </trkpt>
      <trkpt lat="43.95439" lon="6.83201">
        <ele>519.25</ele>
        <time>2025-03-08T08:01:50Z</time>
      </trkpt>
      <trkpt lat="43.95443" lon="6.83208">
        <ele>518.29</ele>
        <time>2025-03-08T08:01:55Z</time>
      </trkpt>
      <trkpt lat="43.95444" lon="6.83211">
        <ele>518.29</ele>
        <time>2025-03-08T08:01:57Z</time>
      </trkpt>
      <trkpt lat="43.95449" lon="6.83223">
        <ele>517.33</ele>
        <time>2025-03-08T08:02:04Z</time>
      </trkpt>
      <trkpt lat="43.9545" lon="6.83226">
        <ele>517.33</ele>
        <time>2025-03-08T08:02:06Z</time>
      </trkpt>
      <trkpt lat="43.95454" lon="6.83228">
        <ele>516.85</ele>
        <time>2025-03-08T08:02:09Z</time>
      </trkpt>
      <trkpt lat="43.95458" lon="6.83243">
        <ele>516.85</ele>
        <time>2025-03-08T08:02:18Z</time>
      </trkpt>
      <trkpt lat="43.95456" lon="6.83256">
        <ele>516.37</ele>
        <time>2025-03-08T08:02:28Z</time>
      </trkpt>
      <trkpt lat="43.95454" lon="6.83261">
        <ele>514.92</ele>
        <time>2025-03-08T08:02:32Z</time>
      </trkpt>
      <trkpt lat="43.9545" lon="6.83267">
        <ele>511.56</ele>
        <time>2025-03-08T08:02:41Z</time>
      </trkpt>
      <trkpt lat="43.95451" lon="6.83268">
        <ele>511.56</ele>
        <time>2025-03-08T08:02:42Z</time>
      </trkpt>
      <trkpt lat="43.95451" lon="6.83272">
        <ele>509.64</ele>
        <time>2025-03-08T08:02:49Z</time>
      </trkpt>
      <trkpt lat="43.95447" lon="6.83275">
        <ele>508.19</ele>
        <time>2025-03-08T08:02:53Z</time>
      </trkpt>
      <trkpt lat="43.95437" lon="6.83274">
        <ele>505.79</ele>
        <time>2025-03-08T08:03:02Z</time>
      </trkpt>
      <trkpt lat="43.95434" lon="6.83272">
        <ele>505.31</ele>
        <time>2025-03-08T08:03:05Z</time>
      </trkpt>
      <trkpt lat="43.95423" lon="6.83268">
        <ele>503.87</ele>
        <time>2025-03-08T08:03:15Z</time>
      </trkpt>
      <trkpt lat="43.95419" lon="6.83264">
        <ele>503.39</ele>
        <time>2025-03-08T08:03:19Z</time>
      </trkpt>
      <trkpt lat="43.95408" lon="6.83259">
        <ele>500.02</ele>
        <time>2025-03-08T08:03:32Z</time>
      </trkpt>
      <trkpt lat="43.954" lon="6.83263">
        <ele>496.66</ele>
        <time>2025-03-08T08:03:43Z</time>
      </trkpt>
      <trkpt lat="43.95396" lon="6.8327">
        <ele>493.77</ele>
        <time>2025-03-08T08:03:52Z</time>
      </trkpt>
      <trkpt lat="43.95412" lon="6.83292">
        <ele>492.33</ele>
        <time>2025-03-08T08:04:10Z</time>
      </trkpt>
      <trkpt lat="43.95431" lon="6.83308">
        <ele>491.37</ele>
        <time>2025-03-08T08:04:26Z</time>
      </trkpt>
      <trkpt lat="43.95447" lon="6.83314">
        <ele>490.89</ele>
        <time>2025-03-08T08:04:42Z</time>
      </trkpt>
      <trkpt lat="43.95445" lon="6.83324">
        <ele>490.89</ele>
        <time>2025-03-08T08:04:48Z</time>
      </trkpt>
      <trkpt lat="43.95446" lon="6.8333">
        <ele>490.89</ele>
        <time>2025-03-08T08:04:52Z</time>
      </trkpt>
      <trkpt lat="43.95444" lon="6.83337">
        <ele>491.85</ele>
        <time>2025-03-08T08:04:57Z</time>
      </trkpt>
      <trkpt lat="43.95444" lon="6.8334">
        <ele>492.33</ele>
        <time>2025-03-08T08:04:59Z</time>
      </trkpt>
      <trkpt lat="43.95444" lon="6.83343">
        <ele>492.33</ele>
        <time>2025-03-08T08:05:01Z</time>
      </trkpt>
      <trkpt lat="43.95434" lon="6.83362">
        <ele>493.77</ele>
        <time>2025-03-08T08:05:17Z</time>
      </trkpt>
      <trkpt lat="43.95424" lon="6.83384">
        <ele>494.74</ele>
        <time>2025-03-08T08:05:33Z</time>
      </trkpt>
      <trkpt lat="43.95415" lon="6.83396">
        <ele>495.22</ele>
        <time>2025-03-08T08:05:44Z</time>
      </trkpt>
      <trkpt lat="43.95419" lon="6.83426">
        <ele>497.62</ele>
        <time>2025-03-08T08:06:02Z</time>
      </trkpt>
      <trkpt lat="43.95424" lon="6.83448">
        <ele>499.06</ele>
        <time>2025-03-08T08:06:17Z</time>
      </trkpt>
      <trkpt lat="43.95433" lon="6.83471">
        <ele>500.5</ele>
        <time>2025-03-08T08:06:33Z</time>
      </trkpt>
      <trkpt lat="43.9544" lon="6.83495">
        <ele>501.95</ele>
        <time>2025-03-08T08:06:49Z</time>
      </trkpt>
      <trkpt lat="43.95443" lon="6.835">
        <ele>501.95</ele>
        <time>2025-03-08T08:06:53Z</time>
      </trkpt>
      <trkpt lat="43.95452" lon="6.83506">
        <ele>502.91</ele>
        <time>2025-03-08T08:07:02Z</time>
      </trkpt>
      <trkpt lat="43.95461" lon="6.83517">
        <ele>505.79</ele>
        <time>2025-03-08T08:07:16Z</time>
      </trkpt>
      <trkpt lat="43.9547" lon="6.83522">
        <ele>508.19</ele>
        <time>2025-03-08T08:07:29Z</time>
      </trkpt>
      <trkpt lat="43.95477" lon="6.83527">
        <ele>510.6</ele>
        <time>2025-03-08T08:07:41Z</time>
      </trkpt>
      <trkpt lat="43.95482" lon="6.83532">
        <ele>512.52</ele>
        <time>2025-03-08T08:07:53Z</time>
      </trkpt>
      <trkpt lat="43.95488" lon="6.8354">
        <ele>514.44</ele>
        <time>2025-03-08T08:08:06Z</time>
      </trkpt>
      <trkpt lat="43.95493" lon="6.83548">
        <ele>514.44</ele>
        <time>2025-03-08T08:08:19Z</time>
      </trkpt>
      <trkpt lat="43.95495" lon="6.83552">
        <ele>513.48</ele>
        <time>2025-03-08T08:08:34Z</time>
      </trkpt>
      <trkpt lat="43.95498" lon="6.83558">
        <ele>514.44</ele>
        <time>2025-03-08T08:08:45Z</time>
      </trkpt>
      <trkpt lat="43.95499" lon="6.83557">
        <ele>514.44</ele>
        <time>2025-03-08T08:09:04Z</time>
      </trkpt>
      <trkpt lat="43.955" lon="6.83557">
        <ele>514.44</ele>
        <time>2025-03-08T08:09:12Z</time>
      </trkpt>
      <trkpt lat="43.95511" lon="6.83559">
        <ele>517.81</ele>
        <time>2025-03-08T08:09:25Z</time>
      </trkpt>
      <trkpt lat="43.9552" lon="6.83564">
        <ele>520.69</ele>
        <time>2025-03-08T08:09:38Z</time>
      </trkpt>
      <trkpt lat="43.95527" lon="6.83573">
        <ele>523.09</ele>
        <time>2025-03-08T08:09:52Z</time>
      </trkpt>
      <trkpt lat="43.95529" lon="6.83581">
        <ele>525.98</ele>
        <time>2025-03-08T08:10:04Z</time>
      </trkpt>
      <trkpt lat="43.95532" lon="6.8359">
        <ele>527.9</ele>
        <time>2025-03-08T08:10:17Z</time>
      </trkpt>
      <trkpt lat="43.95534" lon="6.836">
        <ele>530.79</ele>
        <time>2025-03-08T08:10:31Z</time>
      </trkpt>
      <trkpt lat="43.95534" lon="6.8361">
        <ele>533.19</ele>
        <time>2025-03-08T08:10:44Z</time>
      </trkpt>
      <trkpt lat="43.95534" lon="6.83619">
        <ele>534.63</ele>
        <time>2025-03-08T08:10:55Z</time>
      </trkpt>
      <trkpt lat="43.95533" lon="6.83631">
        <ele>537.51</ele>
        <time>2025-03-08T08:11:09Z</time>
      </trkpt>
      <trkpt lat="43.95533" lon="6.83642">
        <ele>539.44</ele>
        <time>2025-03-08T08:11:22Z</time>
      </trkpt>
      <trkpt lat="43.95531" lon="6.83651">
        <ele>541.36</ele>
        <time>2025-03-08T08:11:35Z</time>
      </trkpt>
      <trkpt lat="43.95528" lon="6.83663">
        <ele>543.76</ele>
        <time>2025-03-08T08:11:50Z</time>
      </trkpt>
      <trkpt lat="43.95525" lon="6.83672">
        <ele>546.17</ele>
        <time>2025-03-08T08:12:03Z</time>
      </trkpt>
      <trkpt lat="43.95522" lon="6.8368">
        <ele>548.09</ele>
        <time>2025-03-08T08:12:16Z</time>
      </trkpt>
      <trkpt lat="43.95522" lon="6.83692">
        <ele>550.01</ele>
        <time>2025-03-08T08:12:30Z</time>
      </trkpt>
      <trkpt lat="43.95531" lon="6.83694">
        <ele>552.41</ele>
        <time>2025-03-08T08:12:43Z</time>
      </trkpt>
      <trkpt lat="43.95539" lon="6.83697">
        <ele>554.82</ele>
        <time>2025-03-08T08:12:56Z</time>
      </trkpt>
      <trkpt lat="43.95545" lon="6.83702">
        <ele>556.74</ele>
        <time>2025-03-08T08:13:09Z</time>
      </trkpt>
      <trkpt lat="43.95552" lon="6.83707">
        <ele>558.66</ele>
        <time>2025-03-08T08:13:21Z</time>
      </trkpt>
      <trkpt lat="43.95557" lon="6.83713">
        <ele>560.11</ele>
        <time>2025-03-08T08:13:33Z</time>
      </trkpt>
      <trkpt lat="43.95563" lon="6.83725">
        <ele>562.03</ele>
        <time>2025-03-08T08:13:45Z</time>
      </trkpt>
      <trkpt lat="43.95569" lon="6.83737">
        <ele>563.47</ele>
        <time>2025-03-08T08:13:58Z</time>
      </trkpt>
      <trkpt lat="43.95577" lon="6.83748">
        <ele>565.87</ele>
        <time>2025-03-08T08:14:12Z</time>
      </trkpt>
      <trkpt lat="43.95585" lon="6.83761">
        <ele>567.8</ele>
        <time>2025-03-08T08:14:26Z</time>
      </trkpt>
      <trkpt lat="43.9559" lon="6.8377">
        <ele>569.72</ele>
        <time>2025-03-08T08:14:38Z</time>
      </trkpt>
      <trkpt lat="43.95601" lon="6.83778">
        <ele>572.12</ele>
        <time>2025-03-08T08:14:53Z</time>
      </trkpt>
      <trkpt lat="43.95611" lon="6.83781">
        <ele>573.56</ele>
        <time>2025-03-08T08:15:05Z</time>
      </trkpt>
      <trkpt lat="43.95626" lon="6.83785">
        <ele>575.97</ele>
        <time>2025-03-08T08:15:21Z</time>
      </trkpt>
      <trkpt lat="43.95635" lon="6.83791">
        <ele>577.41</ele>
        <time>2025-03-08T08:15:34Z</time>
      </trkpt>
      <trkpt lat="43.95644" lon="6.83801">
        <ele>579.81</ele>
        <time>2025-03-08T08:15:48Z</time>
      </trkpt>
      <trkpt lat="43.9565" lon="6.83811">
        <ele>580.77</ele>
        <time>2025-03-08T08:16:00Z</time>
      </trkpt>
      <trkpt lat="43.95658" lon="6.8382">
        <ele>583.18</ele>
        <time>2025-03-08T08:16:13Z</time>
      </trkpt>
      <trkpt lat="43.95661" lon="6.8382">
        <ele>584.14</ele>
        <time>2025-03-08T08:16:18Z</time>
      </trkpt>
      <trkpt lat="43.9566" lon="6.83808">
        <ele>585.58</ele>
        <time>2025-03-08T08:16:30Z</time>
      </trkpt>
      <trkpt lat="43.95658" lon="6.83807">
        <ele>585.58</ele>
        <time>2025-03-08T08:16:32Z</time>
      </trkpt>
      <trkpt lat="43.95652" lon="6.83792">
        <ele>587.02</ele>
        <time>2025-03-08T08:16:46Z</time>
      </trkpt>
      <trkpt lat="43.95646" lon="6.83778">
        <ele>589.43</ele>
        <time>2025-03-08T08:17:00Z</time>
      </trkpt>
      <trkpt lat="43.95645" lon="6.83774">
        <ele>589.43</ele>
        <time>2025-03-08T08:17:04Z</time>
      </trkpt>
      <trkpt lat="43.95643" lon="6.83767">
        <ele>590.39</ele>
        <time>2025-03-08T08:17:10Z</time>
      </trkpt>
      <trkpt lat="43.9564" lon="6.83758">
        <ele>590.87</ele>
        <time>2025-03-08T08:17:17Z</time>
      </trkpt>
      <trkpt lat="43.95637" lon="6.83748">
        <ele>591.83</ele>
        <time>2025-03-08T08:17:25Z</time>
      </trkpt>
      <trkpt lat="43.95632" lon="6.83737">
        <ele>593.27</ele>
        <time>2025-03-08T08:17:34Z</time>
      </trkpt>
      <trkpt lat="43.95631" lon="6.83734">
        <ele>593.27</ele>
        <time>2025-03-08T08:17:36Z</time>
      </trkpt>
      <trkpt lat="43.9563" lon="6.83715">
        <ele>594.71</ele>
        <time>2025-03-08T08:17:50Z</time>
      </trkpt>
      <trkpt lat="43.95631" lon="6.8371">
        <ele>595.19</ele>
        <time>2025-03-08T08:17:54Z</time>
      </trkpt>
      <trkpt lat="43.95637" lon="6.83715">
        <ele>596.64</ele>
        <time>2025-03-08T08:18:05Z</time>
      </trkpt>
      <trkpt lat="43.9564" lon="6.8373">
        <ele>598.56</ele>
        <time>2025-03-08T08:18:19Z</time>
      </trkpt>
      <trkpt lat="43.95648" lon="6.83739">
        <ele>600.48</ele>
        <time>2025-03-08T08:18:33Z</time>
      </trkpt>
      <trkpt lat="43.95656" lon="6.8375">
        <ele>602.88</ele>
        <time>2025-03-08T08:18:47Z</time>
      </trkpt>
      <trkpt lat="43.95662" lon="6.83763">
        <ele>604.33</ele>
        <time>2025-03-08T08:19:01Z</time>
      </trkpt>
      <trkpt lat="43.95667" lon="6.83774">
        <ele>606.25</ele>
        <time>2025-03-08T08:19:14Z</time>
      </trkpt>
      <trkpt lat="43.95675" lon="6.83785">
        <ele>608.17</ele>
        <time>2025-03-08T08:19:28Z</time>
      </trkpt>
      <trkpt lat="43.95682" lon="6.83796">
        <ele>610.09</ele>
        <time>2025-03-08T08:19:42Z</time>
      </trkpt>
      <trkpt lat="43.95685" lon="6.83803">
        <ele>611.54</ele>
        <time>2025-03-08T08:19:50Z</time>
      </trkpt>
      <trkpt lat="43.95693" lon="6.83816">
        <ele>612.98</ele>
        <time>2025-03-08T08:20:04Z</time>
      </trkpt>
      <trkpt lat="43.957" lon="6.83828">
        <ele>615.38</ele>
        <time>2025-03-08T08:20:18Z</time>
      </trkpt>
      <trkpt lat="43.95707" lon="6.83835">
        <ele>617.3</ele>
        <time>2025-03-08T08:20:31Z</time>
      </trkpt>
      <trkpt lat="43.95715" lon="6.8384">
        <ele>619.23</ele>
        <time>2025-03-08T08:20:46Z</time>
      </trkpt>
      <trkpt lat="43.95723" lon="6.83848">
        <ele>621.63</ele>
        <time>2025-03-08T08:21:00Z</time>
      </trkpt>
      <trkpt lat="43.95724" lon="6.83853">
        <ele>623.07</ele>
        <time>2025-03-08T08:21:13Z</time>
      </trkpt>
      <trkpt lat="43.95725" lon="6.83853">
        <ele>623.07</ele>
        <time>2025-03-08T08:21:29Z</time>
      </trkpt>
      <trkpt lat="43.9573" lon="6.83862">
        <ele>624.51</ele>
        <time>2025-03-08T08:21:41Z</time>
      </trkpt>
      <trkpt lat="43.95732" lon="6.83863">
        <ele>624.99</ele>
        <time>2025-03-08T08:21:52Z</time>
      </trkpt>
      <trkpt lat="43.95741" lon="6.83859">
        <ele>626.92</ele>
        <time>2025-03-08T08:22:15Z</time>
      </trkpt>
      <trkpt lat="43.9575" lon="6.83857">
        <ele>629.32</ele>
        <time>2025-03-08T08:22:31Z</time>
      </trkpt>
      <trkpt lat="43.95753" lon="6.83857">
        <ele>630.28</ele>
        <time>2025-03-08T08:22:34Z</time>
      </trkpt>
      <trkpt lat="43.95762" lon="6.83853">
        <ele>632.68</ele>
        <time>2025-03-08T08:22:48Z</time>
      </trkpt>
      <trkpt lat="43.95772" lon="6.83857">
        <ele>634.13</ele>
        <time>2025-03-08T08:23:01Z</time>
      </trkpt>
      <trkpt lat="43.95779" lon="6.8386">
        <ele>635.57</ele>
        <time>2025-03-08T08:23:09Z</time>
      </trkpt>
      <trkpt lat="43.95789" lon="6.83865">
        <ele>637.49</ele>
        <time>2025-03-08T08:23:22Z</time>
      </trkpt>
      <trkpt lat="43.958" lon="6.83866">
        <ele>638.93</ele>
        <time>2025-03-08T08:23:35Z</time>
      </trkpt>
      <trkpt lat="43.9581" lon="6.83865">
        <ele>640.86</ele>
        <time>2025-03-08T08:23:48Z</time>
      </trkpt>
      <trkpt lat="43.95818" lon="6.8386">
        <ele>642.78</ele>
        <time>2025-03-08T08:23:59Z</time>
      </trkpt>
      <trkpt lat="43.95826" lon="6.83852">
        <ele>645.18</ele>
        <time>2025-03-08T08:24:12Z</time>
      </trkpt>
      <trkpt lat="43.9583" lon="6.83852">
        <ele>645.66</ele>
        <time>2025-03-08T08:24:17Z</time>
      </trkpt>
      <trkpt lat="43.95832" lon="6.83852">
        <ele>645.66</ele>
        <time>2025-03-08T08:24:19Z</time>
      </trkpt>
      <trkpt lat="43.9584" lon="6.83863">
        <ele>646.62</ele>
        <time>2025-03-08T08:24:31Z</time>
      </trkpt>
      <trkpt lat="43.95842" lon="6.83866">
        <ele>647.1</ele>
        <time>2025-03-08T08:24:34Z</time>
      </trkpt>
      <trkpt lat="43.95845" lon="6.83869">
        <ele>647.1</ele>
        <time>2025-03-08T08:24:37Z</time>
      </trkpt>
      <trkpt lat="43.9586" lon="6.83877">
        <ele>649.51</ele>
        <time>2025-03-08T08:24:54Z</time>
      </trkpt>
      <trkpt lat="43.95871" lon="6.83883">
        <ele>651.91</ele>
        <time>2025-03-08T08:25:08Z</time>
      </trkpt>
      <trkpt lat="43.95882" lon="6.83889">
        <ele>653.35</ele>
        <time>2025-03-08T08:25:22Z</time>
      </trkpt>
      <trkpt lat="43.95892" lon="6.83891">
        <ele>655.76</ele>
        <time>2025-03-08T08:25:35Z</time>
      </trkpt>
      <trkpt lat="43.959" lon="6.83885">
        <ele>657.68</ele>
        <time>2025-03-08T08:25:48Z</time>
      </trkpt>
      <trkpt lat="43.95907" lon="6.83883">
        <ele>658.64</ele>
        <time>2025-03-08T08:25:57Z</time>
      </trkpt>
      <trkpt lat="43.95913" lon="6.83888">
        <ele>659.12</ele>
        <time>2025-03-08T08:26:04Z</time>
      </trkpt>
      <trkpt lat="43.95929" lon="6.83896">
        <ele>660.56</ele>
        <time>2025-03-08T08:26:21Z</time>
      </trkpt>
      <trkpt lat="43.95939" lon="6.83901">
        <ele>661.04</ele>
        <time>2025-03-08T08:26:34Z</time>
      </trkpt>
      <trkpt lat="43.95959" lon="6.8391">
        <ele>661.52</ele>
        <time>2025-03-08T08:26:53Z</time>
      </trkpt>
      <trkpt lat="43.95964" lon="6.83912">
        <ele>660.08</ele>
        <time>2025-03-08T08:26:57Z</time>
      </trkpt>
      <trkpt lat="43.95983" lon="6.8392">
        <ele>659.6</ele>
        <time>2025-03-08T08:27:14Z</time>
      </trkpt>
      <trkpt lat="43.95988" lon="6.83928">
        <ele>658.64</ele>
        <time>2025-03-08T08:27:21Z</time>
      </trkpt>
      <trkpt lat="43.96009" lon="6.8394">
        <ele>657.2</ele>
        <time>2025-03-08T08:27:40Z</time>
      </trkpt>
      <trkpt lat="43.96008" lon="6.83941">
        <ele>657.2</ele>
        <time>2025-03-08T08:27:55Z</time>
      </trkpt>
      <trkpt lat="43.96011" lon="6.83938">
        <ele>657.2</ele>
        <time>2025-03-08T08:28:08Z</time>
      </trkpt>
      <trkpt lat="43.96022" lon="6.83927">
        <ele>655.28</ele>
        <time>2025-03-08T08:28:23Z</time>
      </trkpt>
      <trkpt lat="43.9604" lon="6.83903">
        <ele>654.31</ele>
        <time>2025-03-08T08:28:42Z</time>
      </trkpt>
      <trkpt lat="43.96049" lon="6.83874">
        <ele>653.83</ele>
        <time>2025-03-08T08:29:00Z</time>
      </trkpt>
      <trkpt lat="43.96062" lon="6.8387">
        <ele>653.83</ele>
        <time>2025-03-08T08:29:14Z</time>
      </trkpt>
      <trkpt lat="43.9608" lon="6.83879">
        <ele>653.35</ele>
        <time>2025-03-08T08:29:30Z</time>
      </trkpt>
      <trkpt lat="43.96105" lon="6.8387">
        <ele>651.43</ele>
        <time>2025-03-08T08:29:50Z</time>
      </trkpt>
      <trkpt lat="43.96123" lon="6.83868">
        <ele>651.43</ele>
        <time>2025-03-08T08:30:06Z</time>
      </trkpt>
      <trkpt lat="43.96134" lon="6.83866">
        <ele>651.43</ele>
        <time>2025-03-08T08:30:14Z</time>
      </trkpt>
      <trkpt lat="43.96149" lon="6.83854">
        <ele>653.83</ele>
        <time>2025-03-08T08:30:29Z</time>
      </trkpt>
      <trkpt lat="43.96165" lon="6.83845">
        <ele>655.76</ele>
        <time>2025-03-08T08:30:44Z</time>
      </trkpt>
      <trkpt lat="43.96181" lon="6.83835">
        <ele>657.2</ele>
        <time>2025-03-08T08:30:58Z</time>
      </trkpt>
      <trkpt lat="43.96203" lon="6.83816">
        <ele>657.2</ele>
        <time>2025-03-08T08:31:17Z</time>
      </trkpt>
      <trkpt lat="43.96205" lon="6.83815">
        <ele>655.76</ele>
        <time>2025-03-08T08:31:19Z</time>
      </trkpt>
      <trkpt lat="43.96212" lon="6.8382">
        <ele>655.28</ele>
        <time>2025-03-08T08:31:35Z</time>
      </trkpt>
      <trkpt lat="43.96212" lon="6.83818">
        <ele>655.28</ele>
        <time>2025-03-08T08:31:43Z</time>
      </trkpt>
      <trkpt lat="43.96224" lon="6.83807">
        <ele>656.72</ele>
        <time>2025-03-08T08:31:57Z</time>
      </trkpt>
      <trkpt lat="43.96226" lon="6.83803">
        <ele>657.68</ele>
        <time>2025-03-08T08:32:07Z</time>
      </trkpt>
      <trkpt lat="43.96233" lon="6.83793">
        <ele>658.64</ele>
        <time>2025-03-08T08:32:19Z</time>
      </trkpt>
      <trkpt lat="43.96242" lon="6.83786">
        <ele>661.04</ele>
        <time>2025-03-08T08:32:34Z</time>
      </trkpt>
      <trkpt lat="43.96251" lon="6.83776">
        <ele>662.01</ele>
        <time>2025-03-08T08:32:48Z</time>
      </trkpt>
      <trkpt lat="43.96253" lon="6.83775">
        <ele>662.01</ele>
        <time>2025-03-08T08:32:50Z</time>
      </trkpt>
      <trkpt lat="43.96262" lon="6.83762">
        <ele>663.93</ele>
        <time>2025-03-08T08:33:02Z</time>
      </trkpt>
      <trkpt lat="43.96264" lon="6.83757">
        <ele>664.89</ele>
        <time>2025-03-08T08:33:06Z</time>
      </trkpt>
      <trkpt lat="43.96281" lon="6.83744">
        <ele>667.29</ele>
        <time>2025-03-08T08:33:25Z</time>
      </trkpt>
      <trkpt lat="43.96292" lon="6.83734">
        <ele>669.22</ele>
        <time>2025-03-08T08:33:39Z</time>
      </trkpt>
      <trkpt lat="43.96302" lon="6.83722">
        <ele>671.62</ele>
        <time>2025-03-08T08:33:54Z</time>
      </trkpt>
      <trkpt lat="43.96311" lon="6.83712">
        <ele>674.5</ele>
        <time>2025-03-08T08:34:08Z</time>
      </trkpt>
      <trkpt lat="43.96319" lon="6.83703">
        <ele>675.94</ele>
        <time>2025-03-08T08:34:21Z</time>
      </trkpt>
      <trkpt lat="43.96326" lon="6.83696">
        <ele>678.35</ele>
        <time>2025-03-08T08:34:35Z</time>
      </trkpt>
      <trkpt lat="43.96331" lon="6.83688">
        <ele>680.75</ele>
        <time>2025-03-08T08:34:48Z</time>
      </trkpt>
      <trkpt lat="43.96337" lon="6.83683">
        <ele>682.19</ele>
        <time>2025-03-08T08:35:00Z</time>
      </trkpt>
      <trkpt lat="43.96343" lon="6.83677">
        <ele>684.6</ele>
        <time>2025-03-08T08:35:14Z</time>
      </trkpt>
      <trkpt lat="43.96349" lon="6.8367">
        <ele>686.04</ele>
        <time>2025-03-08T08:35:27Z</time>
      </trkpt>
      <trkpt lat="43.96358" lon="6.83666">
        <ele>687.96</ele>
        <time>2025-03-08T08:35:39Z</time>
      </trkpt>
      <trkpt lat="43.96366" lon="6.83664">
        <ele>689.88</ele>
        <time>2025-03-08T08:35:52Z</time>
      </trkpt>
      <trkpt lat="43.96373" lon="6.83665">
        <ele>691.81</ele>
        <time>2025-03-08T08:36:05Z</time>
      </trkpt>
      <trkpt lat="43.96374" lon="6.83666">
        <ele>690.84</ele>
        <time>2025-03-08T08:36:17Z</time>
      </trkpt>
      <trkpt lat="43.96384" lon="6.8366">
        <ele>690.84</ele>
        <time>2025-03-08T08:36:36Z</time>
      </trkpt>
      <trkpt lat="43.96398" lon="6.83651">
        <ele>690.36</ele>
        <time>2025-03-08T08:36:51Z</time>
      </trkpt>
      <trkpt lat="43.964" lon="6.8365">
        <ele>691.81</ele>
        <time>2025-03-08T08:36:55Z</time>
      </trkpt>
      <trkpt lat="43.96412" lon="6.83643">
        <ele>695.17</ele>
        <time>2025-03-08T08:37:09Z</time>
      </trkpt>
      <trkpt lat="43.96415" lon="6.83644">
        <ele>695.65</ele>
        <time>2025-03-08T08:37:19Z</time>
      </trkpt>
      <trkpt lat="43.96417" lon="6.83634">
        <ele>696.61</ele>
        <time>2025-03-08T08:37:34Z</time>
      </trkpt>
      <trkpt lat="43.96425" lon="6.83619">
        <ele>698.53</ele>
        <time>2025-03-08T08:37:49Z</time>
      </trkpt>
      <trkpt lat="43.96432" lon="6.83608">
        <ele>701.9</ele>
        <time>2025-03-08T08:38:02Z</time>
      </trkpt>
      <trkpt lat="43.9644" lon="6.836">
        <ele>704.3</ele>
        <time>2025-03-08T08:38:16Z</time>
      </trkpt>
      <trkpt lat="43.9645" lon="6.836">
        <ele>706.23</ele>
        <time>2025-03-08T08:38:30Z</time>
      </trkpt>
      <trkpt lat="43.96463" lon="6.83592">
        <ele>707.67</ele>
        <time>2025-03-08T08:38:45Z</time>
      </trkpt>
      <trkpt lat="43.96468" lon="6.83587">
        <ele>708.15</ele>
        <time>2025-03-08T08:38:53Z</time>
      </trkpt>
      <trkpt lat="43.96475" lon="6.83582">
        <ele>709.11</ele>
        <time>2025-03-08T08:39:01Z</time>
      </trkpt>
      <trkpt lat="43.96487" lon="6.83577">
        <ele>711.03</ele>
        <time>2025-03-08T08:39:13Z</time>
      </trkpt>
      <trkpt lat="43.965" lon="6.83573">
        <ele>711.99</ele>
        <time>2025-03-08T08:39:26Z</time>
      </trkpt>
      <trkpt lat="43.96507" lon="6.83574">
        <ele>713.44</ele>
        <time>2025-03-08T08:39:35Z</time>
      </trkpt>
      <trkpt lat="43.9652" lon="6.8358">
        <ele>715.36</ele>
        <time>2025-03-08T08:39:50Z</time>
      </trkpt>
      <trkpt lat="43.9653" lon="6.83586">
        <ele>715.84</ele>
        <time>2025-03-08T08:40:02Z</time>
      </trkpt>
      <trkpt lat="43.96538" lon="6.836">
        <ele>718.24</ele>
        <time>2025-03-08T08:40:18Z</time>
      </trkpt>
      <trkpt lat="43.96546" lon="6.83603">
        <ele>720.65</ele>
        <time>2025-03-08T08:40:30Z</time>
      </trkpt>
      <trkpt lat="43.96551" lon="6.836">
        <ele>722.57</ele>
        <time>2025-03-08T08:40:43Z</time>
      </trkpt>
      <trkpt lat="43.96558" lon="6.83592">
        <ele>724.97</ele>
        <time>2025-03-08T08:40:57Z</time>
      </trkpt>
      <trkpt lat="43.96559" lon="6.8358">
        <ele>726.89</ele>
        <time>2025-03-08T08:41:10Z</time>
      </trkpt>
      <trkpt lat="43.96566" lon="6.83568">
        <ele>727.86</ele>
        <time>2025-03-08T08:41:24Z</time>
      </trkpt>
      <trkpt lat="43.96575" lon="6.83566">
        <ele>729.78</ele>
        <time>2025-03-08T08:41:36Z</time>
      </trkpt>
      <trkpt lat="43.96578" lon="6.83566">
        <ele>729.78</ele>
        <time>2025-03-08T08:41:40Z</time>
      </trkpt>
      <trkpt lat="43.96587" lon="6.83576">
        <ele>731.22</ele>
        <time>2025-03-08T08:41:55Z</time>
      </trkpt>
      <trkpt lat="43.96594" lon="6.83579">
        <ele>733.14</ele>
        <time>2025-03-08T08:42:08Z</time>
      </trkpt>
      <trkpt lat="43.96602" lon="6.8358">
        <ele>735.07</ele>
        <time>2025-03-08T08:42:20Z</time>
      </trkpt>
      <trkpt lat="43.96607" lon="6.83578">
        <ele>736.51</ele>
        <time>2025-03-08T08:42:33Z</time>
      </trkpt>
      <trkpt lat="43.96614" lon="6.83576">
        <ele>737.47</ele>
        <time>2025-03-08T08:42:45Z</time>
      </trkpt>
      <trkpt lat="43.96617" lon="6.83575">
        <ele>737.95</ele>
        <time>2025-03-08T08:43:00Z</time>
      </trkpt>
      <trkpt lat="43.96615" lon="6.83577">
        <ele>737.95</ele>
        <time>2025-03-08T08:43:17Z</time>
      </trkpt>
      <trkpt lat="43.96608" lon="6.83578">
        <ele>736.51</ele>
        <time>2025-03-08T08:43:27Z</time>
      </trkpt>
      <trkpt lat="43.96607" lon="6.83578">
        <ele>736.51</ele>
        <time>2025-03-08T08:43:28Z</time>
      </trkpt>
      <trkpt lat="43.966" lon="6.83581">
        <ele>734.58</ele>
        <time>2025-03-08T08:43:44Z</time>
      </trkpt>
      <trkpt lat="43.966" lon="6.83584">
        <ele>734.58</ele>
        <time>2025-03-08T08:43:51Z</time>
      </trkpt>
      <trkpt lat="43.96599" lon="6.83589">
        <ele>735.55</ele>
        <time>2025-03-08T08:43:54Z</time>
      </trkpt>
      <trkpt lat="43.96599" lon="6.83596">
        <ele>737.95</ele>
        <time>2025-03-08T08:44:06Z</time>
      </trkpt>
      <trkpt lat="43.96598" lon="6.83595">
        <ele>737.95</ele>
        <time>2025-03-08T08:44:15Z</time>
      </trkpt>
      <trkpt lat="43.96599" lon="6.83588">
        <ele>736.03</ele>
        <time>2025-03-08T08:44:21Z</time>
      </trkpt>
      <trkpt lat="43.96598" lon="6.83579">
        <ele>734.1</ele>
        <time>2025-03-08T08:44:34Z</time>
      </trkpt>
      <trkpt lat="43.96597" lon="6.83579">
        <ele>734.1</ele>
        <time>2025-03-08T08:44:36Z</time>
      </trkpt>
      <trkpt lat="43.9659" lon="6.83578">
        <ele>732.18</ele>
        <time>2025-03-08T08:44:44Z</time>
      </trkpt>
      <trkpt lat="43.96576" lon="6.83565">
        <ele>729.3</ele>
        <time>2025-03-08T08:44:59Z</time>
      </trkpt>
      <trkpt lat="43.96575" lon="6.83565">
        <ele>728.82</ele>
        <time>2025-03-08T08:45:00Z</time>
      </trkpt>
      <trkpt lat="43.96568" lon="6.83566">
        <ele>728.34</ele>
        <time>2025-03-08T08:45:08Z</time>
      </trkpt>
      <trkpt lat="43.96563" lon="6.83567">
        <ele>727.86</ele>
        <time>2025-03-08T08:45:13Z</time>
      </trkpt>
      <trkpt lat="43.9656" lon="6.83575">
        <ele>727.37</ele>
        <time>2025-03-08T08:45:19Z</time>
      </trkpt>
      <trkpt lat="43.96557" lon="6.83594">
        <ele>724.49</ele>
        <time>2025-03-08T08:45:33Z</time>
      </trkpt>
      <trkpt lat="43.96553" lon="6.836">
        <ele>723.05</ele>
        <time>2025-03-08T08:45:38Z</time>
      </trkpt>
      <trkpt lat="43.96546" lon="6.83604">
        <ele>720.65</ele>
        <time>2025-03-08T08:45:44Z</time>
      </trkpt>
      <trkpt lat="43.96538" lon="6.83606">
        <ele>719.2</ele>
        <time>2025-03-08T08:45:57Z</time>
      </trkpt>
      <trkpt lat="43.96535" lon="6.8361">
        <ele>719.2</ele>
        <time>2025-03-08T08:46:09Z</time>
      </trkpt>
      <trkpt lat="43.96536" lon="6.83614">
        <ele>719.2</ele>
        <time>2025-03-08T08:46:14Z</time>
      </trkpt>
      <trkpt lat="43.96544" lon="6.83633">
        <ele>723.05</ele>
        <time>2025-03-08T08:46:31Z</time>
      </trkpt>
      <trkpt lat="43.9655" lon="6.83653">
        <ele>724.97</ele>
        <time>2025-03-08T08:46:45Z</time>
      </trkpt>
      <trkpt lat="43.96555" lon="6.83672">
        <ele>727.86</ele>
        <time>2025-03-08T08:47:00Z</time>
      </trkpt>
      <trkpt lat="43.96557" lon="6.83687">
        <ele>731.22</ele>
        <time>2025-03-08T08:47:14Z</time>
      </trkpt>
      <trkpt lat="43.96556" lon="6.837">
        <ele>733.62</ele>
        <time>2025-03-08T08:47:28Z</time>
      </trkpt>
      <trkpt lat="43.9655" lon="6.83706">
        <ele>736.03</ele>
        <time>2025-03-08T08:47:40Z</time>
      </trkpt>
      <trkpt lat="43.96543" lon="6.83706">
        <ele>738.43</ele>
        <time>2025-03-08T08:47:52Z</time>
      </trkpt>
      <trkpt lat="43.96539" lon="6.83707">
        <ele>739.39</ele>
        <time>2025-03-08T08:47:57Z</time>
      </trkpt>
      <trkpt lat="43.96536" lon="6.83708">
        <ele>739.87</ele>
        <time>2025-03-08T08:48:00Z</time>
      </trkpt>
      <trkpt lat="43.96524" lon="6.8373">
        <ele>739.87</ele>
        <time>2025-03-08T08:48:17Z</time>
      </trkpt>
      <trkpt lat="43.96515" lon="6.83756">
        <ele>738.91</ele>
        <time>2025-03-08T08:48:34Z</time>
      </trkpt>
      <trkpt lat="43.9651" lon="6.83776">
        <ele>740.35</ele>
        <time>2025-03-08T08:48:47Z</time>
      </trkpt>
      <trkpt lat="43.96506" lon="6.83797">
        <ele>743.72</ele>
        <time>2025-03-08T08:49:04Z</time>
      </trkpt>
      <trkpt lat="43.96505" lon="6.838">
        <ele>743.72</ele>
        <time>2025-03-08T08:49:07Z</time>
      </trkpt>
      <trkpt lat="43.96503" lon="6.83804">
        <ele>744.2</ele>
        <time>2025-03-08T08:49:10Z</time>
      </trkpt>
      <trkpt lat="43.96494" lon="6.83825">
        <ele>746.6</ele>
        <time>2025-03-08T08:49:27Z</time>
      </trkpt>
      <trkpt lat="43.96491" lon="6.83834">
        <ele>747.56</ele>
        <time>2025-03-08T08:49:34Z</time>
      </trkpt>
      <trkpt lat="43.96487" lon="6.83872">
        <ele>749</ele>
        <time>2025-03-08T08:49:56Z</time>
      </trkpt>
      <trkpt lat="43.96498" lon="6.83896">
        <ele>748.52</ele>
        <time>2025-03-08T08:50:14Z</time>
      </trkpt>
      <trkpt lat="43.96497" lon="6.83899">
        <ele>747.56</ele>
        <time>2025-03-08T08:50:26Z</time>
      </trkpt>
      <trkpt lat="43.96525" lon="6.83903">
        <ele>747.08</ele>
        <time>2025-03-08T08:50:47Z</time>
      </trkpt>
      <trkpt lat="43.96552" lon="6.83906">
        <ele>746.12</ele>
        <time>2025-03-08T08:51:06Z</time>
      </trkpt>
      <trkpt lat="43.96569" lon="6.83919">
        <ele>745.64</ele>
        <time>2025-03-08T08:51:22Z</time>
      </trkpt>
      <trkpt lat="43.96585" lon="6.83937">
        <ele>744.68</ele>
        <time>2025-03-08T08:51:37Z</time>
      </trkpt>
      <trkpt lat="43.96594" lon="6.83948">
        <ele>746.12</ele>
        <time>2025-03-08T08:51:47Z</time>
      </trkpt>
      <trkpt lat="43.96606" lon="6.83951">
        <ele>749.49</ele>
        <time>2025-03-08T08:52:00Z</time>
      </trkpt>
      <trkpt lat="43.96614" lon="6.83952">
        <ele>751.89</ele>
        <time>2025-03-08T08:52:13Z</time>
      </trkpt>
      <trkpt lat="43.96623" lon="6.83955">
        <ele>754.29</ele>
        <time>2025-03-08T08:52:28Z</time>
      </trkpt>
      <trkpt lat="43.96633" lon="6.83958">
        <ele>756.69</ele>
        <time>2025-03-08T08:52:43Z</time>
      </trkpt>
      <trkpt lat="43.96641" lon="6.83964">
        <ele>758.62</ele>
        <time>2025-03-08T08:52:56Z</time>
      </trkpt>
      <trkpt lat="43.9665" lon="6.83971">
        <ele>761.02</ele>
        <time>2025-03-08T08:53:11Z</time>
      </trkpt>
      <trkpt lat="43.96663" lon="6.8398">
        <ele>762.46</ele>
        <time>2025-03-08T08:53:26Z</time>
      </trkpt>
      <trkpt lat="43.96665" lon="6.83982">
        <ele>762.94</ele>
        <time>2025-03-08T08:53:28Z</time>
      </trkpt>
      <trkpt lat="43.96678" lon="6.84002">
        <ele>761.5</ele>
        <time>2025-03-08T08:53:45Z</time>
      </trkpt>
      <trkpt lat="43.96676" lon="6.84012">
        <ele>762.94</ele>
        <time>2025-03-08T08:53:56Z</time>
      </trkpt>
      <trkpt lat="43.96665" lon="6.84018">
        <ele>766.31</ele>
        <time>2025-03-08T08:54:11Z</time>
      </trkpt>
      <trkpt lat="43.96656" lon="6.84025">
        <ele>767.75</ele>
        <time>2025-03-08T08:54:22Z</time>
      </trkpt>
      <trkpt lat="43.96654" lon="6.84025">
        <ele>768.23</ele>
        <time>2025-03-08T08:54:25Z</time>
      </trkpt>
      <trkpt lat="43.96651" lon="6.84028">
        <ele>768.71</ele>
        <time>2025-03-08T08:54:29Z</time>
      </trkpt>
      <trkpt lat="43.96635" lon="6.84035">
        <ele>770.15</ele>
        <time>2025-03-08T08:54:45Z</time>
      </trkpt>
      <trkpt lat="43.96627" lon="6.84039">
        <ele>771.6</ele>
        <time>2025-03-08T08:54:59Z</time>
      </trkpt>
      <trkpt lat="43.96626" lon="6.8404">
        <ele>771.6</ele>
        <time>2025-03-08T08:55:17Z</time>
      </trkpt>
      <trkpt lat="43.96635" lon="6.84058">
        <ele>773.52</ele>
        <time>2025-03-08T08:55:34Z</time>
      </trkpt>
      <trkpt lat="43.96643" lon="6.84063">
        <ele>774.96</ele>
        <time>2025-03-08T08:55:50Z</time>
      </trkpt>
      <trkpt lat="43.9665" lon="6.84068">
        <ele>776.88</ele>
        <time>2025-03-08T08:56:00Z</time>
      </trkpt>
      <trkpt lat="43.96663" lon="6.84076">
        <ele>779.77</ele>
        <time>2025-03-08T08:56:16Z</time>
      </trkpt>
      <trkpt lat="43.96677" lon="6.84084">
        <ele>783.13</ele>
        <time>2025-03-08T08:56:33Z</time>
      </trkpt>
      <trkpt lat="43.96689" lon="6.8409">
        <ele>785.53</ele>
        <time>2025-03-08T08:56:48Z</time>
      </trkpt>
      <trkpt lat="43.96699" lon="6.84093">
        <ele>787.94</ele>
        <time>2025-03-08T08:57:02Z</time>
      </trkpt>
      <trkpt lat="43.96708" lon="6.84094">
        <ele>789.38</ele>
        <time>2025-03-08T08:57:14Z</time>
      </trkpt>
      <trkpt lat="43.9672" lon="6.84096">
        <ele>791.78</ele>
        <time>2025-03-08T08:57:29Z</time>
      </trkpt>
      <trkpt lat="43.96729" lon="6.84101">
        <ele>794.19</ele>
        <time>2025-03-08T08:57:42Z</time>
      </trkpt>
      <trkpt lat="43.9674" lon="6.84111">
        <ele>796.11</ele>
        <time>2025-03-08T08:57:58Z</time>
      </trkpt>
      <trkpt lat="43.96752" lon="6.84114">
        <ele>798.51</ele>
        <time>2025-03-08T08:58:12Z</time>
      </trkpt>
      <trkpt lat="43.96759" lon="6.84123">
        <ele>800.44</ele>
        <time>2025-03-08T08:58:26Z</time>
      </trkpt>
      <trkpt lat="43.96767" lon="6.8413">
        <ele>801.88</ele>
        <time>2025-03-08T08:58:38Z</time>
      </trkpt>
      <trkpt lat="43.96776" lon="6.84133">
        <ele>803.8</ele>
        <time>2025-03-08T08:58:49Z</time>
      </trkpt>
      <trkpt lat="43.96783" lon="6.84138">
        <ele>804.76</ele>
        <time>2025-03-08T08:59:00Z</time>
      </trkpt>
      <trkpt lat="43.96789" lon="6.84144">
        <ele>805.72</ele>
        <time>2025-03-08T08:59:08Z</time>
      </trkpt>
      <trkpt lat="43.96791" lon="6.84147">
        <ele>805.72</ele>
        <time>2025-03-08T08:59:11Z</time>
      </trkpt>
      <trkpt lat="43.96803" lon="6.84156">
        <ele>808.13</ele>
        <time>2025-03-08T08:59:26Z</time>
      </trkpt>
      <trkpt lat="43.96811" lon="6.84169">
        <ele>809.57</ele>
        <time>2025-03-08T08:59:39Z</time>
      </trkpt>
      <trkpt lat="43.96822" lon="6.84192">
        <ele>811.01</ele>
        <time>2025-03-08T08:59:57Z</time>
      </trkpt>
      <trkpt lat="43.96825" lon="6.84197">
        <ele>811.01</ele>
        <time>2025-03-08T09:00:01Z</time>
      </trkpt>
      <trkpt lat="43.96841" lon="6.8422">
        <ele>811.97</ele>
        <time>2025-03-08T09:00:20Z</time>
      </trkpt>
      <trkpt lat="43.96853" lon="6.84227">
        <ele>812.93</ele>
        <time>2025-03-08T09:00:35Z</time>
      </trkpt>
      <trkpt lat="43.96867" lon="6.84235">
        <ele>813.89</ele>
        <time>2025-03-08T09:00:50Z</time>
      </trkpt>
      <trkpt lat="43.96883" lon="6.84247">
        <ele>815.82</ele>
        <time>2025-03-08T09:01:08Z</time>
      </trkpt>
      <trkpt lat="43.9689" lon="6.84257">
        <ele>816.3</ele>
        <time>2025-03-08T09:01:25Z</time>
      </trkpt>
      <trkpt lat="43.96899" lon="6.84265">
        <ele>817.26</ele>
        <time>2025-03-08T09:01:38Z</time>
      </trkpt>
      <trkpt lat="43.9691" lon="6.84278">
        <ele>818.7</ele>
        <time>2025-03-08T09:01:53Z</time>
      </trkpt>
      <trkpt lat="43.96915" lon="6.84289">
        <ele>819.66</ele>
        <time>2025-03-08T09:02:03Z</time>
      </trkpt>
      <trkpt lat="43.96919" lon="6.84306">
        <ele>819.66</ele>
        <time>2025-03-08T09:02:15Z</time>
      </trkpt>
      <trkpt lat="43.9692" lon="6.84309">
        <ele>818.22</ele>
        <time>2025-03-08T09:02:17Z</time>
      </trkpt>
      <trkpt lat="43.96926" lon="6.84325">
        <ele>816.3</ele>
        <time>2025-03-08T09:02:28Z</time>
      </trkpt>
      <trkpt lat="43.96927" lon="6.84347">
        <ele>815.34</ele>
        <time>2025-03-08T09:02:42Z</time>
      </trkpt>
      <trkpt lat="43.96927" lon="6.84357">
        <ele>814.37</ele>
        <time>2025-03-08T09:02:49Z</time>
      </trkpt>
      <trkpt lat="43.96916" lon="6.84367">
        <ele>817.74</ele>
        <time>2025-03-08T09:03:02Z</time>
      </trkpt>
      <trkpt lat="43.96915" lon="6.84368">
        <ele>817.74</ele>
        <time>2025-03-08T09:03:03Z</time>
      </trkpt>
      <trkpt lat="43.96907" lon="6.8438">
        <ele>820.62</ele>
        <time>2025-03-08T09:03:17Z</time>
      </trkpt>
      <trkpt lat="43.96907" lon="6.84392">
        <ele>822.06</ele>
        <time>2025-03-08T09:03:28Z</time>
      </trkpt>
      <trkpt lat="43.9691" lon="6.844">
        <ele>823.03</ele>
        <time>2025-03-08T09:03:38Z</time>
      </trkpt>
      <trkpt lat="43.96909" lon="6.84413">
        <ele>823.03</ele>
        <time>2025-03-08T09:03:47Z</time>
      </trkpt>
      <trkpt lat="43.96909" lon="6.84417">
        <ele>823.03</ele>
        <time>2025-03-08T09:03:50Z</time>
      </trkpt>
      <trkpt lat="43.96909" lon="6.84435">
        <ele>823.51</ele>
        <time>2025-03-08T09:04:06Z</time>
      </trkpt>
      <trkpt lat="43.96909" lon="6.84442">
        <ele>823.51</ele>
        <time>2025-03-08T09:04:15Z</time>
      </trkpt>
      <trkpt lat="43.96907" lon="6.84448">
        <ele>823.51</ele>
        <time>2025-03-08T09:04:19Z</time>
      </trkpt>
      <trkpt lat="43.96906" lon="6.84463">
        <ele>823.51</ele>
        <time>2025-03-08T09:04:28Z</time>
      </trkpt>
      <trkpt lat="43.96903" lon="6.84472">
        <ele>823.51</ele>
        <time>2025-03-08T09:04:34Z</time>
      </trkpt>
      <trkpt lat="43.96896" lon="6.8449">
        <ele>822.06</ele>
        <time>2025-03-08T09:04:49Z</time>
      </trkpt>
      <trkpt lat="43.96896" lon="6.84491">
        <ele>822.06</ele>
        <time>2025-03-08T09:04:50Z</time>
      </trkpt>
      <trkpt lat="43.96898" lon="6.84493">
        <ele>822.06</ele>
        <time>2025-03-08T09:04:57Z</time>
      </trkpt>
      <trkpt lat="43.96897" lon="6.84487">
        <ele>822.06</ele>
        <time>2025-03-08T09:05:01Z</time>
      </trkpt>
      <trkpt lat="43.96901" lon="6.84478">
        <ele>822.06</ele>
        <time>2025-03-08T09:05:08Z</time>
      </trkpt>
      <trkpt lat="43.96915" lon="6.84474">
        <ele>825.43</ele>
        <time>2025-03-08T09:05:23Z</time>
      </trkpt>
      <trkpt lat="43.96917" lon="6.84474">
        <ele>825.43</ele>
        <time>2025-03-08T09:05:25Z</time>
      </trkpt>
      <trkpt lat="43.96925" lon="6.84484">
        <ele>828.79</ele>
        <time>2025-03-08T09:05:38Z</time>
      </trkpt>
      <trkpt lat="43.96924" lon="6.84488">
        <ele>828.31</ele>
        <time>2025-03-08T09:05:49Z</time>
      </trkpt>
      <trkpt lat="43.96918" lon="6.84522">
        <ele>828.79</ele>
        <time>2025-03-08T09:06:09Z</time>
      </trkpt>
      <trkpt lat="43.96913" lon="6.84558">
        <ele>826.87</ele>
        <time>2025-03-08T09:06:29Z</time>
      </trkpt>
      <trkpt lat="43.96917" lon="6.84596">
        <ele>826.39</ele>
        <time>2025-03-08T09:06:50Z</time>
      </trkpt>
      <trkpt lat="43.96923" lon="6.84627">
        <ele>829.27</ele>
        <time>2025-03-08T09:07:08Z</time>
      </trkpt>
      <trkpt lat="43.96933" lon="6.8466">
        <ele>831.2</ele>
        <time>2025-03-08T09:07:28Z</time>
      </trkpt>
      <trkpt lat="43.96934" lon="6.84674">
        <ele>832.16</ele>
        <time>2025-03-08T09:07:46Z</time>
      </trkpt>
      <trkpt lat="43.96932" lon="6.84678">
        <ele>832.64</ele>
        <time>2025-03-08T09:07:50Z</time>
      </trkpt>
      <trkpt lat="43.96919" lon="6.8469">
        <ele>833.12</ele>
        <time>2025-03-08T09:08:05Z</time>
      </trkpt>
      <trkpt lat="43.96916" lon="6.84697">
        <ele>833.12</ele>
        <time>2025-03-08T09:08:10Z</time>
      </trkpt>
      <trkpt lat="43.969" lon="6.84705">
        <ele>834.56</ele>
        <time>2025-03-08T09:08:26Z</time>
      </trkpt>
      <trkpt lat="43.96882" lon="6.84704">
        <ele>834.56</ele>
        <time>2025-03-08T09:08:42Z</time>
      </trkpt>
      <trkpt lat="43.96874" lon="6.84702">
        <ele>835.04</ele>
        <time>2025-03-08T09:08:57Z</time>
      </trkpt>
      <trkpt lat="43.96873" lon="6.84702">
        <ele>835.04</ele>
        <time>2025-03-08T09:09:11Z</time>
      </trkpt>
      <trkpt lat="43.96878" lon="6.84718">
        <ele>836</ele>
        <time>2025-03-08T09:09:27Z</time>
      </trkpt>
      <trkpt lat="43.9688" lon="6.84718">
        <ele>834.56</ele>
        <time>2025-03-08T09:09:40Z</time>
      </trkpt>
      <trkpt lat="43.96882" lon="6.84722">
        <ele>834.56</ele>
        <time>2025-03-08T09:09:43Z</time>
      </trkpt>
      <trkpt lat="43.96886" lon="6.8473">
        <ele>836</ele>
        <time>2025-03-08T09:09:49Z</time>
      </trkpt>
      <trkpt lat="43.9689" lon="6.84734">
        <ele>836</ele>
        <time>2025-03-08T09:09:53Z</time>
      </trkpt>
      <trkpt lat="43.96901" lon="6.84741">
        <ele>836.48</ele>
        <time>2025-03-08T09:10:07Z</time>
      </trkpt>
      <trkpt lat="43.96902" lon="6.84743">
        <ele>836.48</ele>
        <time>2025-03-08T09:10:08Z</time>
      </trkpt>
      <trkpt lat="43.96913" lon="6.84768">
        <ele>837.45</ele>
        <time>2025-03-08T09:10:26Z</time>
      </trkpt>
      <trkpt lat="43.96921" lon="6.84781">
        <ele>837.93</ele>
        <time>2025-03-08T09:10:36Z</time>
      </trkpt>
      <trkpt lat="43.96936" lon="6.84772">
        <ele>838.41</ele>
        <time>2025-03-08T09:10:52Z</time>
      </trkpt>
      <trkpt lat="43.96937" lon="6.84769">
        <ele>838.41</ele>
        <time>2025-03-08T09:10:54Z</time>
      </trkpt>
      <trkpt lat="43.96936" lon="6.84747">
        <ele>837.45</ele>
        <time>2025-03-08T09:11:10Z</time>
      </trkpt>
      <trkpt lat="43.96942" lon="6.84743">
        <ele>836.96</ele>
        <time>2025-03-08T09:11:16Z</time>
      </trkpt>
      <trkpt lat="43.96955" lon="6.84742">
        <ele>836.96</ele>
        <time>2025-03-08T09:11:28Z</time>
      </trkpt>
      <trkpt lat="43.96966" lon="6.84745">
        <ele>836.48</ele>
        <time>2025-03-08T09:11:42Z</time>
      </trkpt>
      <trkpt lat="43.9698" lon="6.84744">
        <ele>836</ele>
        <time>2025-03-08T09:11:57Z</time>
      </trkpt>
      <trkpt lat="43.96982" lon="6.84744">
        <ele>836</ele>
        <time>2025-03-08T09:11:59Z</time>
      </trkpt>
      <trkpt lat="43.96986" lon="6.84744">
        <ele>837.45</ele>
        <time>2025-03-08T09:12:02Z</time>
      </trkpt>
      <trkpt lat="43.96997" lon="6.84743">
        <ele>837.93</ele>
        <time>2025-03-08T09:12:12Z</time>
      </trkpt>
      <trkpt lat="43.97007" lon="6.84735">
        <ele>838.89</ele>
        <time>2025-03-08T09:12:22Z</time>
      </trkpt>
      <trkpt lat="43.97013" lon="6.84734">
        <ele>839.37</ele>
        <time>2025-03-08T09:12:27Z</time>
      </trkpt>
      <trkpt lat="43.97027" lon="6.84731">
        <ele>841.29</ele>
        <time>2025-03-08T09:12:42Z</time>
      </trkpt>
      <trkpt lat="43.97041" lon="6.8473">
        <ele>843.21</ele>
        <time>2025-03-08T09:12:56Z</time>
      </trkpt>
      <trkpt lat="43.97055" lon="6.84724">
        <ele>846.1</ele>
        <time>2025-03-08T09:13:12Z</time>
      </trkpt>
      <trkpt lat="43.97067" lon="6.84725">
        <ele>848.02</ele>
        <time>2025-03-08T09:13:27Z</time>
      </trkpt>
      <trkpt lat="43.97069" lon="6.84725">
        <ele>848.5</ele>
        <time>2025-03-08T09:13:29Z</time>
      </trkpt>
      <trkpt lat="43.97086" lon="6.84727">
        <ele>849.94</ele>
        <time>2025-03-08T09:13:47Z</time>
      </trkpt>
      <trkpt lat="43.97099" lon="6.84726">
        <ele>851.87</ele>
        <time>2025-03-08T09:14:01Z</time>
      </trkpt>
      <trkpt lat="43.97113" lon="6.8473">
        <ele>853.79</ele>
        <time>2025-03-08T09:14:16Z</time>
      </trkpt>
      <trkpt lat="43.97126" lon="6.84727">
        <ele>856.19</ele>
        <time>2025-03-08T09:14:33Z</time>
      </trkpt>
      <trkpt lat="43.97134" lon="6.84718">
        <ele>858.11</ele>
        <time>2025-03-08T09:14:46Z</time>
      </trkpt>
      <trkpt lat="43.97145" lon="6.84714">
        <ele>860.04</ele>
        <time>2025-03-08T09:15:00Z</time>
      </trkpt>
      <trkpt lat="43.97155" lon="6.84707">
        <ele>861.48</ele>
        <time>2025-03-08T09:15:13Z</time>
      </trkpt>
      <trkpt lat="43.97166" lon="6.84703">
        <ele>863.4</ele>
        <time>2025-03-08T09:15:27Z</time>
      </trkpt>
      <trkpt lat="43.97175" lon="6.847">
        <ele>864.36</ele>
        <time>2025-03-08T09:15:40Z</time>
      </trkpt>
      <trkpt lat="43.97186" lon="6.84696">
        <ele>866.77</ele>
        <time>2025-03-08T09:15:55Z</time>
      </trkpt>
      <trkpt lat="43.97196" lon="6.84697">
        <ele>869.17</ele>
        <time>2025-03-08T09:16:11Z</time>
      </trkpt>
      <trkpt lat="43.97206" lon="6.84692">
        <ele>871.09</ele>
        <time>2025-03-08T09:16:25Z</time>
      </trkpt>
      <trkpt lat="43.97212" lon="6.84683">
        <ele>874.46</ele>
        <time>2025-03-08T09:16:40Z</time>
      </trkpt>
      <trkpt lat="43.97216" lon="6.84671">
        <ele>876.86</ele>
        <time>2025-03-08T09:16:55Z</time>
      </trkpt>
      <trkpt lat="43.97221" lon="6.84663">
        <ele>878.3</ele>
        <time>2025-03-08T09:17:09Z</time>
      </trkpt>
      <trkpt lat="43.97228" lon="6.84654">
        <ele>880.71</ele>
        <time>2025-03-08T09:17:23Z</time>
      </trkpt>
      <trkpt lat="43.9723" lon="6.84649">
        <ele>882.15</ele>
        <time>2025-03-08T09:17:36Z</time>
      </trkpt>
      <trkpt lat="43.97232" lon="6.84644">
        <ele>884.55</ele>
        <time>2025-03-08T09:17:48Z</time>
      </trkpt>
      <trkpt lat="43.97238" lon="6.84637">
        <ele>886.47</ele>
        <time>2025-03-08T09:18:03Z</time>
      </trkpt>
      <trkpt lat="43.97241" lon="6.84631">
        <ele>887.91</ele>
        <time>2025-03-08T09:18:15Z</time>
      </trkpt>
      <trkpt lat="43.97247" lon="6.84628">
        <ele>889.84</ele>
        <time>2025-03-08T09:18:27Z</time>
      </trkpt>
      <trkpt lat="43.97254" lon="6.84624">
        <ele>892.72</ele>
        <time>2025-03-08T09:18:41Z</time>
      </trkpt>
      <trkpt lat="43.97262" lon="6.84621">
        <ele>894.64</ele>
        <time>2025-03-08T09:18:56Z</time>
      </trkpt>
      <trkpt lat="43.97266" lon="6.84617">
        <ele>896.57</ele>
        <time>2025-03-08T09:19:11Z</time>
      </trkpt>
      <trkpt lat="43.97268" lon="6.84611">
        <ele>898.01</ele>
        <time>2025-03-08T09:19:21Z</time>
      </trkpt>
      <trkpt lat="43.97273" lon="6.84614">
        <ele>898.97</ele>
        <time>2025-03-08T09:19:32Z</time>
      </trkpt>
      <trkpt lat="43.97279" lon="6.84617">
        <ele>899.93</ele>
        <time>2025-03-08T09:19:44Z</time>
      </trkpt>
      <trkpt lat="43.97286" lon="6.84618">
        <ele>901.85</ele>
        <time>2025-03-08T09:19:58Z</time>
      </trkpt>
      <trkpt lat="43.97293" lon="6.84619">
        <ele>904.74</ele>
        <time>2025-03-08T09:20:12Z</time>
      </trkpt>
      <trkpt lat="43.97297" lon="6.84609">
        <ele>907.14</ele>
        <time>2025-03-08T09:20:27Z</time>
      </trkpt>
      <trkpt lat="43.97301" lon="6.84603">
        <ele>909.06</ele>
        <time>2025-03-08T09:20:40Z</time>
      </trkpt>
      <trkpt lat="43.97304" lon="6.846">
        <ele>910.51</ele>
        <time>2025-03-08T09:20:53Z</time>
      </trkpt>
      <trkpt lat="43.97306" lon="6.84594">
        <ele>912.43</ele>
        <time>2025-03-08T09:21:06Z</time>
      </trkpt>
      <trkpt lat="43.97309" lon="6.84588">
        <ele>914.83</ele>
        <time>2025-03-08T09:21:21Z</time>
      </trkpt>
      <trkpt lat="43.97312" lon="6.84585">
        <ele>916.27</ele>
        <time>2025-03-08T09:21:38Z</time>
      </trkpt>
      <trkpt lat="43.97311" lon="6.84582">
        <ele>915.79</ele>
        <time>2025-03-08T09:21:55Z</time>
      </trkpt>
      <trkpt lat="43.97316" lon="6.84578">
        <ele>918.2</ele>
        <time>2025-03-08T09:22:07Z</time>
      </trkpt>
      <trkpt lat="43.9732" lon="6.84578">
        <ele>917.72</ele>
        <time>2025-03-08T09:22:29Z</time>
      </trkpt>
      <trkpt lat="43.97324" lon="6.84573">
        <ele>920.12</ele>
        <time>2025-03-08T09:22:43Z</time>
      </trkpt>
      <trkpt lat="43.97327" lon="6.84567">
        <ele>922.52</ele>
        <time>2025-03-08T09:22:57Z</time>
      </trkpt>
      <trkpt lat="43.9733" lon="6.84559">
        <ele>924.93</ele>
        <time>2025-03-08T09:23:11Z</time>
      </trkpt>
      <trkpt lat="43.97337" lon="6.84557">
        <ele>927.81</ele>
        <time>2025-03-08T09:23:25Z</time>
      </trkpt>
      <trkpt lat="43.97341" lon="6.84549">
        <ele>929.25</ele>
        <time>2025-03-08T09:23:38Z</time>
      </trkpt>
      <trkpt lat="43.97346" lon="6.8454">
        <ele>931.65</ele>
        <time>2025-03-08T09:23:53Z</time>
      </trkpt>
      <trkpt lat="43.97351" lon="6.84536">
        <ele>933.58</ele>
        <time>2025-03-08T09:24:07Z</time>
      </trkpt>
      <trkpt lat="43.97352" lon="6.84537">
        <ele>934.54</ele>
        <time>2025-03-08T09:24:20Z</time>
      </trkpt>
      <trkpt lat="43.97354" lon="6.84536">
        <ele>935.02</ele>
        <time>2025-03-08T09:24:38Z</time>
      </trkpt>
      <trkpt lat="43.97361" lon="6.84533">
        <ele>937.42</ele>
        <time>2025-03-08T09:24:52Z</time>
      </trkpt>
      <trkpt lat="43.97368" lon="6.84535">
        <ele>939.35</ele>
        <time>2025-03-08T09:25:06Z</time>
      </trkpt>
      <trkpt lat="43.97373" lon="6.84532">
        <ele>941.75</ele>
        <time>2025-03-08T09:25:19Z</time>
      </trkpt>
      <trkpt lat="43.97381" lon="6.84533">
        <ele>944.15</ele>
        <time>2025-03-08T09:25:36Z</time>
      </trkpt>
      <trkpt lat="43.97384" lon="6.84529">
        <ele>945.59</ele>
        <time>2025-03-08T09:25:44Z</time>
      </trkpt>
      <trkpt lat="43.97386" lon="6.84515">
        <ele>947.04</ele>
        <time>2025-03-08T09:25:58Z</time>
      </trkpt>
      <trkpt lat="43.9739" lon="6.84509">
        <ele>948.48</ele>
        <time>2025-03-08T09:26:11Z</time>
      </trkpt>
      <trkpt lat="43.97395" lon="6.84504">
        <ele>950.4</ele>
        <time>2025-03-08T09:26:23Z</time>
      </trkpt>
      <trkpt lat="43.97401" lon="6.84501">
        <ele>952.8</ele>
        <time>2025-03-08T09:26:36Z</time>
      </trkpt>
      <trkpt lat="43.97407" lon="6.84501">
        <ele>954.73</ele>
        <time>2025-03-08T09:26:50Z</time>
      </trkpt>
      <trkpt lat="43.97412" lon="6.84497">
        <ele>956.65</ele>
        <time>2025-03-08T09:27:03Z</time>
      </trkpt>
      <trkpt lat="43.97418" lon="6.8449">
        <ele>959.05</ele>
        <time>2025-03-08T09:27:18Z</time>
      </trkpt>
      <trkpt lat="43.97422" lon="6.84482">
        <ele>960.98</ele>
        <time>2025-03-08T09:27:32Z</time>
      </trkpt>
      <trkpt lat="43.97427" lon="6.84474">
        <ele>962.9</ele>
        <time>2025-03-08T09:27:45Z</time>
      </trkpt>
      <trkpt lat="43.97433" lon="6.84472">
        <ele>964.82</ele>
        <time>2025-03-08T09:27:58Z</time>
      </trkpt>
      <trkpt lat="43.97438" lon="6.8447">
        <ele>966.26</ele>
        <time>2025-03-08T09:28:13Z</time>
      </trkpt>
      <trkpt lat="43.97442" lon="6.84469">
        <ele>968.18</ele>
        <time>2025-03-08T09:28:24Z</time>
      </trkpt>
      <trkpt lat="43.97446" lon="6.84469">
        <ele>970.11</ele>
        <time>2025-03-08T09:28:37Z</time>
      </trkpt>
      <trkpt lat="43.9745" lon="6.84471">
        <ele>972.03</ele>
        <time>2025-03-08T09:28:49Z</time>
      </trkpt>
      <trkpt lat="43.97454" lon="6.8447">
        <ele>973.47</ele>
        <time>2025-03-08T09:29:02Z</time>
      </trkpt>
      <trkpt lat="43.97459" lon="6.84468">
        <ele>974.43</ele>
        <time>2025-03-08T09:29:15Z</time>
      </trkpt>
      <trkpt lat="43.97464" lon="6.84463">
        <ele>976.36</ele>
        <time>2025-03-08T09:29:28Z</time>
      </trkpt>
      <trkpt lat="43.97466" lon="6.84454">
        <ele>977.8</ele>
        <time>2025-03-08T09:29:42Z</time>
      </trkpt>
      <trkpt lat="43.97469" lon="6.84446">
        <ele>979.24</ele>
        <time>2025-03-08T09:29:56Z</time>
      </trkpt>
      <trkpt lat="43.97473" lon="6.84441">
        <ele>981.16</ele>
        <time>2025-03-08T09:30:09Z</time>
      </trkpt>
      <trkpt lat="43.97478" lon="6.84442">
        <ele>982.6</ele>
        <time>2025-03-08T09:30:19Z</time>
      </trkpt>
      <trkpt lat="43.97484" lon="6.84445">
        <ele>984.05</ele>
        <time>2025-03-08T09:30:32Z</time>
      </trkpt>
      <trkpt lat="43.97488" lon="6.8445">
        <ele>986.93</ele>
        <time>2025-03-08T09:30:47Z</time>
      </trkpt>
      <trkpt lat="43.97492" lon="6.84457">
        <ele>987.89</ele>
        <time>2025-03-08T09:31:00Z</time>
      </trkpt>
      <trkpt lat="43.97496" lon="6.84461">
        <ele>989.81</ele>
        <time>2025-03-08T09:31:13Z</time>
      </trkpt>
      <trkpt lat="43.97498" lon="6.84453">
        <ele>991.74</ele>
        <time>2025-03-08T09:31:26Z</time>
      </trkpt>
      <trkpt lat="43.97501" lon="6.84441">
        <ele>993.18</ele>
        <time>2025-03-08T09:31:41Z</time>
      </trkpt>
      <trkpt lat="43.97503" lon="6.84432">
        <ele>995.1</ele>
        <time>2025-03-08T09:31:56Z</time>
      </trkpt>
      <trkpt lat="43.97506" lon="6.84431">
        <ele>996.06</ele>
        <time>2025-03-08T09:32:08Z</time>
      </trkpt>
      <trkpt lat="43.97506" lon="6.8443">
        <ele>996.06</ele>
        <time>2025-03-08T09:32:22Z</time>
      </trkpt>
      <trkpt lat="43.97505" lon="6.84434">
        <ele>996.06</ele>
        <time>2025-03-08T09:33:00Z</time>
      </trkpt>
      <trkpt lat="43.97506" lon="6.84435">
        <ele>996.06</ele>
        <time>2025-03-08T09:33:35Z</time>
      </trkpt>
      <trkpt lat="43.97506" lon="6.84435">
        <ele>996.06</ele>
        <time>2025-03-08T09:34:08Z</time>
      </trkpt>
      <trkpt lat="43.97511" lon="6.84439">
        <ele>997.02</ele>
        <time>2025-03-08T09:34:20Z</time>
      </trkpt>
      <trkpt lat="43.97517" lon="6.8445">
        <ele>998.95</ele>
        <time>2025-03-08T09:34:35Z</time>
      </trkpt>
      <trkpt lat="43.97523" lon="6.84454">
        <ele>1001.83</ele>
        <time>2025-03-08T09:34:48Z</time>
      </trkpt>
      <trkpt lat="43.97527" lon="6.84456">
        <ele>1003.27</ele>
        <time>2025-03-08T09:35:03Z</time>
      </trkpt>
      <trkpt lat="43.97534" lon="6.84463">
        <ele>1005.2</ele>
        <time>2025-03-08T09:35:19Z</time>
      </trkpt>
      <trkpt lat="43.97539" lon="6.84465">
        <ele>1007.6</ele>
        <time>2025-03-08T09:35:32Z</time>
      </trkpt>
      <trkpt lat="43.97545" lon="6.8447">
        <ele>1009.52</ele>
        <time>2025-03-08T09:35:46Z</time>
      </trkpt>
      <trkpt lat="43.97552" lon="6.84475">
        <ele>1011.93</ele>
        <time>2025-03-08T09:36:00Z</time>
      </trkpt>
      <trkpt lat="43.97558" lon="6.84474">
        <ele>1013.37</ele>
        <time>2025-03-08T09:36:14Z</time>
      </trkpt>
      <trkpt lat="43.97561" lon="6.84468">
        <ele>1014.81</ele>
        <time>2025-03-08T09:36:27Z</time>
      </trkpt>
      <trkpt lat="43.97565" lon="6.84463">
        <ele>1017.21</ele>
        <time>2025-03-08T09:36:40Z</time>
      </trkpt>
      <trkpt lat="43.97564" lon="6.84456">
        <ele>1019.13</ele>
        <time>2025-03-08T09:36:53Z</time>
      </trkpt>
      <trkpt lat="43.97565" lon="6.84448">
        <ele>1020.1</ele>
        <time>2025-03-08T09:37:06Z</time>
      </trkpt>
      <trkpt lat="43.97569" lon="6.84448">
        <ele>1022.5</ele>
        <time>2025-03-08T09:37:20Z</time>
      </trkpt>
      <trkpt lat="43.97572" lon="6.84446">
        <ele>1024.42</ele>
        <time>2025-03-08T09:37:34Z</time>
      </trkpt>
      <trkpt lat="43.97577" lon="6.84445">
        <ele>1026.34</ele>
        <time>2025-03-08T09:37:47Z</time>
      </trkpt>
      <trkpt lat="43.97582" lon="6.84444">
        <ele>1028.27</ele>
        <time>2025-03-08T09:38:02Z</time>
      </trkpt>
      <trkpt lat="43.97582" lon="6.84437">
        <ele>1029.71</ele>
        <time>2025-03-08T09:38:14Z</time>
      </trkpt>
      <trkpt lat="43.97583" lon="6.84428">
        <ele>1031.15</ele>
        <time>2025-03-08T09:38:26Z</time>
      </trkpt>
      <trkpt lat="43.97583" lon="6.84419">
        <ele>1033.07</ele>
        <time>2025-03-08T09:38:38Z</time>
      </trkpt>
      <trkpt lat="43.97584" lon="6.84408">
        <ele>1035</ele>
        <time>2025-03-08T09:38:52Z</time>
      </trkpt>
      <trkpt lat="43.97586" lon="6.84396">
        <ele>1036.92</ele>
        <time>2025-03-08T09:39:07Z</time>
      </trkpt>
      <trkpt lat="43.9759" lon="6.84393">
        <ele>1038.84</ele>
        <time>2025-03-08T09:39:22Z</time>
      </trkpt>
      <trkpt lat="43.97594" lon="6.844">
        <ele>1040.28</ele>
        <time>2025-03-08T09:39:34Z</time>
      </trkpt>
      <trkpt lat="43.97599" lon="6.84404">
        <ele>1042.21</ele>
        <time>2025-03-08T09:39:48Z</time>
      </trkpt>
      <trkpt lat="43.97605" lon="6.84411">
        <ele>1044.13</ele>
        <time>2025-03-08T09:40:02Z</time>
      </trkpt>
      <trkpt lat="43.9761" lon="6.8442">
        <ele>1046.05</ele>
        <time>2025-03-08T09:40:16Z</time>
      </trkpt>
      <trkpt lat="43.97615" lon="6.84428">
        <ele>1047.01</ele>
        <time>2025-03-08T09:40:28Z</time>
      </trkpt>
      <trkpt lat="43.97618" lon="6.84432">
        <ele>1048.45</ele>
        <time>2025-03-08T09:40:42Z</time>
      </trkpt>
      <trkpt lat="43.97624" lon="6.84437">
        <ele>1049.9</ele>
        <time>2025-03-08T09:40:55Z</time>
      </trkpt>
      <trkpt lat="43.9763" lon="6.84442">
        <ele>1052.3</ele>
        <time>2025-03-08T09:41:07Z</time>
      </trkpt>
      <trkpt lat="43.97637" lon="6.84445">
        <ele>1052.78</ele>
        <time>2025-03-08T09:41:21Z</time>
      </trkpt>
      <trkpt lat="43.97642" lon="6.84451">
        <ele>1051.82</ele>
        <time>2025-03-08T09:41:32Z</time>
      </trkpt>
      <trkpt lat="43.9765" lon="6.84458">
        <ele>1051.34</ele>
        <time>2025-03-08T09:41:45Z</time>
      </trkpt>
      <trkpt lat="43.97655" lon="6.84464">
        <ele>1053.26</ele>
        <time>2025-03-08T09:41:58Z</time>
      </trkpt>
      <trkpt lat="43.97659" lon="6.84472">
        <ele>1054.22</ele>
        <time>2025-03-08T09:42:07Z</time>
      </trkpt>
      <trkpt lat="43.97661" lon="6.84474">
        <ele>1054.22</ele>
        <time>2025-03-08T09:42:09Z</time>
      </trkpt>
      <trkpt lat="43.97668" lon="6.84476">
        <ele>1054.22</ele>
        <time>2025-03-08T09:42:17Z</time>
      </trkpt>
      <trkpt lat="43.97669" lon="6.84489">
        <ele>1055.67</ele>
        <time>2025-03-08T09:42:30Z</time>
      </trkpt>
      <trkpt lat="43.97663" lon="6.84497">
        <ele>1053.74</ele>
        <time>2025-03-08T09:42:42Z</time>
      </trkpt>
      <trkpt lat="43.9766" lon="6.84509">
        <ele>1052.3</ele>
        <time>2025-03-08T09:42:51Z</time>
      </trkpt>
      <trkpt lat="43.97667" lon="6.84531">
        <ele>1053.26</ele>
        <time>2025-03-08T09:43:07Z</time>
      </trkpt>
      <trkpt lat="43.97669" lon="6.84544">
        <ele>1051.34</ele>
        <time>2025-03-08T09:43:16Z</time>
      </trkpt>
      <trkpt lat="43.97674" lon="6.84565">
        <ele>1049.42</ele>
        <time>2025-03-08T09:43:33Z</time>
      </trkpt>
      <trkpt lat="43.97679" lon="6.84575">
        <ele>1049.42</ele>
        <time>2025-03-08T09:43:44Z</time>
      </trkpt>
      <trkpt lat="43.97682" lon="6.84579">
        <ele>1050.86</ele>
        <time>2025-03-08T09:43:49Z</time>
      </trkpt>
      <trkpt lat="43.97691" lon="6.84593">
        <ele>1051.34</ele>
        <time>2025-03-08T09:44:04Z</time>
      </trkpt>
      <trkpt lat="43.97694" lon="6.846">
        <ele>1049.9</ele>
        <time>2025-03-08T09:44:10Z</time>
      </trkpt>
      <trkpt lat="43.97697" lon="6.84608">
        <ele>1049.9</ele>
        <time>2025-03-08T09:44:16Z</time>
      </trkpt>
      <trkpt lat="43.97702" lon="6.84616">
        <ele>1049.9</ele>
        <time>2025-03-08T09:44:30Z</time>
      </trkpt>
      <trkpt lat="43.97706" lon="6.8462">
        <ele>1049.9</ele>
        <time>2025-03-08T09:44:46Z</time>
      </trkpt>
      <trkpt lat="43.97717" lon="6.84629">
        <ele>1050.86</ele>
        <time>2025-03-08T09:44:59Z</time>
      </trkpt>
      <trkpt lat="43.9772" lon="6.84633">
        <ele>1050.86</ele>
        <time>2025-03-08T09:45:04Z</time>
      </trkpt>
      <trkpt lat="43.97724" lon="6.84636">
        <ele>1049.42</ele>
        <time>2025-03-08T09:45:08Z</time>
      </trkpt>
      <trkpt lat="43.97727" lon="6.8464">
        <ele>1048.94</ele>
        <time>2025-03-08T09:45:13Z</time>
      </trkpt>
      <trkpt lat="43.97728" lon="6.84647">
        <ele>1047.49</ele>
        <time>2025-03-08T09:45:18Z</time>
      </trkpt>
      <trkpt lat="43.97725" lon="6.84655">
        <ele>1047.01</ele>
        <time>2025-03-08T09:45:26Z</time>
      </trkpt>
      <trkpt lat="43.97723" lon="6.8466">
        <ele>1045.57</ele>
        <time>2025-03-08T09:45:30Z</time>
      </trkpt>
      <trkpt lat="43.97733" lon="6.84685">
        <ele>1042.69</ele>
        <time>2025-03-08T09:45:48Z</time>
      </trkpt>
      <trkpt lat="43.97741" lon="6.84691">
        <ele>1042.69</ele>
        <time>2025-03-08T09:45:58Z</time>
      </trkpt>
      <trkpt lat="43.97741" lon="6.8471">
        <ele>1040.28</ele>
        <time>2025-03-08T09:46:13Z</time>
      </trkpt>
      <trkpt lat="43.97746" lon="6.84718">
        <ele>1038.84</ele>
        <time>2025-03-08T09:46:21Z</time>
      </trkpt>
      <trkpt lat="43.9775" lon="6.8473">
        <ele>1037.4</ele>
        <time>2025-03-08T09:46:30Z</time>
      </trkpt>
      <trkpt lat="43.97759" lon="6.84737">
        <ele>1036.44</ele>
        <time>2025-03-08T09:46:39Z</time>
      </trkpt>
      <trkpt lat="43.97763" lon="6.84746">
        <ele>1035</ele>
        <time>2025-03-08T09:46:50Z</time>
      </trkpt>
      <trkpt lat="43.97762" lon="6.84753">
        <ele>1034.04</ele>
        <time>2025-03-08T09:46:54Z</time>
      </trkpt>
      <trkpt lat="43.9776" lon="6.84768">
        <ele>1030.67</ele>
        <time>2025-03-08T09:47:06Z</time>
      </trkpt>
      <trkpt lat="43.9776" lon="6.84776">
        <ele>1029.23</ele>
        <time>2025-03-08T09:47:11Z</time>
      </trkpt>
      <trkpt lat="43.97761" lon="6.84781">
        <ele>1027.79</ele>
        <time>2025-03-08T09:47:15Z</time>
      </trkpt>
      <trkpt lat="43.97764" lon="6.84798">
        <ele>1025.38</ele>
        <time>2025-03-08T09:47:26Z</time>
      </trkpt>
      <trkpt lat="43.97766" lon="6.84802">
        <ele>1024.9</ele>
        <time>2025-03-08T09:47:29Z</time>
      </trkpt>
      <trkpt lat="43.97768" lon="6.84805">
        <ele>1024.42</ele>
        <time>2025-03-08T09:47:31Z</time>
      </trkpt>
      <trkpt lat="43.97781" lon="6.84828">
        <ele>1023.46</ele>
        <time>2025-03-08T09:47:48Z</time>
      </trkpt>
      <trkpt lat="43.97786" lon="6.84831">
        <ele>1022.5</ele>
        <time>2025-03-08T09:47:53Z</time>
      </trkpt>
      <trkpt lat="43.97799" lon="6.84844">
        <ele>1020.58</ele>
        <time>2025-03-08T09:48:10Z</time>
      </trkpt>
      <trkpt lat="43.97803" lon="6.84854">
        <ele>1018.17</ele>
        <time>2025-03-08T09:48:22Z</time>
      </trkpt>
      <trkpt lat="43.97804" lon="6.84868">
        <ele>1016.25</ele>
        <time>2025-03-08T09:48:37Z</time>
      </trkpt>
      <trkpt lat="43.97805" lon="6.84872">
        <ele>1015.29</ele>
        <time>2025-03-08T09:48:49Z</time>
      </trkpt>
      <trkpt lat="43.97806" lon="6.84873">
        <ele>1015.29</ele>
        <time>2025-03-08T09:48:50Z</time>
      </trkpt>
      <trkpt lat="43.97806" lon="6.84885">
        <ele>1011.93</ele>
        <time>2025-03-08T09:48:58Z</time>
      </trkpt>
      <trkpt lat="43.97807" lon="6.84896">
        <ele>1009.04</ele>
        <time>2025-03-08T09:49:09Z</time>
      </trkpt>
      <trkpt lat="43.97811" lon="6.84906">
        <ele>1006.64</ele>
        <time>2025-03-08T09:49:17Z</time>
      </trkpt>
      <trkpt lat="43.97812" lon="6.84909">
        <ele>1006.64</ele>
        <time>2025-03-08T09:49:19Z</time>
      </trkpt>
      <trkpt lat="43.97814" lon="6.84917">
        <ele>1005.2</ele>
        <time>2025-03-08T09:49:24Z</time>
      </trkpt>
      <trkpt lat="43.97817" lon="6.84922">
        <ele>1005.2</ele>
        <time>2025-03-08T09:49:28Z</time>
      </trkpt>
      <trkpt lat="43.97825" lon="6.84936">
        <ele>1003.75</ele>
        <time>2025-03-08T09:49:40Z</time>
      </trkpt>
      <trkpt lat="43.97833" lon="6.84944">
        <ele>1003.27</ele>
        <time>2025-03-08T09:49:59Z</time>
      </trkpt>
      <trkpt lat="43.97846" lon="6.84954">
        <ele>1002.79</ele>
        <time>2025-03-08T09:50:13Z</time>
      </trkpt>
      <trkpt lat="43.97853" lon="6.84956">
        <ele>1002.79</ele>
        <time>2025-03-08T09:50:20Z</time>
      </trkpt>
      <trkpt lat="43.97862" lon="6.84958">
        <ele>1001.83</ele>
        <time>2025-03-08T09:50:29Z</time>
      </trkpt>
      <trkpt lat="43.97879" lon="6.8496">
        <ele>1000.87</ele>
        <time>2025-03-08T09:50:45Z</time>
      </trkpt>
      <trkpt lat="43.97896" lon="6.84963">
        <ele>997.99</ele>
        <time>2025-03-08T09:51:00Z</time>
      </trkpt>
      <trkpt lat="43.979" lon="6.84963">
        <ele>997.51</ele>
        <time>2025-03-08T09:51:04Z</time>
      </trkpt>
      <trkpt lat="43.97917" lon="6.84961">
        <ele>995.1</ele>
        <time>2025-03-08T09:51:21Z</time>
      </trkpt>
      <trkpt lat="43.97923" lon="6.84958">
        <ele>994.14</ele>
        <time>2025-03-08T09:51:25Z</time>
      </trkpt>
      <trkpt lat="43.97937" lon="6.84954">
        <ele>991.74</ele>
        <time>2025-03-08T09:51:38Z</time>
      </trkpt>
      <trkpt lat="43.9795" lon="6.84949">
        <ele>989.81</ele>
        <time>2025-03-08T09:51:49Z</time>
      </trkpt>
      <trkpt lat="43.97964" lon="6.84946">
        <ele>986.45</ele>
        <time>2025-03-08T09:52:01Z</time>
      </trkpt>
      <trkpt lat="43.9797" lon="6.84946">
        <ele>984.53</ele>
        <time>2025-03-08T09:52:08Z</time>
      </trkpt>
      <trkpt lat="43.9798" lon="6.84945">
        <ele>981.16</ele>
        <time>2025-03-08T09:52:17Z</time>
      </trkpt>
      <trkpt lat="43.97991" lon="6.84944">
        <ele>977.8</ele>
        <time>2025-03-08T09:52:29Z</time>
      </trkpt>
      <trkpt lat="43.98005" lon="6.84941">
        <ele>973.95</ele>
        <time>2025-03-08T09:52:41Z</time>
      </trkpt>
      <trkpt lat="43.98008" lon="6.84939">
        <ele>972.99</ele>
        <time>2025-03-08T09:52:45Z</time>
      </trkpt>
      <trkpt lat="43.98015" lon="6.84938">
        <ele>971.55</ele>
        <time>2025-03-08T09:52:58Z</time>
      </trkpt>
      <trkpt lat="43.98025" lon="6.84935">
        <ele>968.18</ele>
        <time>2025-03-08T09:53:09Z</time>
      </trkpt>
      <trkpt lat="43.98037" lon="6.8493">
        <ele>965.3</ele>
        <time>2025-03-08T09:53:19Z</time>
      </trkpt>
      <trkpt lat="43.98048" lon="6.84919">
        <ele>962.42</ele>
        <time>2025-03-08T09:53:31Z</time>
      </trkpt>
      <trkpt lat="43.98057" lon="6.84922">
        <ele>958.57</ele>
        <time>2025-03-08T09:53:43Z</time>
      </trkpt>
      <trkpt lat="43.98067" lon="6.8492">
        <ele>954.73</ele>
        <time>2025-03-08T09:53:55Z</time>
      </trkpt>
      <trkpt lat="43.98072" lon="6.84929">
        <ele>951.36</ele>
        <time>2025-03-08T09:54:06Z</time>
      </trkpt>
      <trkpt lat="43.98083" lon="6.84926">
        <ele>947.52</ele>
        <time>2025-03-08T09:54:16Z</time>
      </trkpt>
      <trkpt lat="43.9809" lon="6.84922">
        <ele>944.63</ele>
        <time>2025-03-08T09:54:26Z</time>
      </trkpt>
      <trkpt lat="43.98097" lon="6.84923">
        <ele>941.75</ele>
        <time>2025-03-08T09:54:39Z</time>
      </trkpt>
      <trkpt lat="43.98101" lon="6.84927">
        <ele>940.31</ele>
        <time>2025-03-08T09:54:59Z</time>
      </trkpt>
      <trkpt lat="43.981" lon="6.84935">
        <ele>937.42</ele>
        <time>2025-03-08T09:55:09Z</time>
      </trkpt>
      <trkpt lat="43.981" lon="6.84936">
        <ele>937.42</ele>
        <time>2025-03-08T09:55:10Z</time>
      </trkpt>
      <trkpt lat="43.98103" lon="6.84936">
        <ele>936.94</ele>
        <time>2025-03-08T09:55:38Z</time>
      </trkpt>
      <trkpt lat="43.98103" lon="6.84942">
        <ele>935.98</ele>
        <time>2025-03-08T09:55:58Z</time>
      </trkpt>
      <trkpt lat="43.98104" lon="6.84942">
        <ele>935.02</ele>
        <time>2025-03-08T09:56:01Z</time>
      </trkpt>
      <trkpt lat="43.98113" lon="6.84943">
        <ele>931.65</ele>
        <time>2025-03-08T09:56:11Z</time>
      </trkpt>
      <trkpt lat="43.98121" lon="6.84942">
        <ele>929.25</ele>
        <time>2025-03-08T09:56:22Z</time>
      </trkpt>
      <trkpt lat="43.98122" lon="6.84943">
        <ele>928.29</ele>
        <time>2025-03-08T09:56:24Z</time>
      </trkpt>
      <trkpt lat="43.98127" lon="6.8494">
        <ele>926.37</ele>
        <time>2025-03-08T09:56:29Z</time>
      </trkpt>
      <trkpt lat="43.98136" lon="6.84945">
        <ele>923</ele>
        <time>2025-03-08T09:56:38Z</time>
      </trkpt>
      <trkpt lat="43.98143" lon="6.84945">
        <ele>921.08</ele>
        <time>2025-03-08T09:56:45Z</time>
      </trkpt>
      <trkpt lat="43.98146" lon="6.84945">
        <ele>920.12</ele>
        <time>2025-03-08T09:56:50Z</time>
      </trkpt>
      <trkpt lat="43.98147" lon="6.84956">
        <ele>916.75</ele>
        <time>2025-03-08T09:57:01Z</time>
      </trkpt>
      <trkpt lat="43.98145" lon="6.84961">
        <ele>915.31</ele>
        <time>2025-03-08T09:57:04Z</time>
      </trkpt>
      <trkpt lat="43.98145" lon="6.84971">
        <ele>912.91</ele>
        <time>2025-03-08T09:57:11Z</time>
      </trkpt>
      <trkpt lat="43.98147" lon="6.84977">
        <ele>910.51</ele>
        <time>2025-03-08T09:57:20Z</time>
      </trkpt>
      <trkpt lat="43.98149" lon="6.84977">
        <ele>909.54</ele>
        <time>2025-03-08T09:57:23Z</time>
      </trkpt>
      <trkpt lat="43.9816" lon="6.84979">
        <ele>907.14</ele>
        <time>2025-03-08T09:57:33Z</time>
      </trkpt>
      <trkpt lat="43.98173" lon="6.84986">
        <ele>903.3</ele>
        <time>2025-03-08T09:57:45Z</time>
      </trkpt>
      <trkpt lat="43.98176" lon="6.84987">
        <ele>902.82</ele>
        <time>2025-03-08T09:57:48Z</time>
      </trkpt>
      <trkpt lat="43.98177" lon="6.84989">
        <ele>902.33</ele>
        <time>2025-03-08T09:57:50Z</time>
      </trkpt>
      <trkpt lat="43.98178" lon="6.84991">
        <ele>901.85</ele>
        <time>2025-03-08T09:57:52Z</time>
      </trkpt>
      <trkpt lat="43.9818" lon="6.85002">
        <ele>898.49</ele>
        <time>2025-03-08T09:58:03Z</time>
      </trkpt>
      <trkpt lat="43.9819" lon="6.85008">
        <ele>895.12</ele>
        <time>2025-03-08T09:58:14Z</time>
      </trkpt>
      <trkpt lat="43.98192" lon="6.85012">
        <ele>893.68</ele>
        <time>2025-03-08T09:58:18Z</time>
      </trkpt>
      <trkpt lat="43.98196" lon="6.85023">
        <ele>890.8</ele>
        <time>2025-03-08T09:58:30Z</time>
      </trkpt>
      <trkpt lat="43.98201" lon="6.85029">
        <ele>888.88</ele>
        <time>2025-03-08T09:58:37Z</time>
      </trkpt>
      <trkpt lat="43.98205" lon="6.85033">
        <ele>887.43</ele>
        <time>2025-03-08T09:58:41Z</time>
      </trkpt>
      <trkpt lat="43.98208" lon="6.85046">
        <ele>884.55</ele>
        <time>2025-03-08T09:58:51Z</time>
      </trkpt>
      <trkpt lat="43.98206" lon="6.85053">
        <ele>882.63</ele>
        <time>2025-03-08T09:58:57Z</time>
      </trkpt>
      <trkpt lat="43.98208" lon="6.85063">
        <ele>880.71</ele>
        <time>2025-03-08T09:59:04Z</time>
      </trkpt>
      <trkpt lat="43.98211" lon="6.85074">
        <ele>877.34</ele>
        <time>2025-03-08T09:59:13Z</time>
      </trkpt>
      <trkpt lat="43.98211" lon="6.85083">
        <ele>875.9</ele>
        <time>2025-03-08T09:59:19Z</time>
      </trkpt>
      <trkpt lat="43.98211" lon="6.85098">
        <ele>871.09</ele>
        <time>2025-03-08T09:59:29Z</time>
      </trkpt>
      <trkpt lat="43.98213" lon="6.85103">
        <ele>869.65</ele>
        <time>2025-03-08T09:59:33Z</time>
      </trkpt>
      <trkpt lat="43.98219" lon="6.85114">
        <ele>867.73</ele>
        <time>2025-03-08T09:59:41Z</time>
      </trkpt>
      <trkpt lat="43.98222" lon="6.85127">
        <ele>863.88</ele>
        <time>2025-03-08T09:59:51Z</time>
      </trkpt>
      <trkpt lat="43.98229" lon="6.85139">
        <ele>861</ele>
        <time>2025-03-08T10:00:02Z</time>
      </trkpt>
      <trkpt lat="43.98233" lon="6.8515">
        <ele>858.11</ele>
        <time>2025-03-08T10:00:10Z</time>
      </trkpt>
      <trkpt lat="43.98239" lon="6.85163">
        <ele>855.71</ele>
        <time>2025-03-08T10:00:20Z</time>
      </trkpt>
      <trkpt lat="43.98239" lon="6.85174">
        <ele>853.79</ele>
        <time>2025-03-08T10:00:27Z</time>
      </trkpt>
      <trkpt lat="43.98243" lon="6.8519">
        <ele>850.9</ele>
        <time>2025-03-08T10:00:36Z</time>
      </trkpt>
      <trkpt lat="43.98244" lon="6.85204">
        <ele>847.54</ele>
        <time>2025-03-08T10:00:46Z</time>
      </trkpt>
      <trkpt lat="43.98245" lon="6.8521">
        <ele>845.62</ele>
        <time>2025-03-08T10:00:51Z</time>
      </trkpt>
      <trkpt lat="43.98248" lon="6.85226">
        <ele>842.25</ele>
        <time>2025-03-08T10:01:01Z</time>
      </trkpt>
      <trkpt lat="43.98251" lon="6.85244">
        <ele>838.41</ele>
        <time>2025-03-08T10:01:12Z</time>
      </trkpt>
      <trkpt lat="43.98255" lon="6.85264">
        <ele>835.52</ele>
        <time>2025-03-08T10:01:26Z</time>
      </trkpt>
      <trkpt lat="43.98254" lon="6.85271">
        <ele>833.12</ele>
        <time>2025-03-08T10:01:38Z</time>
      </trkpt>
      <trkpt lat="43.98252" lon="6.85272">
        <ele>832.64</ele>
        <time>2025-03-08T10:01:40Z</time>
      </trkpt>
      <trkpt lat="43.9825" lon="6.85276">
        <ele>831.68</ele>
        <time>2025-03-08T10:01:44Z</time>
      </trkpt>
      <trkpt lat="43.98247" lon="6.85278">
        <ele>829.76</ele>
        <time>2025-03-08T10:02:01Z</time>
      </trkpt>
      <trkpt lat="43.98243" lon="6.85281">
        <ele>829.76</ele>
        <time>2025-03-08T10:02:31Z</time>
      </trkpt>
      <trkpt lat="43.98238" lon="6.85292">
        <ele>825.91</ele>
        <time>2025-03-08T10:02:44Z</time>
      </trkpt>
      <trkpt lat="43.9824" lon="6.85296">
        <ele>823.51</ele>
        <time>2025-03-08T10:02:57Z</time>
      </trkpt>
      <trkpt lat="43.98243" lon="6.85294">
        <ele>823.03</ele>
        <time>2025-03-08T10:03:01Z</time>
      </trkpt>
      <trkpt lat="43.98259" lon="6.85293">
        <ele>819.66</ele>
        <time>2025-03-08T10:03:16Z</time>
      </trkpt>
      <trkpt lat="43.98273" lon="6.85286">
        <ele>816.78</ele>
        <time>2025-03-08T10:03:30Z</time>
      </trkpt>
      <trkpt lat="43.98285" lon="6.85281">
        <ele>813.41</ele>
        <time>2025-03-08T10:03:39Z</time>
      </trkpt>
      <trkpt lat="43.98289" lon="6.85278">
        <ele>812.45</ele>
        <time>2025-03-08T10:03:43Z</time>
      </trkpt>
      <trkpt lat="43.98297" lon="6.85269">
        <ele>808.61</ele>
        <time>2025-03-08T10:03:54Z</time>
      </trkpt>
      <trkpt lat="43.98304" lon="6.85259">
        <ele>805.24</ele>
        <time>2025-03-08T10:04:05Z</time>
      </trkpt>
      <trkpt lat="43.98311" lon="6.85254">
        <ele>803.32</ele>
        <time>2025-03-08T10:04:19Z</time>
      </trkpt>
      <trkpt lat="43.98314" lon="6.85251">
        <ele>803.32</ele>
        <time>2025-03-08T10:04:43Z</time>
      </trkpt>
      <trkpt lat="43.98315" lon="6.85244">
        <ele>804.28</ele>
        <time>2025-03-08T10:04:55Z</time>
      </trkpt>
      <trkpt lat="43.98318" lon="6.85236">
        <ele>805.72</ele>
        <time>2025-03-08T10:05:07Z</time>
      </trkpt>
      <trkpt lat="43.98317" lon="6.85238">
        <ele>805.24</ele>
        <time>2025-03-08T10:05:17Z</time>
      </trkpt>
      <trkpt lat="43.98321" lon="6.85234">
        <ele>806.2</ele>
        <time>2025-03-08T10:05:33Z</time>
      </trkpt>
      <trkpt lat="43.98323" lon="6.85247">
        <ele>809.09</ele>
        <time>2025-03-08T10:05:47Z</time>
      </trkpt>
      <trkpt lat="43.98323" lon="6.85252">
        <ele>810.05</ele>
        <time>2025-03-08T10:05:54Z</time>
      </trkpt>
      <trkpt lat="43.98324" lon="6.85263">
        <ele>811.01</ele>
        <time>2025-03-08T10:06:09Z</time>
      </trkpt>
      <trkpt lat="43.98324" lon="6.85266">
        <ele>811.49</ele>
        <time>2025-03-08T10:06:25Z</time>
      </trkpt>
      <trkpt lat="43.98325" lon="6.85277">
        <ele>812.93</ele>
        <time>2025-03-08T10:06:39Z</time>
      </trkpt>
      <trkpt lat="43.98323" lon="6.85284">
        <ele>813.89</ele>
        <time>2025-03-08T10:06:52Z</time>
      </trkpt>
      <trkpt lat="43.98322" lon="6.85293">
        <ele>814.37</ele>
        <time>2025-03-08T10:07:08Z</time>
      </trkpt>
      <trkpt lat="43.98323" lon="6.85308">
        <ele>816.3</ele>
        <time>2025-03-08T10:07:22Z</time>
      </trkpt>
      <trkpt lat="43.98323" lon="6.85309">
        <ele>816.3</ele>
        <time>2025-03-08T10:07:23Z</time>
      </trkpt>
      <trkpt lat="43.9832" lon="6.85326">
        <ele>819.18</ele>
        <time>2025-03-08T10:07:39Z</time>
      </trkpt>
      <trkpt lat="43.98316" lon="6.85342">
        <ele>821.1</ele>
        <time>2025-03-08T10:07:55Z</time>
      </trkpt>
      <trkpt lat="43.9831" lon="6.85355">
        <ele>823.03</ele>
        <time>2025-03-08T10:08:09Z</time>
      </trkpt>
      <trkpt lat="43.98306" lon="6.85372">
        <ele>825.43</ele>
        <time>2025-03-08T10:08:25Z</time>
      </trkpt>
      <trkpt lat="43.98304" lon="6.85377">
        <ele>826.39</ele>
        <time>2025-03-08T10:08:30Z</time>
      </trkpt>
      <trkpt lat="43.98299" lon="6.85381">
        <ele>826.87</ele>
        <time>2025-03-08T10:08:36Z</time>
      </trkpt>
      <trkpt lat="43.98288" lon="6.85387">
        <ele>827.35</ele>
        <time>2025-03-08T10:08:48Z</time>
      </trkpt>
      <trkpt lat="43.98275" lon="6.854">
        <ele>828.79</ele>
        <time>2025-03-08T10:09:06Z</time>
      </trkpt>
      <trkpt lat="43.98281" lon="6.85404">
        <ele>830.72</ele>
        <time>2025-03-08T10:09:20Z</time>
      </trkpt>
      <trkpt lat="43.98282" lon="6.85407">
        <ele>833.12</ele>
        <time>2025-03-08T10:09:32Z</time>
      </trkpt>
      <trkpt lat="43.98282" lon="6.85408">
        <ele>831.68</ele>
        <time>2025-03-08T10:09:39Z</time>
      </trkpt>
      <trkpt lat="43.98284" lon="6.85408">
        <ele>832.64</ele>
        <time>2025-03-08T10:09:57Z</time>
      </trkpt>
      <trkpt lat="43.98293" lon="6.85413">
        <ele>835.04</ele>
        <time>2025-03-08T10:10:12Z</time>
      </trkpt>
      <trkpt lat="43.98303" lon="6.85411">
        <ele>837.45</ele>
        <time>2025-03-08T10:10:26Z</time>
      </trkpt>
      <trkpt lat="43.98307" lon="6.85418">
        <ele>840.33</ele>
        <time>2025-03-08T10:10:40Z</time>
      </trkpt>
      <trkpt lat="43.98312" lon="6.85421">
        <ele>841.29</ele>
        <time>2025-03-08T10:10:53Z</time>
      </trkpt>
      <trkpt lat="43.98315" lon="6.85421">
        <ele>842.25</ele>
        <time>2025-03-08T10:11:07Z</time>
      </trkpt>
      <trkpt lat="43.98317" lon="6.85422">
        <ele>843.69</ele>
        <time>2025-03-08T10:11:13Z</time>
      </trkpt>
      <trkpt lat="43.98325" lon="6.8542">
        <ele>844.66</ele>
        <time>2025-03-08T10:11:26Z</time>
      </trkpt>
      <trkpt lat="43.98332" lon="6.85423">
        <ele>847.54</ele>
        <time>2025-03-08T10:11:39Z</time>
      </trkpt>
      <trkpt lat="43.9834" lon="6.85427">
        <ele>849.46</ele>
        <time>2025-03-08T10:11:53Z</time>
      </trkpt>
      <trkpt lat="43.98347" lon="6.85428">
        <ele>850.42</ele>
        <time>2025-03-08T10:12:04Z</time>
      </trkpt>
      <trkpt lat="43.98355" lon="6.85427">
        <ele>851.87</ele>
        <time>2025-03-08T10:12:17Z</time>
      </trkpt>
      <trkpt lat="43.98361" lon="6.85429">
        <ele>853.79</ele>
        <time>2025-03-08T10:12:29Z</time>
      </trkpt>
      <trkpt lat="43.98366" lon="6.8543">
        <ele>856.19</ele>
        <time>2025-03-08T10:12:41Z</time>
      </trkpt>
      <trkpt lat="43.98371" lon="6.85425">
        <ele>857.63</ele>
        <time>2025-03-08T10:12:56Z</time>
      </trkpt>
      <trkpt lat="43.98377" lon="6.85428">
        <ele>860.04</ele>
        <time>2025-03-08T10:13:10Z</time>
      </trkpt>
      <trkpt lat="43.98382" lon="6.85431">
        <ele>861.48</ele>
        <time>2025-03-08T10:13:23Z</time>
      </trkpt>
      <trkpt lat="43.98385" lon="6.85434">
        <ele>862.92</ele>
        <time>2025-03-08T10:13:36Z</time>
      </trkpt>
      <trkpt lat="43.98391" lon="6.85436">
        <ele>864.36</ele>
        <time>2025-03-08T10:13:49Z</time>
      </trkpt>
      <trkpt lat="43.98395" lon="6.85438">
        <ele>866.29</ele>
        <time>2025-03-08T10:14:00Z</time>
      </trkpt>
      <trkpt lat="43.98401" lon="6.85439">
        <ele>867.73</ele>
        <time>2025-03-08T10:14:12Z</time>
      </trkpt>
      <trkpt lat="43.98404" lon="6.85438">
        <ele>869.17</ele>
        <time>2025-03-08T10:14:24Z</time>
      </trkpt>
      <trkpt lat="43.9841" lon="6.85435">
        <ele>871.09</ele>
        <time>2025-03-08T10:14:38Z</time>
      </trkpt>
      <trkpt lat="43.98414" lon="6.85436">
        <ele>873.01</ele>
        <time>2025-03-08T10:14:50Z</time>
      </trkpt>
      <trkpt lat="43.98418" lon="6.85435">
        <ele>874.46</ele>
        <time>2025-03-08T10:15:02Z</time>
      </trkpt>
      <trkpt lat="43.98424" lon="6.85437">
        <ele>876.86</ele>
        <time>2025-03-08T10:15:16Z</time>
      </trkpt>
      <trkpt lat="43.98428" lon="6.85438">
        <ele>878.3</ele>
        <time>2025-03-08T10:15:29Z</time>
      </trkpt>
      <trkpt lat="43.98431" lon="6.8544">
        <ele>879.74</ele>
        <time>2025-03-08T10:15:42Z</time>
      </trkpt>
      <trkpt lat="43.98436" lon="6.85445">
        <ele>881.67</ele>
        <time>2025-03-08T10:15:55Z</time>
      </trkpt>
      <trkpt lat="43.98437" lon="6.85447">
        <ele>882.63</ele>
        <time>2025-03-08T10:16:07Z</time>
      </trkpt>
      <trkpt lat="43.98436" lon="6.85447">
        <ele>882.15</ele>
        <time>2025-03-08T10:16:25Z</time>
      </trkpt>
      <trkpt lat="43.98442" lon="6.8545">
        <ele>883.59</ele>
        <time>2025-03-08T10:16:38Z</time>
      </trkpt>
      <trkpt lat="43.98448" lon="6.85449">
        <ele>885.51</ele>
        <time>2025-03-08T10:16:50Z</time>
      </trkpt>
      <trkpt lat="43.98454" lon="6.85452">
        <ele>887.91</ele>
        <time>2025-03-08T10:17:04Z</time>
      </trkpt>
      <trkpt lat="43.98456" lon="6.85461">
        <ele>890.32</ele>
        <time>2025-03-08T10:17:17Z</time>
      </trkpt>
      <trkpt lat="43.98458" lon="6.85471">
        <ele>890.32</ele>
        <time>2025-03-08T10:17:29Z</time>
      </trkpt>
      <trkpt lat="43.98461" lon="6.85473">
        <ele>892.72</ele>
        <time>2025-03-08T10:17:39Z</time>
      </trkpt>
      <trkpt lat="43.98464" lon="6.85477">
        <ele>895.12</ele>
        <time>2025-03-08T10:17:53Z</time>
      </trkpt>
      <trkpt lat="43.98464" lon="6.85481">
        <ele>895.61</ele>
        <time>2025-03-08T10:18:10Z</time>
      </trkpt>
      <trkpt lat="43.98464" lon="6.85486">
        <ele>896.09</ele>
        <time>2025-03-08T10:18:21Z</time>
      </trkpt>
      <trkpt lat="43.98462" lon="6.85497">
        <ele>894.16</ele>
        <time>2025-03-08T10:18:36Z</time>
      </trkpt>
      <trkpt lat="43.98457" lon="6.85499">
        <ele>891.76</ele>
        <time>2025-03-08T10:18:50Z</time>
      </trkpt>
      <trkpt lat="43.98454" lon="6.85498">
        <ele>890.8</ele>
        <time>2025-03-08T10:18:58Z</time>
      </trkpt>
      <trkpt lat="43.98447" lon="6.85491">
        <ele>887.43</ele>
        <time>2025-03-08T10:19:09Z</time>
      </trkpt>
      <trkpt lat="43.98444" lon="6.85483">
        <ele>885.03</ele>
        <time>2025-03-08T10:19:19Z</time>
      </trkpt>
      <trkpt lat="43.98437" lon="6.85475">
        <ele>883.11</ele>
        <time>2025-03-08T10:19:29Z</time>
      </trkpt>
      <trkpt lat="43.98438" lon="6.85467">
        <ele>883.11</ele>
        <time>2025-03-08T10:19:46Z</time>
      </trkpt>
      <trkpt lat="43.9844" lon="6.85474">
        <ele>882.63</ele>
        <time>2025-03-08T10:20:00Z</time>
      </trkpt>
      <trkpt lat="43.98442" lon="6.85474">
        <ele>883.59</ele>
        <time>2025-03-08T10:20:02Z</time>
      </trkpt>
      <trkpt lat="43.98442" lon="6.85475">
        <ele>883.59</ele>
        <time>2025-03-08T10:20:03Z</time>
      </trkpt>
      <trkpt lat="43.98448" lon="6.85488">
        <ele>886.95</ele>
        <time>2025-03-08T10:20:17Z</time>
      </trkpt>
      <trkpt lat="43.98452" lon="6.8549">
        <ele>888.4</ele>
        <time>2025-03-08T10:20:24Z</time>
      </trkpt>
      <trkpt lat="43.98457" lon="6.85497">
        <ele>890.8</ele>
        <time>2025-03-08T10:20:37Z</time>
      </trkpt>
      <trkpt lat="43.98461" lon="6.85499">
        <ele>892.72</ele>
        <time>2025-03-08T10:20:49Z</time>
      </trkpt>
      <trkpt lat="43.98464" lon="6.85492">
        <ele>894.64</ele>
        <time>2025-03-08T10:21:02Z</time>
      </trkpt>
      <trkpt lat="43.98465" lon="6.85489">
        <ele>896.09</ele>
        <time>2025-03-08T10:21:10Z</time>
      </trkpt>
      <trkpt lat="43.9847" lon="6.85519">
        <ele>896.09</ele>
        <time>2025-03-08T10:21:30Z</time>
      </trkpt>
      <trkpt lat="43.98471" lon="6.85533">
        <ele>896.09</ele>
        <time>2025-03-08T10:21:45Z</time>
      </trkpt>
      <trkpt lat="43.98477" lon="6.85541">
        <ele>898.49</ele>
        <time>2025-03-08T10:21:59Z</time>
      </trkpt>
      <trkpt lat="43.98484" lon="6.85546">
        <ele>899.93</ele>
        <time>2025-03-08T10:22:12Z</time>
      </trkpt>
      <trkpt lat="43.98491" lon="6.85558">
        <ele>901.37</ele>
        <time>2025-03-08T10:22:26Z</time>
      </trkpt>
      <trkpt lat="43.98494" lon="6.85569">
        <ele>903.3</ele>
        <time>2025-03-08T10:22:41Z</time>
      </trkpt>
      <trkpt lat="43.98496" lon="6.85576">
        <ele>905.22</ele>
        <time>2025-03-08T10:22:54Z</time>
      </trkpt>
      <trkpt lat="43.98497" lon="6.85586">
        <ele>906.66</ele>
        <time>2025-03-08T10:23:09Z</time>
      </trkpt>
      <trkpt lat="43.98496" lon="6.85593">
        <ele>908.1</ele>
        <time>2025-03-08T10:23:21Z</time>
      </trkpt>
      <trkpt lat="43.98498" lon="6.85594">
        <ele>909.06</ele>
        <time>2025-03-08T10:23:34Z</time>
      </trkpt>
      <trkpt lat="43.98497" lon="6.85593">
        <ele>909.06</ele>
        <time>2025-03-08T10:24:03Z</time>
      </trkpt>
      <trkpt lat="43.98497" lon="6.85592">
        <ele>908.58</ele>
        <time>2025-03-08T10:24:41Z</time>
      </trkpt>
      <trkpt lat="43.98495" lon="6.85592">
        <ele>908.58</ele>
        <time>2025-03-08T10:25:24Z</time>
      </trkpt>
      <trkpt lat="43.98498" lon="6.85591">
        <ele>908.58</ele>
        <time>2025-03-08T10:26:00Z</time>
      </trkpt>
      <trkpt lat="43.98499" lon="6.85593">
        <ele>908.1</ele>
        <time>2025-03-08T10:26:22Z</time>
      </trkpt>
      <trkpt lat="43.98497" lon="6.85595">
        <ele>908.58</ele>
        <time>2025-03-08T10:26:44Z</time>
      </trkpt>
      <trkpt lat="43.98496" lon="6.8559">
        <ele>907.14</ele>
        <time>2025-03-08T10:26:53Z</time>
      </trkpt>
      <trkpt lat="43.98497" lon="6.85588">
        <ele>907.14</ele>
        <time>2025-03-08T10:26:55Z</time>
      </trkpt>
      <trkpt lat="43.98502" lon="6.8557">
        <ele>907.62</ele>
        <time>2025-03-08T10:27:12Z</time>
      </trkpt>
      <trkpt lat="43.98507" lon="6.85555">
        <ele>909.06</ele>
        <time>2025-03-08T10:27:28Z</time>
      </trkpt>
      <trkpt lat="43.98508" lon="6.85541">
        <ele>910.99</ele>
        <time>2025-03-08T10:27:42Z</time>
      </trkpt>
      <trkpt lat="43.98509" lon="6.85528">
        <ele>912.91</ele>
        <time>2025-03-08T10:27:57Z</time>
      </trkpt>
      <trkpt lat="43.9851" lon="6.85516">
        <ele>915.31</ele>
        <time>2025-03-08T10:28:10Z</time>
      </trkpt>
      <trkpt lat="43.98515" lon="6.855">
        <ele>917.24</ele>
        <time>2025-03-08T10:28:27Z</time>
      </trkpt>
      <trkpt lat="43.98521" lon="6.85487">
        <ele>918.2</ele>
        <time>2025-03-08T10:28:41Z</time>
      </trkpt>
      <trkpt lat="43.98524" lon="6.85477">
        <ele>918.68</ele>
        <time>2025-03-08T10:28:54Z</time>
      </trkpt>
      <trkpt lat="43.98527" lon="6.85459">
        <ele>918.68</ele>
        <time>2025-03-08T10:29:08Z</time>
      </trkpt>
      <trkpt lat="43.98528" lon="6.85454">
        <ele>918.68</ele>
        <time>2025-03-08T10:29:12Z</time>
      </trkpt>
      <trkpt lat="43.98533" lon="6.85433">
        <ele>920.12</ele>
        <time>2025-03-08T10:29:29Z</time>
      </trkpt>
      <trkpt lat="43.98539" lon="6.85414">
        <ele>922.52</ele>
        <time>2025-03-08T10:29:45Z</time>
      </trkpt>
      <trkpt lat="43.98541" lon="6.85405">
        <ele>923.48</ele>
        <time>2025-03-08T10:29:58Z</time>
      </trkpt>
      <trkpt lat="43.98542" lon="6.85395">
        <ele>924.93</ele>
        <time>2025-03-08T10:30:10Z</time>
      </trkpt>
      <trkpt lat="43.98545" lon="6.85381">
        <ele>926.85</ele>
        <time>2025-03-08T10:30:25Z</time>
      </trkpt>
      <trkpt lat="43.98547" lon="6.85367">
        <ele>928.29</ele>
        <time>2025-03-08T10:30:38Z</time>
      </trkpt>
      <trkpt lat="43.98549" lon="6.8536">
        <ele>929.73</ele>
        <time>2025-03-08T10:30:47Z</time>
      </trkpt>
      <trkpt lat="43.98551" lon="6.85348">
        <ele>929.73</ele>
        <time>2025-03-08T10:30:55Z</time>
      </trkpt>
      <trkpt lat="43.98549" lon="6.85338">
        <ele>928.77</ele>
        <time>2025-03-08T10:31:02Z</time>
      </trkpt>
      <trkpt lat="43.98548" lon="6.85325">
        <ele>927.81</ele>
        <time>2025-03-08T10:31:10Z</time>
      </trkpt>
      <trkpt lat="43.9855" lon="6.85302">
        <ele>930.69</ele>
        <time>2025-03-08T10:31:29Z</time>
      </trkpt>
      <trkpt lat="43.98552" lon="6.85278">
        <ele>932.14</ele>
        <time>2025-03-08T10:31:45Z</time>
      </trkpt>
      <trkpt lat="43.98554" lon="6.85254">
        <ele>932.62</ele>
        <time>2025-03-08T10:32:01Z</time>
      </trkpt>
      <trkpt lat="43.98558" lon="6.85221">
        <ele>932.62</ele>
        <time>2025-03-08T10:32:20Z</time>
      </trkpt>
      <trkpt lat="43.98564" lon="6.85194">
        <ele>934.06</ele>
        <time>2025-03-08T10:32:39Z</time>
      </trkpt>
      <trkpt lat="43.98565" lon="6.85189">
        <ele>935.02</ele>
        <time>2025-03-08T10:32:43Z</time>
      </trkpt>
      <trkpt lat="43.98573" lon="6.8517">
        <ele>936.94</ele>
        <time>2025-03-08T10:33:00Z</time>
      </trkpt>
      <trkpt lat="43.9858" lon="6.85154">
        <ele>939.35</ele>
        <time>2025-03-08T10:33:15Z</time>
      </trkpt>
      <trkpt lat="43.98583" lon="6.85148">
        <ele>939.83</ele>
        <time>2025-03-08T10:33:20Z</time>
      </trkpt>
      <trkpt lat="43.98593" lon="6.85132">
        <ele>942.23</ele>
        <time>2025-03-08T10:33:38Z</time>
      </trkpt>
      <trkpt lat="43.98602" lon="6.85118">
        <ele>944.15</ele>
        <time>2025-03-08T10:33:54Z</time>
      </trkpt>
      <trkpt lat="43.98605" lon="6.85112">
        <ele>944.63</ele>
        <time>2025-03-08T10:34:00Z</time>
      </trkpt>
      <trkpt lat="43.98611" lon="6.85104">
        <ele>946.07</ele>
        <time>2025-03-08T10:34:14Z</time>
      </trkpt>
      <trkpt lat="43.98617" lon="6.85099">
        <ele>947.04</ele>
        <time>2025-03-08T10:34:22Z</time>
      </trkpt>
      <trkpt lat="43.98631" lon="6.85094">
        <ele>948.96</ele>
        <time>2025-03-08T10:34:37Z</time>
      </trkpt>
      <trkpt lat="43.98641" lon="6.85087">
        <ele>950.88</ele>
        <time>2025-03-08T10:34:50Z</time>
      </trkpt>
      <trkpt lat="43.98645" lon="6.85084">
        <ele>951.36</ele>
        <time>2025-03-08T10:34:54Z</time>
      </trkpt>
      <trkpt lat="43.98648" lon="6.85078">
        <ele>951.84</ele>
        <time>2025-03-08T10:35:07Z</time>
      </trkpt>
      <trkpt lat="43.98648" lon="6.8507">
        <ele>951.84</ele>
        <time>2025-03-08T10:35:14Z</time>
      </trkpt>
      <trkpt lat="43.9864" lon="6.8506">
        <ele>949.92</ele>
        <time>2025-03-08T10:35:24Z</time>
      </trkpt>
      <trkpt lat="43.98639" lon="6.85026">
        <ele>948.48</ele>
        <time>2025-03-08T10:35:43Z</time>
      </trkpt>
      <trkpt lat="43.9864" lon="6.85009">
        <ele>949.44</ele>
        <time>2025-03-08T10:35:53Z</time>
      </trkpt>
      <trkpt lat="43.98641" lon="6.85005">
        <ele>949.44</ele>
        <time>2025-03-08T10:35:56Z</time>
      </trkpt>
      <trkpt lat="43.98651" lon="6.84992">
        <ele>950.4</ele>
        <time>2025-03-08T10:36:08Z</time>
      </trkpt>
      <trkpt lat="43.98656" lon="6.84969">
        <ele>951.36</ele>
        <time>2025-03-08T10:36:24Z</time>
      </trkpt>
      <trkpt lat="43.9865" lon="6.84952">
        <ele>952.32</ele>
        <time>2025-03-08T10:36:39Z</time>
      </trkpt>
      <trkpt lat="43.9865" lon="6.84935">
        <ele>954.73</ele>
        <time>2025-03-08T10:36:53Z</time>
      </trkpt>
      <trkpt lat="43.9865" lon="6.84925">
        <ele>956.17</ele>
        <time>2025-03-08T10:37:01Z</time>
      </trkpt>
      <trkpt lat="43.98649" lon="6.84911">
        <ele>957.13</ele>
        <time>2025-03-08T10:37:15Z</time>
      </trkpt>
      <trkpt lat="43.9865" lon="6.84904">
        <ele>957.13</ele>
        <time>2025-03-08T10:37:27Z</time>
      </trkpt>
      <trkpt lat="43.98653" lon="6.84886">
        <ele>957.13</ele>
        <time>2025-03-08T10:37:39Z</time>
      </trkpt>
      <trkpt lat="43.98657" lon="6.8486">
        <ele>957.61</ele>
        <time>2025-03-08T10:37:55Z</time>
      </trkpt>
      <trkpt lat="43.98659" lon="6.84836">
        <ele>960.01</ele>
        <time>2025-03-08T10:38:13Z</time>
      </trkpt>
      <trkpt lat="43.9866" lon="6.84817">
        <ele>962.42</ele>
        <time>2025-03-08T10:38:27Z</time>
      </trkpt>
      <trkpt lat="43.98661" lon="6.84796">
        <ele>962.9</ele>
        <time>2025-03-08T10:38:42Z</time>
      </trkpt>
      <trkpt lat="43.98662" lon="6.84769">
        <ele>963.86</ele>
        <time>2025-03-08T10:39:00Z</time>
      </trkpt>
      <trkpt lat="43.98668" lon="6.84752">
        <ele>963.38</ele>
        <time>2025-03-08T10:39:15Z</time>
      </trkpt>
      <trkpt lat="43.98677" lon="6.84743">
        <ele>965.78</ele>
        <time>2025-03-08T10:39:28Z</time>
      </trkpt>
      <trkpt lat="43.98682" lon="6.84733">
        <ele>968.18</ele>
        <time>2025-03-08T10:39:42Z</time>
      </trkpt>
      <trkpt lat="43.98687" lon="6.84721">
        <ele>970.11</ele>
        <time>2025-03-08T10:39:56Z</time>
      </trkpt>
      <trkpt lat="43.9869" lon="6.84707">
        <ele>972.51</ele>
        <time>2025-03-08T10:40:10Z</time>
      </trkpt>
      <trkpt lat="43.9869" lon="6.84703">
        <ele>972.51</ele>
        <time>2025-03-08T10:40:14Z</time>
      </trkpt>
      <trkpt lat="43.98681" lon="6.84693">
        <ele>973.95</ele>
        <time>2025-03-08T10:40:28Z</time>
      </trkpt>
      <trkpt lat="43.98677" lon="6.84683">
        <ele>976.84</ele>
        <time>2025-03-08T10:40:41Z</time>
      </trkpt>
      <trkpt lat="43.98669" lon="6.84668">
        <ele>978.76</ele>
        <time>2025-03-08T10:40:57Z</time>
      </trkpt>
      <trkpt lat="43.9866" lon="6.84653">
        <ele>979.72</ele>
        <time>2025-03-08T10:41:12Z</time>
      </trkpt>
      <trkpt lat="43.98657" lon="6.84646">
        <ele>979.24</ele>
        <time>2025-03-08T10:41:24Z</time>
      </trkpt>
      <trkpt lat="43.98659" lon="6.84646">
        <ele>979.24</ele>
        <time>2025-03-08T10:41:41Z</time>
      </trkpt>
      <trkpt lat="43.98667" lon="6.84649">
        <ele>981.64</ele>
        <time>2025-03-08T10:41:52Z</time>
      </trkpt>
      <trkpt lat="43.98683" lon="6.84663">
        <ele>983.09</ele>
        <time>2025-03-08T10:42:11Z</time>
      </trkpt>
      <trkpt lat="43.98702" lon="6.84676">
        <ele>983.09</ele>
        <time>2025-03-08T10:42:29Z</time>
      </trkpt>
      <trkpt lat="43.98706" lon="6.84682">
        <ele>983.09</ele>
        <time>2025-03-08T10:42:34Z</time>
      </trkpt>
      <trkpt lat="43.98712" lon="6.8471">
        <ele>983.09</ele>
        <time>2025-03-08T10:42:53Z</time>
      </trkpt>
      <trkpt lat="43.98711" lon="6.84706">
        <ele>983.57</ele>
        <time>2025-03-08T10:43:05Z</time>
      </trkpt>
      <trkpt lat="43.98709" lon="6.84696">
        <ele>983.57</ele>
        <time>2025-03-08T10:43:12Z</time>
      </trkpt>
      <trkpt lat="43.98706" lon="6.84686">
        <ele>982.6</ele>
        <time>2025-03-08T10:43:18Z</time>
      </trkpt>
      <trkpt lat="43.98703" lon="6.8468">
        <ele>982.6</ele>
        <time>2025-03-08T10:43:23Z</time>
      </trkpt>
      <trkpt lat="43.987" lon="6.84679">
        <ele>982.12</ele>
        <time>2025-03-08T10:43:33Z</time>
      </trkpt>
      <trkpt lat="43.98698" lon="6.84669">
        <ele>983.09</ele>
        <time>2025-03-08T10:43:44Z</time>
      </trkpt>
      <trkpt lat="43.98693" lon="6.84662">
        <ele>985.01</ele>
        <time>2025-03-08T10:43:55Z</time>
      </trkpt>
      <trkpt lat="43.98695" lon="6.84655">
        <ele>986.93</ele>
        <time>2025-03-08T10:44:08Z</time>
      </trkpt>
      <trkpt lat="43.98702" lon="6.84655">
        <ele>989.81</ele>
        <time>2025-03-08T10:44:22Z</time>
      </trkpt>
      <trkpt lat="43.98704" lon="6.84645">
        <ele>991.74</ele>
        <time>2025-03-08T10:44:35Z</time>
      </trkpt>
      <trkpt lat="43.98709" lon="6.84631">
        <ele>993.18</ele>
        <time>2025-03-08T10:44:49Z</time>
      </trkpt>
      <trkpt lat="43.98711" lon="6.84628">
        <ele>993.66</ele>
        <time>2025-03-08T10:44:51Z</time>
      </trkpt>
      <trkpt lat="43.98714" lon="6.84621">
        <ele>994.14</ele>
        <time>2025-03-08T10:44:58Z</time>
      </trkpt>
      <trkpt lat="43.98718" lon="6.84597">
        <ele>994.62</ele>
        <time>2025-03-08T10:45:15Z</time>
      </trkpt>
      <trkpt lat="43.98718" lon="6.84591">
        <ele>994.62</ele>
        <time>2025-03-08T10:45:19Z</time>
      </trkpt>
      <trkpt lat="43.98717" lon="6.84587">
        <ele>994.62</ele>
        <time>2025-03-08T10:45:22Z</time>
      </trkpt>
      <trkpt lat="43.98719" lon="6.8456">
        <ele>995.1</ele>
        <time>2025-03-08T10:45:41Z</time>
      </trkpt>
      <trkpt lat="43.98719" lon="6.84556">
        <ele>995.1</ele>
        <time>2025-03-08T10:45:44Z</time>
      </trkpt>
      <trkpt lat="43.98719" lon="6.84539">
        <ele>997.51</ele>
        <time>2025-03-08T10:45:59Z</time>
      </trkpt>
      <trkpt lat="43.98723" lon="6.84527">
        <ele>998.47</ele>
        <time>2025-03-08T10:46:11Z</time>
      </trkpt>
      <trkpt lat="43.98728" lon="6.84515">
        <ele>999.91</ele>
        <time>2025-03-08T10:46:26Z</time>
      </trkpt>
      <trkpt lat="43.98733" lon="6.84506">
        <ele>1003.27</ele>
        <time>2025-03-08T10:46:40Z</time>
      </trkpt>
      <trkpt lat="43.98736" lon="6.84499">
        <ele>1005.2</ele>
        <time>2025-03-08T10:46:53Z</time>
      </trkpt>
      <trkpt lat="43.98739" lon="6.84491">
        <ele>1007.12</ele>
        <time>2025-03-08T10:47:08Z</time>
      </trkpt>
      <trkpt lat="43.98744" lon="6.84478">
        <ele>1009.04</ele>
        <time>2025-03-08T10:47:23Z</time>
      </trkpt>
      <trkpt lat="43.98749" lon="6.84467">
        <ele>1010.48</ele>
        <time>2025-03-08T10:47:35Z</time>
      </trkpt>
      <trkpt lat="43.98756" lon="6.84452">
        <ele>1012.41</ele>
        <time>2025-03-08T10:47:50Z</time>
      </trkpt>
      <trkpt lat="43.98763" lon="6.84433">
        <ele>1013.85</ele>
        <time>2025-03-08T10:48:07Z</time>
      </trkpt>
      <trkpt lat="43.9877" lon="6.84418">
        <ele>1016.25</ele>
        <time>2025-03-08T10:48:23Z</time>
      </trkpt>
      <trkpt lat="43.9878" lon="6.84412">
        <ele>1016.73</ele>
        <time>2025-03-08T10:48:38Z</time>
      </trkpt>
      <trkpt lat="43.98782" lon="6.84402">
        <ele>1017.21</ele>
        <time>2025-03-08T10:48:50Z</time>
      </trkpt>
      <trkpt lat="43.98783" lon="6.844">
        <ele>1017.69</ele>
        <time>2025-03-08T10:49:03Z</time>
      </trkpt>
      <trkpt lat="43.98782" lon="6.84395">
        <ele>1018.65</ele>
        <time>2025-03-08T10:49:17Z</time>
      </trkpt>
      <trkpt lat="43.98781" lon="6.84384">
        <ele>1020.58</ele>
        <time>2025-03-08T10:49:29Z</time>
      </trkpt>
      <trkpt lat="43.98782" lon="6.84371">
        <ele>1022.98</ele>
        <time>2025-03-08T10:49:42Z</time>
      </trkpt>
      <trkpt lat="43.98785" lon="6.84351">
        <ele>1024.42</ele>
        <time>2025-03-08T10:49:57Z</time>
      </trkpt>
      <trkpt lat="43.98787" lon="6.84333">
        <ele>1026.34</ele>
        <time>2025-03-08T10:50:12Z</time>
      </trkpt>
      <trkpt lat="43.98789" lon="6.8432">
        <ele>1028.27</ele>
        <time>2025-03-08T10:50:25Z</time>
      </trkpt>
      <trkpt lat="43.98794" lon="6.8431">
        <ele>1029.71</ele>
        <time>2025-03-08T10:50:39Z</time>
      </trkpt>
      <trkpt lat="43.98801" lon="6.84309">
        <ele>1031.63</ele>
        <time>2025-03-08T10:50:49Z</time>
      </trkpt>
      <trkpt lat="43.98805" lon="6.84306">
        <ele>1032.11</ele>
        <time>2025-03-08T10:50:54Z</time>
      </trkpt>
      <trkpt lat="43.98815" lon="6.84294">
        <ele>1033.07</ele>
        <time>2025-03-08T10:51:07Z</time>
      </trkpt>
      <trkpt lat="43.98823" lon="6.84289">
        <ele>1033.55</ele>
        <time>2025-03-08T10:51:21Z</time>
      </trkpt>
      <trkpt lat="43.98822" lon="6.8428">
        <ele>1034.04</ele>
        <time>2025-03-08T10:51:29Z</time>
      </trkpt>
      <trkpt lat="43.98819" lon="6.84274">
        <ele>1035</ele>
        <time>2025-03-08T10:51:34Z</time>
      </trkpt>
      <trkpt lat="43.98817" lon="6.84248">
        <ele>1035</ele>
        <time>2025-03-08T10:51:52Z</time>
      </trkpt>
      <trkpt lat="43.98816" lon="6.84242">
        <ele>1034.04</ele>
        <time>2025-03-08T10:51:56Z</time>
      </trkpt>
      <trkpt lat="43.98815" lon="6.84234">
        <ele>1035</ele>
        <time>2025-03-08T10:52:03Z</time>
      </trkpt>
      <trkpt lat="43.98814" lon="6.84227">
        <ele>1035</ele>
        <time>2025-03-08T10:52:08Z</time>
      </trkpt>
      <trkpt lat="43.98801" lon="6.84212">
        <ele>1035</ele>
        <time>2025-03-08T10:52:24Z</time>
      </trkpt>
      <trkpt lat="43.98799" lon="6.84208">
        <ele>1035.48</ele>
        <time>2025-03-08T10:52:28Z</time>
      </trkpt>
      <trkpt lat="43.9879" lon="6.84203">
        <ele>1035</ele>
        <time>2025-03-08T10:52:37Z</time>
      </trkpt>
      <trkpt lat="43.98786" lon="6.84193">
        <ele>1035.48</ele>
        <time>2025-03-08T10:52:47Z</time>
      </trkpt>
      <trkpt lat="43.98789" lon="6.8419">
        <ele>1036.44</ele>
        <time>2025-03-08T10:52:51Z</time>
      </trkpt>
      <trkpt lat="43.98792" lon="6.84188">
        <ele>1036.44</ele>
        <time>2025-03-08T10:52:55Z</time>
      </trkpt>
      <trkpt lat="43.98796" lon="6.84186">
        <ele>1036.92</ele>
        <time>2025-03-08T10:53:00Z</time>
      </trkpt>
      <trkpt lat="43.98809" lon="6.84175">
        <ele>1038.84</ele>
        <time>2025-03-08T10:53:16Z</time>
      </trkpt>
      <trkpt lat="43.98813" lon="6.84168">
        <ele>1039.8</ele>
        <time>2025-03-08T10:53:28Z</time>
      </trkpt>
      <trkpt lat="43.98819" lon="6.84157">
        <ele>1042.69</ele>
        <time>2025-03-08T10:53:43Z</time>
      </trkpt>
      <trkpt lat="43.98824" lon="6.84148">
        <ele>1044.61</ele>
        <time>2025-03-08T10:53:57Z</time>
      </trkpt>
      <trkpt lat="43.9883" lon="6.8414">
        <ele>1046.53</ele>
        <time>2025-03-08T10:54:11Z</time>
      </trkpt>
      <trkpt lat="43.98834" lon="6.84132">
        <ele>1048.45</ele>
        <time>2025-03-08T10:54:23Z</time>
      </trkpt>
      <trkpt lat="43.98838" lon="6.84122">
        <ele>1050.38</ele>
        <time>2025-03-08T10:54:37Z</time>
      </trkpt>
      <trkpt lat="43.98845" lon="6.8412">
        <ele>1051.34</ele>
        <time>2025-03-08T10:54:49Z</time>
      </trkpt>
      <trkpt lat="43.98852" lon="6.84114">
        <ele>1053.26</ele>
        <time>2025-03-08T10:55:02Z</time>
      </trkpt>
      <trkpt lat="43.98857" lon="6.8411">
        <ele>1055.67</ele>
        <time>2025-03-08T10:55:13Z</time>
      </trkpt>
      <trkpt lat="43.98861" lon="6.84109">
        <ele>1057.59</ele>
        <time>2025-03-08T10:55:26Z</time>
      </trkpt>
      <trkpt lat="43.98862" lon="6.84109">
        <ele>1058.07</ele>
        <time>2025-03-08T10:55:30Z</time>
      </trkpt>
      <trkpt lat="43.98863" lon="6.8411">
        <ele>1057.59</ele>
        <time>2025-03-08T10:55:38Z</time>
      </trkpt>
      <trkpt lat="43.98868" lon="6.84108">
        <ele>1058.55</ele>
        <time>2025-03-08T10:55:49Z</time>
      </trkpt>
      <trkpt lat="43.98884" lon="6.84095">
        <ele>1059.99</ele>
        <time>2025-03-08T10:56:06Z</time>
      </trkpt>
      <trkpt lat="43.98904" lon="6.84077">
        <ele>1060.95</ele>
        <time>2025-03-08T10:56:26Z</time>
      </trkpt>
      <trkpt lat="43.98914" lon="6.84049">
        <ele>1062.87</ele>
        <time>2025-03-08T10:56:46Z</time>
      </trkpt>
      <trkpt lat="43.98914" lon="6.84017">
        <ele>1064.8</ele>
        <time>2025-03-08T10:57:07Z</time>
      </trkpt>
      <trkpt lat="43.9891" lon="6.83983">
        <ele>1068.16</ele>
        <time>2025-03-08T10:57:28Z</time>
      </trkpt>
      <trkpt lat="43.98914" lon="6.83951">
        <ele>1070.08</ele>
        <time>2025-03-08T10:57:48Z</time>
      </trkpt>
      <trkpt lat="43.98922" lon="6.83919">
        <ele>1072.49</ele>
        <time>2025-03-08T10:58:10Z</time>
      </trkpt>
      <trkpt lat="43.98946" lon="6.83894">
        <ele>1074.41</ele>
        <time>2025-03-08T10:58:34Z</time>
      </trkpt>
      <trkpt lat="43.98967" lon="6.83882">
        <ele>1075.85</ele>
        <time>2025-03-08T10:58:53Z</time>
      </trkpt>
      <trkpt lat="43.98973" lon="6.83854">
        <ele>1078.74</ele>
        <time>2025-03-08T10:59:14Z</time>
      </trkpt>
      <trkpt lat="43.98972" lon="6.83853">
        <ele>1079.22</ele>
        <time>2025-03-08T10:59:15Z</time>
      </trkpt>
      <trkpt lat="43.9897" lon="6.83823">
        <ele>1081.14</ele>
        <time>2025-03-08T10:59:35Z</time>
      </trkpt>
      <trkpt lat="43.98974" lon="6.83809">
        <ele>1079.7</ele>
        <time>2025-03-08T10:59:50Z</time>
      </trkpt>
      <trkpt lat="43.98974" lon="6.83807">
        <ele>1080.66</ele>
        <time>2025-03-08T11:00:11Z</time>
      </trkpt>
      <trkpt lat="43.98964" lon="6.83796">
        <ele>1081.62</ele>
        <time>2025-03-08T11:00:29Z</time>
      </trkpt>
      <trkpt lat="43.98965" lon="6.83794">
        <ele>1081.62</ele>
        <time>2025-03-08T11:00:46Z</time>
      </trkpt>
      <trkpt lat="43.9896" lon="6.83795">
        <ele>1080.18</ele>
        <time>2025-03-08T11:01:05Z</time>
      </trkpt>
      <trkpt lat="43.9896" lon="6.83794">
        <ele>1080.18</ele>
        <time>2025-03-08T11:01:06Z</time>
      </trkpt>
      <trkpt lat="43.98956" lon="6.83786">
        <ele>1082.1</ele>
        <time>2025-03-08T11:01:12Z</time>
      </trkpt>
      <trkpt lat="43.98954" lon="6.83784">
        <ele>1081.62</ele>
        <time>2025-03-08T11:01:14Z</time>
      </trkpt>
      <trkpt lat="43.98951" lon="6.83779">
        <ele>1082.1</ele>
        <time>2025-03-08T11:01:18Z</time>
      </trkpt>
      <trkpt lat="43.9894" lon="6.83752">
        <ele>1084.5</ele>
        <time>2025-03-08T11:01:40Z</time>
      </trkpt>
      <trkpt lat="43.98933" lon="6.83736">
        <ele>1086.91</ele>
        <time>2025-03-08T11:01:56Z</time>
      </trkpt>
      <trkpt lat="43.98933" lon="6.83735">
        <ele>1082.58</ele>
        <time>2025-03-08T11:02:03Z</time>
      </trkpt>
      <trkpt lat="43.98933" lon="6.83734">
        <ele>1085.95</ele>
        <time>2025-03-08T11:02:05Z</time>
      </trkpt>
      <trkpt lat="43.98933" lon="6.83734">
        <ele>1085.95</ele>
        <time>2025-03-08T11:02:06Z</time>
      </trkpt>
      <trkpt lat="43.98934" lon="6.83734">
        <ele>1086.91</ele>
        <time>2025-03-08T11:02:24Z</time>
      </trkpt>
      <trkpt lat="43.98929" lon="6.83723">
        <ele>1086.91</ele>
        <time>2025-03-08T11:02:34Z</time>
      </trkpt>
      <trkpt lat="43.9892" lon="6.83705">
        <ele>1088.83</ele>
        <time>2025-03-08T11:02:50Z</time>
      </trkpt>
      <trkpt lat="43.98917" lon="6.83697">
        <ele>1089.79</ele>
        <time>2025-03-08T11:02:56Z</time>
      </trkpt>
      <trkpt lat="43.9891" lon="6.83672">
        <ele>1091.23</ele>
        <time>2025-03-08T11:03:13Z</time>
      </trkpt>
      <trkpt lat="43.98907" lon="6.83646">
        <ele>1093.16</ele>
        <time>2025-03-08T11:03:30Z</time>
      </trkpt>
      <trkpt lat="43.98907" lon="6.83643">
        <ele>1093.64</ele>
        <time>2025-03-08T11:03:32Z</time>
      </trkpt>
      <trkpt lat="43.98903" lon="6.83622">
        <ele>1094.6</ele>
        <time>2025-03-08T11:03:47Z</time>
      </trkpt>
      <trkpt lat="43.98897" lon="6.83594">
        <ele>1096.04</ele>
        <time>2025-03-08T11:04:06Z</time>
      </trkpt>
      <trkpt lat="43.98896" lon="6.83579">
        <ele>1097.48</ele>
        <time>2025-03-08T11:04:17Z</time>
      </trkpt>
      <trkpt lat="43.98897" lon="6.83564">
        <ele>1097.96</ele>
        <time>2025-03-08T11:04:28Z</time>
      </trkpt>
      <trkpt lat="43.98904" lon="6.83558">
        <ele>1098.44</ele>
        <time>2025-03-08T11:04:42Z</time>
      </trkpt>
      <trkpt lat="43.98903" lon="6.83559">
        <ele>1098.44</ele>
        <time>2025-03-08T11:05:03Z</time>
      </trkpt>
      <trkpt lat="43.989" lon="6.83557">
        <ele>1097.96</ele>
        <time>2025-03-08T11:05:21Z</time>
      </trkpt>
      <trkpt lat="43.98898" lon="6.83557">
        <ele>1097.96</ele>
        <time>2025-03-08T11:05:23Z</time>
      </trkpt>
      <trkpt lat="43.98885" lon="6.83562">
        <ele>1099.89</ele>
        <time>2025-03-08T11:05:40Z</time>
      </trkpt>
      <trkpt lat="43.9888" lon="6.83594">
        <ele>1102.77</ele>
        <time>2025-03-08T11:06:01Z</time>
      </trkpt>
      <trkpt lat="43.98877" lon="6.836">
        <ele>1103.25</ele>
        <time>2025-03-08T11:06:05Z</time>
      </trkpt>
      <trkpt lat="43.98875" lon="6.83628">
        <ele>1105.17</ele>
        <time>2025-03-08T11:06:22Z</time>
      </trkpt>
      <trkpt lat="43.9887" lon="6.83641">
        <ele>1105.65</ele>
        <time>2025-03-08T11:06:31Z</time>
      </trkpt>
      <trkpt lat="43.9886" lon="6.83667">
        <ele>1108.06</ele>
        <time>2025-03-08T11:06:50Z</time>
      </trkpt>
      <trkpt lat="43.98853" lon="6.83686">
        <ele>1109.02</ele>
        <time>2025-03-08T11:07:03Z</time>
      </trkpt>
      <trkpt lat="43.98848" lon="6.83707">
        <ele>1109.98</ele>
        <time>2025-03-08T11:07:23Z</time>
      </trkpt>
      <trkpt lat="43.98847" lon="6.83709">
        <ele>1110.94</ele>
        <time>2025-03-08T11:07:41Z</time>
      </trkpt>
      <trkpt lat="43.98844" lon="6.83708">
        <ele>1110.46</ele>
        <time>2025-03-08T11:08:09Z</time>
      </trkpt>
      <trkpt lat="43.98843" lon="6.83706">
        <ele>1110.46</ele>
        <time>2025-03-08T11:08:12Z</time>
      </trkpt>
      <trkpt lat="43.9884" lon="6.83699">
        <ele>1110.46</ele>
        <time>2025-03-08T11:08:17Z</time>
      </trkpt>
      <trkpt lat="43.98844" lon="6.83676">
        <ele>1112.86</ele>
        <time>2025-03-08T11:08:33Z</time>
      </trkpt>
      <trkpt lat="43.98847" lon="6.83665">
        <ele>1113.82</ele>
        <time>2025-03-08T11:08:41Z</time>
      </trkpt>
      <trkpt lat="43.98849" lon="6.83649">
        <ele>1114.79</ele>
        <time>2025-03-08T11:08:51Z</time>
      </trkpt>
      <trkpt lat="43.98848" lon="6.83623">
        <ele>1116.71</ele>
        <time>2025-03-08T11:09:10Z</time>
      </trkpt>
      <trkpt lat="43.98849" lon="6.83621">
        <ele>1117.19</ele>
        <time>2025-03-08T11:09:36Z</time>
      </trkpt>
      <trkpt lat="43.98849" lon="6.83614">
        <ele>1117.67</ele>
        <time>2025-03-08T11:09:50Z</time>
      </trkpt>
      <trkpt lat="43.98844" lon="6.83592">
        <ele>1119.11</ele>
        <time>2025-03-08T11:10:06Z</time>
      </trkpt>
      <trkpt lat="43.98844" lon="6.83567">
        <ele>1120.55</ele>
        <time>2025-03-08T11:10:24Z</time>
      </trkpt>
      <trkpt lat="43.98843" lon="6.83548">
        <ele>1122.96</ele>
        <time>2025-03-08T11:10:37Z</time>
      </trkpt>
      <trkpt lat="43.98842" lon="6.83542">
        <ele>1123.44</ele>
        <time>2025-03-08T11:10:41Z</time>
      </trkpt>
      <trkpt lat="43.98841" lon="6.83536">
        <ele>1123.44</ele>
        <time>2025-03-08T11:10:45Z</time>
      </trkpt>
      <trkpt lat="43.98842" lon="6.83528">
        <ele>1124.88</ele>
        <time>2025-03-08T11:10:53Z</time>
      </trkpt>
      <trkpt lat="43.9884" lon="6.83523">
        <ele>1124.88</ele>
        <time>2025-03-08T11:10:57Z</time>
      </trkpt>
      <trkpt lat="43.98841" lon="6.83517">
        <ele>1125.36</ele>
        <time>2025-03-08T11:11:01Z</time>
      </trkpt>
      <trkpt lat="43.98838" lon="6.8349">
        <ele>1127.28</ele>
        <time>2025-03-08T11:11:20Z</time>
      </trkpt>
      <trkpt lat="43.98837" lon="6.83462">
        <ele>1129.69</ele>
        <time>2025-03-08T11:11:40Z</time>
      </trkpt>
      <trkpt lat="43.98838" lon="6.83454">
        <ele>1130.65</ele>
        <time>2025-03-08T11:11:52Z</time>
      </trkpt>
      <trkpt lat="43.98831" lon="6.83446">
        <ele>1131.13</ele>
        <time>2025-03-08T11:12:09Z</time>
      </trkpt>
      <trkpt lat="43.98829" lon="6.83438">
        <ele>1131.61</ele>
        <time>2025-03-08T11:12:16Z</time>
      </trkpt>
      <trkpt lat="43.98824" lon="6.83412">
        <ele>1133.53</ele>
        <time>2025-03-08T11:12:34Z</time>
      </trkpt>
      <trkpt lat="43.98827" lon="6.83398">
        <ele>1135.45</ele>
        <time>2025-03-08T11:12:44Z</time>
      </trkpt>
      <trkpt lat="43.98836" lon="6.83377">
        <ele>1136.9</ele>
        <time>2025-03-08T11:13:00Z</time>
      </trkpt>
      <trkpt lat="43.98842" lon="6.83363">
        <ele>1137.86</ele>
        <time>2025-03-08T11:13:11Z</time>
      </trkpt>
      <trkpt lat="43.98845" lon="6.83357">
        <ele>1138.34</ele>
        <time>2025-03-08T11:13:16Z</time>
      </trkpt>
      <trkpt lat="43.98847" lon="6.83344">
        <ele>1140.26</ele>
        <time>2025-03-08T11:13:26Z</time>
      </trkpt>
      <trkpt lat="43.98844" lon="6.83329">
        <ele>1141.7</ele>
        <time>2025-03-08T11:13:40Z</time>
      </trkpt>
      <trkpt lat="43.98841" lon="6.83325">
        <ele>1142.66</ele>
        <time>2025-03-08T11:13:58Z</time>
      </trkpt>
      <trkpt lat="43.98831" lon="6.83315">
        <ele>1144.11</ele>
        <time>2025-03-08T11:14:14Z</time>
      </trkpt>
      <trkpt lat="43.98822" lon="6.83303">
        <ele>1146.03</ele>
        <time>2025-03-08T11:14:27Z</time>
      </trkpt>
      <trkpt lat="43.98823" lon="6.83285">
        <ele>1148.43</ele>
        <time>2025-03-08T11:14:42Z</time>
      </trkpt>
      <trkpt lat="43.9883" lon="6.83266">
        <ele>1149.87</ele>
        <time>2025-03-08T11:14:58Z</time>
      </trkpt>
      <trkpt lat="43.98826" lon="6.83249">
        <ele>1151.8</ele>
        <time>2025-03-08T11:15:14Z</time>
      </trkpt>
      <trkpt lat="43.9882" lon="6.83239">
        <ele>1153.24</ele>
        <time>2025-03-08T11:15:24Z</time>
      </trkpt>
      <trkpt lat="43.98815" lon="6.83228">
        <ele>1154.68</ele>
        <time>2025-03-08T11:15:40Z</time>
      </trkpt>
      <trkpt lat="43.98816" lon="6.83226">
        <ele>1155.16</ele>
        <time>2025-03-08T11:15:57Z</time>
      </trkpt>
      <trkpt lat="43.98814" lon="6.83223">
        <ele>1155.64</ele>
        <time>2025-03-08T11:16:12Z</time>
      </trkpt>
      <trkpt lat="43.98812" lon="6.83212">
        <ele>1156.6</ele>
        <time>2025-03-08T11:16:25Z</time>
      </trkpt>
      <trkpt lat="43.98812" lon="6.83202">
        <ele>1157.08</ele>
        <time>2025-03-08T11:16:34Z</time>
      </trkpt>
      <trkpt lat="43.98812" lon="6.83174">
        <ele>1159.01</ele>
        <time>2025-03-08T11:16:52Z</time>
      </trkpt>
      <trkpt lat="43.9881" lon="6.83142">
        <ele>1160.93</ele>
        <time>2025-03-08T11:17:13Z</time>
      </trkpt>
      <trkpt lat="43.98806" lon="6.83126">
        <ele>1162.37</ele>
        <time>2025-03-08T11:17:24Z</time>
      </trkpt>
      <trkpt lat="43.98806" lon="6.83124">
        <ele>1162.85</ele>
        <time>2025-03-08T11:17:26Z</time>
      </trkpt>
      <trkpt lat="43.98803" lon="6.83117">
        <ele>1163.33</ele>
        <time>2025-03-08T11:17:32Z</time>
      </trkpt>
      <trkpt lat="43.98802" lon="6.83109">
        <ele>1163.81</ele>
        <time>2025-03-08T11:17:38Z</time>
      </trkpt>
      <trkpt lat="43.98798" lon="6.83097">
        <ele>1164.77</ele>
        <time>2025-03-08T11:17:49Z</time>
      </trkpt>
      <trkpt lat="43.98796" lon="6.83075">
        <ele>1167.18</ele>
        <time>2025-03-08T11:18:05Z</time>
      </trkpt>
      <trkpt lat="43.98792" lon="6.83068">
        <ele>1168.62</ele>
        <time>2025-03-08T11:18:13Z</time>
      </trkpt>
      <trkpt lat="43.98787" lon="6.83078">
        <ele>1169.1</ele>
        <time>2025-03-08T11:18:24Z</time>
      </trkpt>
      <trkpt lat="43.98788" lon="6.83089">
        <ele>1169.58</ele>
        <time>2025-03-08T11:18:33Z</time>
      </trkpt>
      <trkpt lat="43.98789" lon="6.83104">
        <ele>1171.02</ele>
        <time>2025-03-08T11:18:44Z</time>
      </trkpt>
      <trkpt lat="43.9879" lon="6.8311">
        <ele>1171.5</ele>
        <time>2025-03-08T11:18:48Z</time>
      </trkpt>
      <trkpt lat="43.9879" lon="6.83134">
        <ele>1173.43</ele>
        <time>2025-03-08T11:19:05Z</time>
      </trkpt>
      <trkpt lat="43.98785" lon="6.83162">
        <ele>1175.35</ele>
        <time>2025-03-08T11:19:24Z</time>
      </trkpt>
      <trkpt lat="43.98782" lon="6.83171">
        <ele>1176.31</ele>
        <time>2025-03-08T11:19:32Z</time>
      </trkpt>
      <trkpt lat="43.98778" lon="6.8319">
        <ele>1178.71</ele>
        <time>2025-03-08T11:19:47Z</time>
      </trkpt>
      <trkpt lat="43.98773" lon="6.83203">
        <ele>1180.16</ele>
        <time>2025-03-08T11:20:00Z</time>
      </trkpt>
      <trkpt lat="43.98767" lon="6.83214">
        <ele>1182.08</ele>
        <time>2025-03-08T11:20:11Z</time>
      </trkpt>
      <trkpt lat="43.98762" lon="6.83223">
        <ele>1182.56</ele>
        <time>2025-03-08T11:20:19Z</time>
      </trkpt>
      <trkpt lat="43.98756" lon="6.83234">
        <ele>1184.48</ele>
        <time>2025-03-08T11:20:30Z</time>
      </trkpt>
      <trkpt lat="43.9875" lon="6.83256">
        <ele>1185.44</ele>
        <time>2025-03-08T11:20:47Z</time>
      </trkpt>
      <trkpt lat="43.98745" lon="6.83276">
        <ele>1187.85</ele>
        <time>2025-03-08T11:21:02Z</time>
      </trkpt>
      <trkpt lat="43.98749" lon="6.83295">
        <ele>1189.29</ele>
        <time>2025-03-08T11:21:17Z</time>
      </trkpt>
      <trkpt lat="43.98749" lon="6.83298">
        <ele>1189.29</ele>
        <time>2025-03-08T11:21:19Z</time>
      </trkpt>
      <trkpt lat="43.98752" lon="6.83311">
        <ele>1189.77</ele>
        <time>2025-03-08T11:21:28Z</time>
      </trkpt>
      <trkpt lat="43.98752" lon="6.83325">
        <ele>1191.21</ele>
        <time>2025-03-08T11:21:38Z</time>
      </trkpt>
      <trkpt lat="43.98749" lon="6.8334">
        <ele>1192.17</ele>
        <time>2025-03-08T11:21:50Z</time>
      </trkpt>
      <trkpt lat="43.98742" lon="6.83329">
        <ele>1193.61</ele>
        <time>2025-03-08T11:22:03Z</time>
      </trkpt>
      <trkpt lat="43.98741" lon="6.83314">
        <ele>1195.06</ele>
        <time>2025-03-08T11:22:19Z</time>
      </trkpt>
      <trkpt lat="43.9874" lon="6.83303">
        <ele>1196.02</ele>
        <time>2025-03-08T11:22:31Z</time>
      </trkpt>
      <trkpt lat="43.9874" lon="6.83302">
        <ele>1196.02</ele>
        <time>2025-03-08T11:22:32Z</time>
      </trkpt>
      <trkpt lat="43.98732" lon="6.8328">
        <ele>1198.42</ele>
        <time>2025-03-08T11:22:50Z</time>
      </trkpt>
      <trkpt lat="43.98731" lon="6.83279">
        <ele>1198.42</ele>
        <time>2025-03-08T11:22:51Z</time>
      </trkpt>
      <trkpt lat="43.98728" lon="6.83273">
        <ele>1198.9</ele>
        <time>2025-03-08T11:22:56Z</time>
      </trkpt>
      <trkpt lat="43.98728" lon="6.8327">
        <ele>1199.38</ele>
        <time>2025-03-08T11:22:58Z</time>
      </trkpt>
      <trkpt lat="43.98726" lon="6.83265">
        <ele>1199.86</ele>
        <time>2025-03-08T11:23:02Z</time>
      </trkpt>
      <trkpt lat="43.98725" lon="6.83249">
        <ele>1201.79</ele>
        <time>2025-03-08T11:23:14Z</time>
      </trkpt>
      <trkpt lat="43.98727" lon="6.83234">
        <ele>1202.27</ele>
        <time>2025-03-08T11:23:26Z</time>
      </trkpt>
      <trkpt lat="43.98728" lon="6.83222">
        <ele>1203.23</ele>
        <time>2025-03-08T11:23:34Z</time>
      </trkpt>
      <trkpt lat="43.9873" lon="6.83207">
        <ele>1204.19</ele>
        <time>2025-03-08T11:23:45Z</time>
      </trkpt>
      <trkpt lat="43.98732" lon="6.83201">
        <ele>1204.67</ele>
        <time>2025-03-08T11:23:50Z</time>
      </trkpt>
      <trkpt lat="43.98736" lon="6.83179">
        <ele>1206.11</ele>
        <time>2025-03-08T11:24:06Z</time>
      </trkpt>
      <trkpt lat="43.98736" lon="6.83159">
        <ele>1207.55</ele>
        <time>2025-03-08T11:24:21Z</time>
      </trkpt>
      <trkpt lat="43.98735" lon="6.83151">
        <ele>1208.51</ele>
        <time>2025-03-08T11:24:27Z</time>
      </trkpt>
      <trkpt lat="43.98732" lon="6.83133">
        <ele>1210.44</ele>
        <time>2025-03-08T11:24:42Z</time>
      </trkpt>
      <trkpt lat="43.98726" lon="6.83116">
        <ele>1211.88</ele>
        <time>2025-03-08T11:24:57Z</time>
      </trkpt>
      <trkpt lat="43.98724" lon="6.83105">
        <ele>1212.84</ele>
        <time>2025-03-08T11:25:05Z</time>
      </trkpt>
      <trkpt lat="43.98722" lon="6.83102">
        <ele>1212.84</ele>
        <time>2025-03-08T11:25:07Z</time>
      </trkpt>
      <trkpt lat="43.98718" lon="6.83094">
        <ele>1213.8</ele>
        <time>2025-03-08T11:25:14Z</time>
      </trkpt>
      <trkpt lat="43.98711" lon="6.83079">
        <ele>1215.72</ele>
        <time>2025-03-08T11:25:29Z</time>
      </trkpt>
      <trkpt lat="43.98706" lon="6.83068">
        <ele>1216.69</ele>
        <time>2025-03-08T11:25:39Z</time>
      </trkpt>
      <trkpt lat="43.98703" lon="6.83048">
        <ele>1217.65</ele>
        <time>2025-03-08T11:25:55Z</time>
      </trkpt>
      <trkpt lat="43.98701" lon="6.83027">
        <ele>1219.57</ele>
        <time>2025-03-08T11:26:10Z</time>
      </trkpt>
      <trkpt lat="43.98699" lon="6.83002">
        <ele>1221.01</ele>
        <time>2025-03-08T11:26:27Z</time>
      </trkpt>
      <trkpt lat="43.98703" lon="6.82988">
        <ele>1222.93</ele>
        <time>2025-03-08T11:26:40Z</time>
      </trkpt>
      <trkpt lat="43.98707" lon="6.82981">
        <ele>1223.9</ele>
        <time>2025-03-08T11:26:47Z</time>
      </trkpt>
      <trkpt lat="43.98719" lon="6.82969">
        <ele>1225.34</ele>
        <time>2025-03-08T11:27:02Z</time>
      </trkpt>
      <trkpt lat="43.98722" lon="6.82962">
        <ele>1225.82</ele>
        <time>2025-03-08T11:27:08Z</time>
      </trkpt>
      <trkpt lat="43.9873" lon="6.8294">
        <ele>1226.78</ele>
        <time>2025-03-08T11:27:26Z</time>
      </trkpt>
      <trkpt lat="43.98732" lon="6.82934">
        <ele>1227.26</ele>
        <time>2025-03-08T11:27:31Z</time>
      </trkpt>
      <trkpt lat="43.98735" lon="6.8292">
        <ele>1227.26</ele>
        <time>2025-03-08T11:27:41Z</time>
      </trkpt>
      <trkpt lat="43.98737" lon="6.82911">
        <ele>1228.22</ele>
        <time>2025-03-08T11:27:48Z</time>
      </trkpt>
      <trkpt lat="43.98742" lon="6.82896">
        <ele>1229.18</ele>
        <time>2025-03-08T11:28:03Z</time>
      </trkpt>
      <trkpt lat="43.98748" lon="6.82883">
        <ele>1230.62</ele>
        <time>2025-03-08T11:28:13Z</time>
      </trkpt>
      <trkpt lat="43.98757" lon="6.82857">
        <ele>1231.59</ele>
        <time>2025-03-08T11:28:31Z</time>
      </trkpt>
      <trkpt lat="43.98762" lon="6.82831">
        <ele>1233.03</ele>
        <time>2025-03-08T11:28:50Z</time>
      </trkpt>
      <trkpt lat="43.98763" lon="6.8283">
        <ele>1233.51</ele>
        <time>2025-03-08T11:29:05Z</time>
      </trkpt>
      <trkpt lat="43.98764" lon="6.8281">
        <ele>1234.47</ele>
        <time>2025-03-08T11:29:20Z</time>
      </trkpt>
      <trkpt lat="43.9876" lon="6.82781">
        <ele>1236.39</ele>
        <time>2025-03-08T11:29:41Z</time>
      </trkpt>
      <trkpt lat="43.98758" lon="6.8276">
        <ele>1237.83</ele>
        <time>2025-03-08T11:29:54Z</time>
      </trkpt>
      <trkpt lat="43.98763" lon="6.82733">
        <ele>1239.76</ele>
        <time>2025-03-08T11:30:12Z</time>
      </trkpt>
      <trkpt lat="43.98764" lon="6.82732">
        <ele>1239.76</ele>
        <time>2025-03-08T11:30:13Z</time>
      </trkpt>
      <trkpt lat="43.98766" lon="6.82715">
        <ele>1240.24</ele>
        <time>2025-03-08T11:30:24Z</time>
      </trkpt>
      <trkpt lat="43.98768" lon="6.82706">
        <ele>1241.2</ele>
        <time>2025-03-08T11:30:30Z</time>
      </trkpt>
      <trkpt lat="43.98767" lon="6.82688">
        <ele>1242.16</ele>
        <time>2025-03-08T11:30:43Z</time>
      </trkpt>
      <trkpt lat="43.98762" lon="6.82677">
        <ele>1243.12</ele>
        <time>2025-03-08T11:30:52Z</time>
      </trkpt>
      <trkpt lat="43.98759" lon="6.82667">
        <ele>1244.08</ele>
        <time>2025-03-08T11:30:59Z</time>
      </trkpt>
      <trkpt lat="43.98755" lon="6.82655">
        <ele>1244.56</ele>
        <time>2025-03-08T11:31:09Z</time>
      </trkpt>
      <trkpt lat="43.98751" lon="6.82641">
        <ele>1246.01</ele>
        <time>2025-03-08T11:31:19Z</time>
      </trkpt>
      <trkpt lat="43.98747" lon="6.82633">
        <ele>1246.49</ele>
        <time>2025-03-08T11:31:26Z</time>
      </trkpt>
      <trkpt lat="43.9874" lon="6.82611">
        <ele>1247.93</ele>
        <time>2025-03-08T11:31:42Z</time>
      </trkpt>
      <trkpt lat="43.9874" lon="6.82587">
        <ele>1248.89</ele>
        <time>2025-03-08T11:31:59Z</time>
      </trkpt>
      <trkpt lat="43.98752" lon="6.82577">
        <ele>1250.33</ele>
        <time>2025-03-08T11:32:13Z</time>
      </trkpt>
      <trkpt lat="43.98761" lon="6.82576">
        <ele>1250.33</ele>
        <time>2025-03-08T11:32:21Z</time>
      </trkpt>
      <trkpt lat="43.98773" lon="6.82568">
        <ele>1250.81</ele>
        <time>2025-03-08T11:32:37Z</time>
      </trkpt>
      <trkpt lat="43.98776" lon="6.82564">
        <ele>1250.81</ele>
        <time>2025-03-08T11:32:41Z</time>
      </trkpt>
      <trkpt lat="43.98785" lon="6.82538">
        <ele>1250.81</ele>
        <time>2025-03-08T11:32:59Z</time>
      </trkpt>
      <trkpt lat="43.98789" lon="6.82511">
        <ele>1252.25</ele>
        <time>2025-03-08T11:33:17Z</time>
      </trkpt>
      <trkpt lat="43.98789" lon="6.82508">
        <ele>1252.74</ele>
        <time>2025-03-08T11:33:19Z</time>
      </trkpt>
      <trkpt lat="43.98792" lon="6.82492">
        <ele>1254.18</ele>
        <time>2025-03-08T11:33:36Z</time>
      </trkpt>
      <trkpt lat="43.98795" lon="6.82474">
        <ele>1255.14</ele>
        <time>2025-03-08T11:33:52Z</time>
      </trkpt>
      <trkpt lat="43.98795" lon="6.82468">
        <ele>1255.62</ele>
        <time>2025-03-08T11:34:06Z</time>
      </trkpt>
      <trkpt lat="43.988" lon="6.82446">
        <ele>1257.06</ele>
        <time>2025-03-08T11:34:22Z</time>
      </trkpt>
      <trkpt lat="43.98802" lon="6.82439">
        <ele>1258.02</ele>
        <time>2025-03-08T11:34:27Z</time>
      </trkpt>
      <trkpt lat="43.98806" lon="6.82427">
        <ele>1258.98</ele>
        <time>2025-03-08T11:34:36Z</time>
      </trkpt>
      <trkpt lat="43.98816" lon="6.82397">
        <ele>1261.39</ele>
        <time>2025-03-08T11:34:56Z</time>
      </trkpt>
      <trkpt lat="43.9882" lon="6.82371">
        <ele>1263.31</ele>
        <time>2025-03-08T11:35:14Z</time>
      </trkpt>
      <trkpt lat="43.98825" lon="6.82346">
        <ele>1264.75</ele>
        <time>2025-03-08T11:35:31Z</time>
      </trkpt>
      <trkpt lat="43.98826" lon="6.82344">
        <ele>1264.75</ele>
        <time>2025-03-08T11:35:33Z</time>
      </trkpt>
      <trkpt lat="43.98829" lon="6.82336">
        <ele>1265.23</ele>
        <time>2025-03-08T11:35:39Z</time>
      </trkpt>
      <trkpt lat="43.98834" lon="6.82317">
        <ele>1266.67</ele>
        <time>2025-03-08T11:35:53Z</time>
      </trkpt>
      <trkpt lat="43.98837" lon="6.82291">
        <ele>1268.12</ele>
        <time>2025-03-08T11:36:13Z</time>
      </trkpt>
      <trkpt lat="43.98841" lon="6.82265">
        <ele>1270.04</ele>
        <time>2025-03-08T11:36:31Z</time>
      </trkpt>
      <trkpt lat="43.98839" lon="6.82235">
        <ele>1271.96</ele>
        <time>2025-03-08T11:36:50Z</time>
      </trkpt>
      <trkpt lat="43.98837" lon="6.82207">
        <ele>1272.92</ele>
        <time>2025-03-08T11:37:08Z</time>
      </trkpt>
      <trkpt lat="43.98835" lon="6.82177">
        <ele>1273.88</ele>
        <time>2025-03-08T11:37:27Z</time>
      </trkpt>
      <trkpt lat="43.98849" lon="6.82152">
        <ele>1274.36</ele>
        <time>2025-03-08T11:37:45Z</time>
      </trkpt>
      <trkpt lat="43.98865" lon="6.82137">
        <ele>1275.33</ele>
        <time>2025-03-08T11:38:02Z</time>
      </trkpt>
      <trkpt lat="43.98879" lon="6.82109">
        <ele>1276.77</ele>
        <time>2025-03-08T11:38:24Z</time>
      </trkpt>
      <trkpt lat="43.98891" lon="6.8209">
        <ele>1277.73</ele>
        <time>2025-03-08T11:38:40Z</time>
      </trkpt>
      <trkpt lat="43.989" lon="6.82067">
        <ele>1279.65</ele>
        <time>2025-03-08T11:38:57Z</time>
      </trkpt>
      <trkpt lat="43.98907" lon="6.8204">
        <ele>1281.09</ele>
        <time>2025-03-08T11:39:16Z</time>
      </trkpt>
      <trkpt lat="43.98911" lon="6.82015">
        <ele>1282.54</ele>
        <time>2025-03-08T11:39:33Z</time>
      </trkpt>
      <trkpt lat="43.98915" lon="6.81995">
        <ele>1283.5</ele>
        <time>2025-03-08T11:39:48Z</time>
      </trkpt>
      <trkpt lat="43.98921" lon="6.81967">
        <ele>1284.94</ele>
        <time>2025-03-08T11:40:07Z</time>
      </trkpt>
      <trkpt lat="43.98921" lon="6.81961">
        <ele>1285.9</ele>
        <time>2025-03-08T11:40:11Z</time>
      </trkpt>
      <trkpt lat="43.98924" lon="6.81933">
        <ele>1288.3</ele>
        <time>2025-03-08T11:40:30Z</time>
      </trkpt>
      <trkpt lat="43.98924" lon="6.8192">
        <ele>1288.78</ele>
        <time>2025-03-08T11:40:42Z</time>
      </trkpt>
      <trkpt lat="43.98924" lon="6.81911">
        <ele>1289.27</ele>
        <time>2025-03-08T11:40:48Z</time>
      </trkpt>
      <trkpt lat="43.98924" lon="6.81884">
        <ele>1290.71</ele>
        <time>2025-03-08T11:41:07Z</time>
      </trkpt>
      <trkpt lat="43.98924" lon="6.81875">
        <ele>1291.19</ele>
        <time>2025-03-08T11:41:13Z</time>
      </trkpt>
      <trkpt lat="43.98924" lon="6.81863">
        <ele>1291.67</ele>
        <time>2025-03-08T11:41:21Z</time>
      </trkpt>
      <trkpt lat="43.98923" lon="6.81847">
        <ele>1293.11</ele>
        <time>2025-03-08T11:41:32Z</time>
      </trkpt>
      <trkpt lat="43.98922" lon="6.81829">
        <ele>1294.07</ele>
        <time>2025-03-08T11:41:44Z</time>
      </trkpt>
      <trkpt lat="43.98921" lon="6.81809">
        <ele>1295.51</ele>
        <time>2025-03-08T11:41:58Z</time>
      </trkpt>
      <trkpt lat="43.98919" lon="6.81788">
        <ele>1296.48</ele>
        <time>2025-03-08T11:42:13Z</time>
      </trkpt>
      <trkpt lat="43.98919" lon="6.81774">
        <ele>1297.44</ele>
        <time>2025-03-08T11:42:23Z</time>
      </trkpt>
      <trkpt lat="43.98919" lon="6.81749">
        <ele>1299.36</ele>
        <time>2025-03-08T11:42:40Z</time>
      </trkpt>
      <trkpt lat="43.98921" lon="6.81726">
        <ele>1300.32</ele>
        <time>2025-03-08T11:42:56Z</time>
      </trkpt>
      <trkpt lat="43.98922" lon="6.8172">
        <ele>1300.8</ele>
        <time>2025-03-08T11:43:00Z</time>
      </trkpt>
      <trkpt lat="43.98924" lon="6.81696">
        <ele>1301.76</ele>
        <time>2025-03-08T11:43:17Z</time>
      </trkpt>
      <trkpt lat="43.98924" lon="6.81693">
        <ele>1302.24</ele>
        <time>2025-03-08T11:43:19Z</time>
      </trkpt>
      <trkpt lat="43.98926" lon="6.81684">
        <ele>1302.72</ele>
        <time>2025-03-08T11:43:38Z</time>
      </trkpt>
      <trkpt lat="43.98929" lon="6.81673">
        <ele>1303.2</ele>
        <time>2025-03-08T11:43:51Z</time>
      </trkpt>
      <trkpt lat="43.98935" lon="6.81655">
        <ele>1303.69</ele>
        <time>2025-03-08T11:44:05Z</time>
      </trkpt>
      <trkpt lat="43.98937" lon="6.8165">
        <ele>1304.17</ele>
        <time>2025-03-08T11:44:09Z</time>
      </trkpt>
      <trkpt lat="43.9894" lon="6.81632">
        <ele>1305.61</ele>
        <time>2025-03-08T11:44:22Z</time>
      </trkpt>
      <trkpt lat="43.98945" lon="6.81605">
        <ele>1308.01</ele>
        <time>2025-03-08T11:44:40Z</time>
      </trkpt>
      <trkpt lat="43.9895" lon="6.81579">
        <ele>1309.93</ele>
        <time>2025-03-08T11:44:58Z</time>
      </trkpt>
      <trkpt lat="43.98951" lon="6.81571">
        <ele>1309.45</ele>
        <time>2025-03-08T11:45:04Z</time>
      </trkpt>
      <trkpt lat="43.98955" lon="6.81546">
        <ele>1310.9</ele>
        <time>2025-03-08T11:45:23Z</time>
      </trkpt>
      <trkpt lat="43.98955" lon="6.81544">
        <ele>1311.38</ele>
        <time>2025-03-08T11:45:25Z</time>
      </trkpt>
      <trkpt lat="43.98957" lon="6.81539">
        <ele>1311.38</ele>
        <time>2025-03-08T11:45:29Z</time>
      </trkpt>
      <trkpt lat="43.98961" lon="6.81515">
        <ele>1313.3</ele>
        <time>2025-03-08T11:45:46Z</time>
      </trkpt>
      <trkpt lat="43.98962" lon="6.8151">
        <ele>1313.78</ele>
        <time>2025-03-08T11:45:49Z</time>
      </trkpt>
      <trkpt lat="43.98969" lon="6.81487">
        <ele>1315.22</ele>
        <time>2025-03-08T11:46:07Z</time>
      </trkpt>
      <trkpt lat="43.9898" lon="6.81463">
        <ele>1316.66</ele>
        <time>2025-03-08T11:46:26Z</time>
      </trkpt>
      <trkpt lat="43.98997" lon="6.8144">
        <ele>1319.07</ele>
        <time>2025-03-08T11:46:47Z</time>
      </trkpt>
      <trkpt lat="43.99007" lon="6.81411">
        <ele>1319.55</ele>
        <time>2025-03-08T11:47:08Z</time>
      </trkpt>
      <trkpt lat="43.99011" lon="6.81389">
        <ele>1320.99</ele>
        <time>2025-03-08T11:47:23Z</time>
      </trkpt>
      <trkpt lat="43.99013" lon="6.81362">
        <ele>1322.91</ele>
        <time>2025-03-08T11:47:41Z</time>
      </trkpt>
      <trkpt lat="43.99014" lon="6.81353">
        <ele>1323.39</ele>
        <time>2025-03-08T11:47:47Z</time>
      </trkpt>
      <trkpt lat="43.9901" lon="6.81329">
        <ele>1324.83</ele>
        <time>2025-03-08T11:48:04Z</time>
      </trkpt>
      <trkpt lat="43.9901" lon="6.81328">
        <ele>1325.8</ele>
        <time>2025-03-08T11:48:05Z</time>
      </trkpt>
      <trkpt lat="43.99009" lon="6.81313">
        <ele>1326.28</ele>
        <time>2025-03-08T11:48:16Z</time>
      </trkpt>
      <trkpt lat="43.99009" lon="6.81297">
        <ele>1327.24</ele>
        <time>2025-03-08T11:48:31Z</time>
      </trkpt>
      <trkpt lat="43.99009" lon="6.81289">
        <ele>1327.72</ele>
        <time>2025-03-08T11:48:36Z</time>
      </trkpt>
      <trkpt lat="43.99011" lon="6.81269">
        <ele>1329.64</ele>
        <time>2025-03-08T11:48:53Z</time>
      </trkpt>
      <trkpt lat="43.99012" lon="6.81253">
        <ele>1330.6</ele>
        <time>2025-03-08T11:49:06Z</time>
      </trkpt>
      <trkpt lat="43.99013" lon="6.81253">
        <ele>1329.64</ele>
        <time>2025-03-08T11:49:16Z</time>
      </trkpt>
      <trkpt lat="43.99012" lon="6.81251">
        <ele>1331.08</ele>
        <time>2025-03-08T11:49:34Z</time>
      </trkpt>
      <trkpt lat="43.99013" lon="6.8124">
        <ele>1331.56</ele>
        <time>2025-03-08T11:49:43Z</time>
      </trkpt>
      <trkpt lat="43.9901" lon="6.8121">
        <ele>1333.01</ele>
        <time>2025-03-08T11:50:03Z</time>
      </trkpt>
      <trkpt lat="43.99004" lon="6.81184">
        <ele>1334.93</ele>
        <time>2025-03-08T11:50:21Z</time>
      </trkpt>
      <trkpt lat="43.98996" lon="6.81163">
        <ele>1337.33</ele>
        <time>2025-03-08T11:50:38Z</time>
      </trkpt>
      <trkpt lat="43.98988" lon="6.81139">
        <ele>1338.29</ele>
        <time>2025-03-08T11:50:56Z</time>
      </trkpt>
      <trkpt lat="43.98984" lon="6.81114">
        <ele>1340.22</ele>
        <time>2025-03-08T11:51:12Z</time>
      </trkpt>
      <trkpt lat="43.98985" lon="6.81087">
        <ele>1342.14</ele>
        <time>2025-03-08T11:51:31Z</time>
      </trkpt>
      <trkpt lat="43.98987" lon="6.81071">
        <ele>1343.1</ele>
        <time>2025-03-08T11:51:45Z</time>
      </trkpt>
      <trkpt lat="43.9899" lon="6.8104">
        <ele>1345.02</ele>
        <time>2025-03-08T11:52:06Z</time>
      </trkpt>
      <trkpt lat="43.98993" lon="6.81022">
        <ele>1345.98</ele>
        <time>2025-03-08T11:52:22Z</time>
      </trkpt>
      <trkpt lat="43.98993" lon="6.81019">
        <ele>1346.46</ele>
        <time>2025-03-08T11:52:38Z</time>
      </trkpt>
      <trkpt lat="43.98999" lon="6.81">
        <ele>1347.43</ele>
        <time>2025-03-08T11:52:55Z</time>
      </trkpt>
      <trkpt lat="43.99009" lon="6.80977">
        <ele>1349.35</ele>
        <time>2025-03-08T11:53:14Z</time>
      </trkpt>
      <trkpt lat="43.99018" lon="6.80949">
        <ele>1351.75</ele>
        <time>2025-03-08T11:53:34Z</time>
      </trkpt>
      <trkpt lat="43.99018" lon="6.80928">
        <ele>1353.19</ele>
        <time>2025-03-08T11:53:48Z</time>
      </trkpt>
      <trkpt lat="43.99017" lon="6.80911">
        <ele>1354.15</ele>
        <time>2025-03-08T11:54:00Z</time>
      </trkpt>
      <trkpt lat="43.99015" lon="6.80886">
        <ele>1355.6</ele>
        <time>2025-03-08T11:54:18Z</time>
      </trkpt>
      <trkpt lat="43.99015" lon="6.80885">
        <ele>1355.6</ele>
        <time>2025-03-08T11:54:19Z</time>
      </trkpt>
      <trkpt lat="43.99014" lon="6.80867">
        <ele>1357.04</ele>
        <time>2025-03-08T11:54:31Z</time>
      </trkpt>
      <trkpt lat="43.99015" lon="6.80856">
        <ele>1358</ele>
        <time>2025-03-08T11:54:39Z</time>
      </trkpt>
      <trkpt lat="43.99014" lon="6.80845">
        <ele>1358.48</ele>
        <time>2025-03-08T11:54:48Z</time>
      </trkpt>
      <trkpt lat="43.99006" lon="6.80836">
        <ele>1359.44</ele>
        <time>2025-03-08T11:55:02Z</time>
      </trkpt>
      <trkpt lat="43.99005" lon="6.80836">
        <ele>1359.44</ele>
        <time>2025-03-08T11:55:04Z</time>
      </trkpt>
      <trkpt lat="43.99003" lon="6.80838">
        <ele>1359.92</ele>
        <time>2025-03-08T11:55:07Z</time>
      </trkpt>
      <trkpt lat="43.98999" lon="6.80849">
        <ele>1360.88</ele>
        <time>2025-03-08T11:55:15Z</time>
      </trkpt>
      <trkpt lat="43.98996" lon="6.80882">
        <ele>1362.81</ele>
        <time>2025-03-08T11:55:37Z</time>
      </trkpt>
      <trkpt lat="43.98996" lon="6.80889">
        <ele>1363.29</ele>
        <time>2025-03-08T11:55:52Z</time>
      </trkpt>
      <trkpt lat="43.98994" lon="6.80902">
        <ele>1363.77</ele>
        <time>2025-03-08T11:56:03Z</time>
      </trkpt>
      <trkpt lat="43.98993" lon="6.80915">
        <ele>1364.25</ele>
        <time>2025-03-08T11:56:20Z</time>
      </trkpt>
      <trkpt lat="43.98992" lon="6.80926">
        <ele>1364.73</ele>
        <time>2025-03-08T11:56:37Z</time>
      </trkpt>
      <trkpt lat="43.98987" lon="6.80954">
        <ele>1366.65</ele>
        <time>2025-03-08T11:56:55Z</time>
      </trkpt>
      <trkpt lat="43.98984" lon="6.80965">
        <ele>1367.61</ele>
        <time>2025-03-08T11:57:02Z</time>
      </trkpt>
      <trkpt lat="43.98983" lon="6.80968">
        <ele>1367.61</ele>
        <time>2025-03-08T11:57:04Z</time>
      </trkpt>
      <trkpt lat="43.98971" lon="6.80993">
        <ele>1369.05</ele>
        <time>2025-03-08T11:57:23Z</time>
      </trkpt>
      <trkpt lat="43.98963" lon="6.81007">
        <ele>1370.02</ele>
        <time>2025-03-08T11:57:39Z</time>
      </trkpt>
      <trkpt lat="43.98954" lon="6.81033">
        <ele>1371.46</ele>
        <time>2025-03-08T11:57:58Z</time>
      </trkpt>
      <trkpt lat="43.98949" lon="6.81038">
        <ele>1373.38</ele>
        <time>2025-03-08T11:58:10Z</time>
      </trkpt>
      <trkpt lat="43.98944" lon="6.81036">
        <ele>1374.82</ele>
        <time>2025-03-08T11:58:24Z</time>
      </trkpt>
      <trkpt lat="43.98944" lon="6.81035">
        <ele>1374.82</ele>
        <time>2025-03-08T11:58:40Z</time>
      </trkpt>
      <trkpt lat="43.98942" lon="6.81038">
        <ele>1374.82</ele>
        <time>2025-03-08T11:59:08Z</time>
      </trkpt>
      <trkpt lat="43.98938" lon="6.81042">
        <ele>1375.3</ele>
        <time>2025-03-08T11:59:14Z</time>
      </trkpt>
      <trkpt lat="43.98937" lon="6.81041">
        <ele>1375.3</ele>
        <time>2025-03-08T11:59:16Z</time>
      </trkpt>
      <trkpt lat="43.98936" lon="6.81036">
        <ele>1375.78</ele>
        <time>2025-03-08T11:59:28Z</time>
      </trkpt>
      <trkpt lat="43.98934" lon="6.81037">
        <ele>1375.78</ele>
        <time>2025-03-08T11:59:51Z</time>
      </trkpt>
      <trkpt lat="43.98923" lon="6.81035">
        <ele>1376.75</ele>
        <time>2025-03-08T12:00:06Z</time>
      </trkpt>
      <trkpt lat="43.98927" lon="6.81035">
        <ele>1376.75</ele>
        <time>2025-03-08T12:00:17Z</time>
      </trkpt>
      <trkpt lat="43.98927" lon="6.81036">
        <ele>1376.75</ele>
        <time>2025-03-08T12:00:18Z</time>
      </trkpt>
      <trkpt lat="43.98932" lon="6.81038">
        <ele>1376.75</ele>
        <time>2025-03-08T12:00:24Z</time>
      </trkpt>
      <trkpt lat="43.98943" lon="6.81041">
        <ele>1376.75</ele>
        <time>2025-03-08T12:00:38Z</time>
      </trkpt>
      <trkpt lat="43.98943" lon="6.81041">
        <ele>1375.3</ele>
        <time>2025-03-08T12:00:41Z</time>
      </trkpt>
      <trkpt lat="43.98946" lon="6.8104">
        <ele>1374.34</ele>
        <time>2025-03-08T12:00:55Z</time>
      </trkpt>
      <trkpt lat="43.98945" lon="6.8104">
        <ele>1374.34</ele>
        <time>2025-03-08T12:01:21Z</time>
      </trkpt>
      <trkpt lat="43.98946" lon="6.8104">
        <ele>1374.34</ele>
        <time>2025-03-08T12:01:53Z</time>
      </trkpt>
      <trkpt lat="43.98948" lon="6.81037">
        <ele>1374.34</ele>
        <time>2025-03-08T12:02:27Z</time>
      </trkpt>
      <trkpt lat="43.98948" lon="6.81038">
        <ele>1374.34</ele>
        <time>2025-03-08T12:03:06Z</time>
      </trkpt>
      <trkpt lat="43.98946" lon="6.81038">
        <ele>1374.34</ele>
        <time>2025-03-08T12:03:35Z</time>
      </trkpt>
      <trkpt lat="43.98944" lon="6.81039">
        <ele>1374.82</ele>
        <time>2025-03-08T12:04:00Z</time>
      </trkpt>
      <trkpt lat="43.98945" lon="6.8104">
        <ele>1373.86</ele>
        <time>2025-03-08T12:04:21Z</time>
      </trkpt>
      <trkpt lat="43.98941" lon="6.81036">
        <ele>1373.86</ele>
        <time>2025-03-08T12:04:52Z</time>
      </trkpt>
      <trkpt lat="43.98943" lon="6.8104">
        <ele>1373.38</ele>
        <time>2025-03-08T12:05:27Z</time>
      </trkpt>
      <trkpt lat="43.9894" lon="6.81039">
        <ele>1373.38</ele>
        <time>2025-03-08T12:05:52Z</time>
      </trkpt>
      <trkpt lat="43.98941" lon="6.81038">
        <ele>1373.38</ele>
        <time>2025-03-08T12:06:22Z</time>
      </trkpt>
      <trkpt lat="43.98943" lon="6.81035">
        <ele>1372.9</ele>
        <time>2025-03-08T12:06:54Z</time>
      </trkpt>
      <trkpt lat="43.98943" lon="6.81036">
        <ele>1372.9</ele>
        <time>2025-03-08T12:07:11Z</time>
      </trkpt>
      <trkpt lat="43.98942" lon="6.81036">
        <ele>1374.34</ele>
        <time>2025-03-08T12:07:18Z</time>
      </trkpt>
      <trkpt lat="43.98943" lon="6.81035">
        <ele>1373.86</ele>
        <time>2025-03-08T12:07:57Z</time>
      </trkpt>
      <trkpt lat="43.98944" lon="6.81034">
        <ele>1373.86</ele>
        <time>2025-03-08T12:08:41Z</time>
      </trkpt>
      <trkpt lat="43.98943" lon="6.8104">
        <ele>1373.86</ele>
        <time>2025-03-08T12:09:14Z</time>
      </trkpt>
      <trkpt lat="43.98947" lon="6.81038">
        <ele>1373.86</ele>
        <time>2025-03-08T12:09:50Z</time>
      </trkpt>
      <trkpt lat="43.98946" lon="6.81041">
        <ele>1374.34</ele>
        <time>2025-03-08T12:10:30Z</time>
      </trkpt>
      <trkpt lat="43.98945" lon="6.8104">
        <ele>1374.34</ele>
        <time>2025-03-08T12:11:03Z</time>
      </trkpt>
      <trkpt lat="43.98946" lon="6.8104">
        <ele>1374.34</ele>
        <time>2025-03-08T12:11:35Z</time>
      </trkpt>
      <trkpt lat="43.98945" lon="6.8104">
        <ele>1373.86</ele>
        <time>2025-03-08T12:12:12Z</time>
      </trkpt>
      <trkpt lat="43.98942" lon="6.81042">
        <ele>1373.86</ele>
        <time>2025-03-08T12:12:53Z</time>
      </trkpt>
      <trkpt lat="43.98945" lon="6.81037">
        <ele>1373.86</ele>
        <time>2025-03-08T12:13:34Z</time>
      </trkpt>
      <trkpt lat="43.98942" lon="6.81041">
        <ele>1374.34</ele>
        <time>2025-03-08T12:14:15Z</time>
      </trkpt>
      <trkpt lat="43.98942" lon="6.81038">
        <ele>1374.34</ele>
        <time>2025-03-08T12:14:50Z</time>
      </trkpt>
      <trkpt lat="43.98944" lon="6.8104">
        <ele>1374.34</ele>
        <time>2025-03-08T12:15:34Z</time>
      </trkpt>
      <trkpt lat="43.98946" lon="6.81037">
        <ele>1374.34</ele>
        <time>2025-03-08T12:16:11Z</time>
      </trkpt>
      <trkpt lat="43.98948" lon="6.81037">
        <ele>1374.82</ele>
        <time>2025-03-08T12:16:55Z</time>
      </trkpt>
      <trkpt lat="43.98944" lon="6.8104">
        <ele>1373.86</ele>
        <time>2025-03-08T12:17:31Z</time>
      </trkpt>
      <trkpt lat="43.98944" lon="6.81041">
        <ele>1375.3</ele>
        <time>2025-03-08T12:17:48Z</time>
      </trkpt>
      <trkpt lat="43.98945" lon="6.81042">
        <ele>1375.3</ele>
        <time>2025-03-08T12:18:18Z</time>
      </trkpt>
      <trkpt lat="43.98944" lon="6.8104">
        <ele>1375.3</ele>
        <time>2025-03-08T12:18:56Z</time>
      </trkpt>
      <trkpt lat="43.98945" lon="6.81041">
        <ele>1375.3</ele>
        <time>2025-03-08T12:19:20Z</time>
      </trkpt>
      <trkpt lat="43.98944" lon="6.81038">
        <ele>1375.3</ele>
        <time>2025-03-08T12:19:49Z</time>
      </trkpt>
      <trkpt lat="43.98944" lon="6.81039">
        <ele>1374.34</ele>
        <time>2025-03-08T12:20:11Z</time>
      </trkpt>
      <trkpt lat="43.98946" lon="6.81039">
        <ele>1376.75</ele>
        <time>2025-03-08T12:20:42Z</time>
      </trkpt>
      <trkpt lat="43.98946" lon="6.81035">
        <ele>1377.23</ele>
        <time>2025-03-08T12:21:05Z</time>
      </trkpt>
      <trkpt lat="43.98943" lon="6.81039">
        <ele>1378.19</ele>
        <time>2025-03-08T12:21:20Z</time>
      </trkpt>
      <trkpt lat="43.98933" lon="6.81051">
        <ele>1379.15</ele>
        <time>2025-03-08T12:21:36Z</time>
      </trkpt>
      <trkpt lat="43.98931" lon="6.81062">
        <ele>1379.63</ele>
        <time>2025-03-08T12:21:49Z</time>
      </trkpt>
      <trkpt lat="43.98928" lon="6.8108">
        <ele>1381.07</ele>
        <time>2025-03-08T12:22:05Z</time>
      </trkpt>
      <trkpt lat="43.98926" lon="6.81097">
        <ele>1381.07</ele>
        <time>2025-03-08T12:22:20Z</time>
      </trkpt>
      <trkpt lat="43.98925" lon="6.81102">
        <ele>1381.07</ele>
        <time>2025-03-08T12:22:24Z</time>
      </trkpt>
      <trkpt lat="43.98919" lon="6.81122">
        <ele>1382.03</ele>
        <time>2025-03-08T12:22:39Z</time>
      </trkpt>
      <trkpt lat="43.98913" lon="6.81142">
        <ele>1383.96</ele>
        <time>2025-03-08T12:22:54Z</time>
      </trkpt>
      <trkpt lat="43.9891" lon="6.81158">
        <ele>1384.44</ele>
        <time>2025-03-08T12:23:05Z</time>
      </trkpt>
      <trkpt lat="43.98906" lon="6.81176">
        <ele>1385.88</ele>
        <time>2025-03-08T12:23:20Z</time>
      </trkpt>
      <trkpt lat="43.98901" lon="6.81183">
        <ele>1386.36</ele>
        <time>2025-03-08T12:23:27Z</time>
      </trkpt>
      <trkpt lat="43.98897" lon="6.81201">
        <ele>1386.84</ele>
        <time>2025-03-08T12:23:41Z</time>
      </trkpt>
      <trkpt lat="43.98896" lon="6.81219">
        <ele>1387.32</ele>
        <time>2025-03-08T12:23:56Z</time>
      </trkpt>
      <trkpt lat="43.98898" lon="6.81233">
        <ele>1385.88</ele>
        <time>2025-03-08T12:24:06Z</time>
      </trkpt>
      <trkpt lat="43.98898" lon="6.8124">
        <ele>1385.88</ele>
        <time>2025-03-08T12:24:10Z</time>
      </trkpt>
      <trkpt lat="43.98906" lon="6.81269">
        <ele>1385.4</ele>
        <time>2025-03-08T12:24:29Z</time>
      </trkpt>
      <trkpt lat="43.98907" lon="6.81275">
        <ele>1385.4</ele>
        <time>2025-03-08T12:24:33Z</time>
      </trkpt>
      <trkpt lat="43.98902" lon="6.81311">
        <ele>1384.92</ele>
        <time>2025-03-08T12:24:52Z</time>
      </trkpt>
      <trkpt lat="43.98895" lon="6.81347">
        <ele>1384.92</ele>
        <time>2025-03-08T12:25:10Z</time>
      </trkpt>
      <trkpt lat="43.98885" lon="6.81369">
        <ele>1384.92</ele>
        <time>2025-03-08T12:25:24Z</time>
      </trkpt>
      <trkpt lat="43.98874" lon="6.814">
        <ele>1385.88</ele>
        <time>2025-03-08T12:25:43Z</time>
      </trkpt>
      <trkpt lat="43.98873" lon="6.81401">
        <ele>1385.88</ele>
        <time>2025-03-08T12:25:44Z</time>
      </trkpt>
      <trkpt lat="43.98859" lon="6.81434">
        <ele>1386.84</ele>
        <time>2025-03-08T12:26:05Z</time>
      </trkpt>
      <trkpt lat="43.98846" lon="6.81459">
        <ele>1387.32</ele>
        <time>2025-03-08T12:26:22Z</time>
      </trkpt>
      <trkpt lat="43.9883" lon="6.81483">
        <ele>1389.24</ele>
        <time>2025-03-08T12:26:40Z</time>
      </trkpt>
      <trkpt lat="43.98819" lon="6.8151">
        <ele>1391.17</ele>
        <time>2025-03-08T12:26:59Z</time>
      </trkpt>
      <trkpt lat="43.9881" lon="6.81537">
        <ele>1392.61</ele>
        <time>2025-03-08T12:27:18Z</time>
      </trkpt>
      <trkpt lat="43.98799" lon="6.81568">
        <ele>1394.05</ele>
        <time>2025-03-08T12:27:39Z</time>
      </trkpt>
      <trkpt lat="43.98789" lon="6.81595">
        <ele>1394.53</ele>
        <time>2025-03-08T12:27:57Z</time>
      </trkpt>
      <trkpt lat="43.98786" lon="6.81613">
        <ele>1394.53</ele>
        <time>2025-03-08T12:28:13Z</time>
      </trkpt>
      <trkpt lat="43.98785" lon="6.81617">
        <ele>1393.09</ele>
        <time>2025-03-08T12:28:28Z</time>
      </trkpt>
      <trkpt lat="43.98786" lon="6.81619">
        <ele>1393.09</ele>
        <time>2025-03-08T12:28:44Z</time>
      </trkpt>
      <trkpt lat="43.98784" lon="6.81644">
        <ele>1392.13</ele>
        <time>2025-03-08T12:29:01Z</time>
      </trkpt>
      <trkpt lat="43.98787" lon="6.8166">
        <ele>1391.65</ele>
        <time>2025-03-08T12:29:16Z</time>
      </trkpt>
      <trkpt lat="43.98786" lon="6.81663">
        <ele>1391.17</ele>
        <time>2025-03-08T12:29:22Z</time>
      </trkpt>
      <trkpt lat="43.98785" lon="6.81695">
        <ele>1390.2</ele>
        <time>2025-03-08T12:29:40Z</time>
      </trkpt>
      <trkpt lat="43.98778" lon="6.81727">
        <ele>1388.28</ele>
        <time>2025-03-08T12:29:58Z</time>
      </trkpt>
      <trkpt lat="43.98771" lon="6.81757">
        <ele>1385.4</ele>
        <time>2025-03-08T12:30:14Z</time>
      </trkpt>
      <trkpt lat="43.98764" lon="6.81789">
        <ele>1382.51</ele>
        <time>2025-03-08T12:30:32Z</time>
      </trkpt>
      <trkpt lat="43.98756" lon="6.81821">
        <ele>1380.59</ele>
        <time>2025-03-08T12:30:50Z</time>
      </trkpt>
      <trkpt lat="43.98748" lon="6.8186">
        <ele>1379.63</ele>
        <time>2025-03-08T12:31:10Z</time>
      </trkpt>
      <trkpt lat="43.98747" lon="6.81872">
        <ele>1379.63</ele>
        <time>2025-03-08T12:31:16Z</time>
      </trkpt>
      <trkpt lat="43.9873" lon="6.81904">
        <ele>1379.63</ele>
        <time>2025-03-08T12:31:37Z</time>
      </trkpt>
      <trkpt lat="43.98717" lon="6.81931">
        <ele>1379.63</ele>
        <time>2025-03-08T12:31:54Z</time>
      </trkpt>
      <trkpt lat="43.98706" lon="6.81951">
        <ele>1381.07</ele>
        <time>2025-03-08T12:32:07Z</time>
      </trkpt>
      <trkpt lat="43.98688" lon="6.81975">
        <ele>1381.55</ele>
        <time>2025-03-08T12:32:25Z</time>
      </trkpt>
      <trkpt lat="43.98677" lon="6.82004">
        <ele>1382.51</ele>
        <time>2025-03-08T12:32:44Z</time>
      </trkpt>
      <trkpt lat="43.98657" lon="6.82034">
        <ele>1382.51</ele>
        <time>2025-03-08T12:33:06Z</time>
      </trkpt>
      <trkpt lat="43.98635" lon="6.82055">
        <ele>1383.47</ele>
        <time>2025-03-08T12:33:27Z</time>
      </trkpt>
      <trkpt lat="43.98617" lon="6.82067">
        <ele>1382.99</ele>
        <time>2025-03-08T12:33:47Z</time>
      </trkpt>
      <trkpt lat="43.98617" lon="6.8207">
        <ele>1382.99</ele>
        <time>2025-03-08T12:34:01Z</time>
      </trkpt>
      <trkpt lat="43.98617" lon="6.82074">
        <ele>1382.99</ele>
        <time>2025-03-08T12:34:14Z</time>
      </trkpt>
      <trkpt lat="43.98612" lon="6.8208">
        <ele>1384.44</ele>
        <time>2025-03-08T12:34:28Z</time>
      </trkpt>
      <trkpt lat="43.98613" lon="6.82081">
        <ele>1385.4</ele>
        <time>2025-03-08T12:34:42Z</time>
      </trkpt>
      <trkpt lat="43.98614" lon="6.82082">
        <ele>1385.4</ele>
        <time>2025-03-08T12:34:59Z</time>
      </trkpt>
      <trkpt lat="43.98607" lon="6.8209">
        <ele>1385.88</ele>
        <time>2025-03-08T12:35:23Z</time>
      </trkpt>
      <trkpt lat="43.98602" lon="6.821">
        <ele>1387.8</ele>
        <time>2025-03-08T12:35:38Z</time>
      </trkpt>
      <trkpt lat="43.98601" lon="6.82103">
        <ele>1388.28</ele>
        <time>2025-03-08T12:35:49Z</time>
      </trkpt>
      <trkpt lat="43.98601" lon="6.82103">
        <ele>1386.84</ele>
        <time>2025-03-08T12:35:55Z</time>
      </trkpt>
      <trkpt lat="43.98598" lon="6.82103">
        <ele>1386.84</ele>
        <time>2025-03-08T12:36:20Z</time>
      </trkpt>
      <trkpt lat="43.98598" lon="6.82103">
        <ele>1388.28</ele>
        <time>2025-03-08T12:36:31Z</time>
      </trkpt>
      <trkpt lat="43.98599" lon="6.82102">
        <ele>1388.28</ele>
        <time>2025-03-08T12:36:50Z</time>
      </trkpt>
      <trkpt lat="43.98596" lon="6.82108">
        <ele>1389.24</ele>
        <time>2025-03-08T12:37:10Z</time>
      </trkpt>
      <trkpt lat="43.98589" lon="6.82121">
        <ele>1392.13</ele>
        <time>2025-03-08T12:37:24Z</time>
      </trkpt>
      <trkpt lat="43.98582" lon="6.82131">
        <ele>1395.49</ele>
        <time>2025-03-08T12:37:40Z</time>
      </trkpt>
      <trkpt lat="43.98578" lon="6.82136">
        <ele>1396.93</ele>
        <time>2025-03-08T12:37:56Z</time>
      </trkpt>
      <trkpt lat="43.98574" lon="6.82144">
        <ele>1399.82</ele>
        <time>2025-03-08T12:38:11Z</time>
      </trkpt>
      <trkpt lat="43.9857" lon="6.82151">
        <ele>1401.74</ele>
        <time>2025-03-08T12:38:25Z</time>
      </trkpt>
      <trkpt lat="43.98567" lon="6.82156">
        <ele>1403.18</ele>
        <time>2025-03-08T12:38:37Z</time>
      </trkpt>
      <trkpt lat="43.98563" lon="6.82163">
        <ele>1404.62</ele>
        <time>2025-03-08T12:38:50Z</time>
      </trkpt>
      <trkpt lat="43.9856" lon="6.82167">
        <ele>1406.07</ele>
        <time>2025-03-08T12:39:02Z</time>
      </trkpt>
      <trkpt lat="43.98557" lon="6.82172">
        <ele>1407.99</ele>
        <time>2025-03-08T12:39:16Z</time>
      </trkpt>
      <trkpt lat="43.98553" lon="6.82178">
        <ele>1409.43</ele>
        <time>2025-03-08T12:39:30Z</time>
      </trkpt>
      <trkpt lat="43.9855" lon="6.82187">
        <ele>1412.31</ele>
        <time>2025-03-08T12:39:48Z</time>
      </trkpt>
      <trkpt lat="43.98547" lon="6.82193">
        <ele>1414.24</ele>
        <time>2025-03-08T12:40:02Z</time>
      </trkpt>
      <trkpt lat="43.98543" lon="6.822">
        <ele>1416.64</ele>
        <time>2025-03-08T12:40:17Z</time>
      </trkpt>
      <trkpt lat="43.98539" lon="6.82208">
        <ele>1418.08</ele>
        <time>2025-03-08T12:40:31Z</time>
      </trkpt>
      <trkpt lat="43.98533" lon="6.82214">
        <ele>1420</ele>
        <time>2025-03-08T12:40:45Z</time>
      </trkpt>
      <trkpt lat="43.9853" lon="6.82222">
        <ele>1421.93</ele>
        <time>2025-03-08T12:40:58Z</time>
      </trkpt>
      <trkpt lat="43.98525" lon="6.82234">
        <ele>1424.33</ele>
        <time>2025-03-08T12:41:11Z</time>
      </trkpt>
      <trkpt lat="43.98518" lon="6.82252">
        <ele>1425.77</ele>
        <time>2025-03-08T12:41:28Z</time>
      </trkpt>
      <trkpt lat="43.98516" lon="6.8227">
        <ele>1427.21</ele>
        <time>2025-03-08T12:41:44Z</time>
      </trkpt>
      <trkpt lat="43.98516" lon="6.8229">
        <ele>1429.14</ele>
        <time>2025-03-08T12:42:01Z</time>
      </trkpt>
      <trkpt lat="43.98513" lon="6.82311">
        <ele>1431.06</ele>
        <time>2025-03-08T12:42:17Z</time>
      </trkpt>
      <trkpt lat="43.98507" lon="6.82327">
        <ele>1432.98</ele>
        <time>2025-03-08T12:42:31Z</time>
      </trkpt>
      <trkpt lat="43.98503" lon="6.8234">
        <ele>1433.46</ele>
        <time>2025-03-08T12:42:44Z</time>
      </trkpt>
      <trkpt lat="43.985" lon="6.82359">
        <ele>1435.39</ele>
        <time>2025-03-08T12:43:00Z</time>
      </trkpt>
      <trkpt lat="43.98496" lon="6.82377">
        <ele>1437.31</ele>
        <time>2025-03-08T12:43:16Z</time>
      </trkpt>
      <trkpt lat="43.98491" lon="6.82395">
        <ele>1439.23</ele>
        <time>2025-03-08T12:43:32Z</time>
      </trkpt>
      <trkpt lat="43.98485" lon="6.8241">
        <ele>1442.11</ele>
        <time>2025-03-08T12:43:48Z</time>
      </trkpt>
      <trkpt lat="43.98476" lon="6.82422">
        <ele>1443.56</ele>
        <time>2025-03-08T12:44:03Z</time>
      </trkpt>
      <trkpt lat="43.98473" lon="6.82433">
        <ele>1445</ele>
        <time>2025-03-08T12:44:17Z</time>
      </trkpt>
      <trkpt lat="43.98474" lon="6.82445">
        <ele>1446.92</ele>
        <time>2025-03-08T12:44:32Z</time>
      </trkpt>
      <trkpt lat="43.98469" lon="6.82455">
        <ele>1449.32</ele>
        <time>2025-03-08T12:44:47Z</time>
      </trkpt>
      <trkpt lat="43.98462" lon="6.82464">
        <ele>1451.73</ele>
        <time>2025-03-08T12:45:04Z</time>
      </trkpt>
      <trkpt lat="43.98457" lon="6.82474">
        <ele>1453.17</ele>
        <time>2025-03-08T12:45:19Z</time>
      </trkpt>
      <trkpt lat="43.98452" lon="6.82483">
        <ele>1456.05</ele>
        <time>2025-03-08T12:45:34Z</time>
      </trkpt>
      <trkpt lat="43.98448" lon="6.82489">
        <ele>1457.5</ele>
        <time>2025-03-08T12:45:47Z</time>
      </trkpt>
      <trkpt lat="43.98445" lon="6.82498">
        <ele>1458.94</ele>
        <time>2025-03-08T12:46:02Z</time>
      </trkpt>
      <trkpt lat="43.98443" lon="6.82508">
        <ele>1460.86</ele>
        <time>2025-03-08T12:46:16Z</time>
      </trkpt>
      <trkpt lat="43.98441" lon="6.82516">
        <ele>1462.78</ele>
        <time>2025-03-08T12:46:30Z</time>
      </trkpt>
      <trkpt lat="43.98439" lon="6.82521">
        <ele>1464.23</ele>
        <time>2025-03-08T12:46:43Z</time>
      </trkpt>
      <trkpt lat="43.98435" lon="6.82528">
        <ele>1465.19</ele>
        <time>2025-03-08T12:46:56Z</time>
      </trkpt>
      <trkpt lat="43.98432" lon="6.82537">
        <ele>1467.11</ele>
        <time>2025-03-08T12:47:10Z</time>
      </trkpt>
      <trkpt lat="43.9843" lon="6.82544">
        <ele>1469.51</ele>
        <time>2025-03-08T12:47:22Z</time>
      </trkpt>
      <trkpt lat="43.98428" lon="6.82554">
        <ele>1471.44</ele>
        <time>2025-03-08T12:47:36Z</time>
      </trkpt>
      <trkpt lat="43.98424" lon="6.82565">
        <ele>1473.84</ele>
        <time>2025-03-08T12:47:51Z</time>
      </trkpt>
      <trkpt lat="43.98422" lon="6.82574">
        <ele>1475.28</ele>
        <time>2025-03-08T12:48:05Z</time>
      </trkpt>
      <trkpt lat="43.98421" lon="6.82585">
        <ele>1477.2</ele>
        <time>2025-03-08T12:48:18Z</time>
      </trkpt>
      <trkpt lat="43.98417" lon="6.82597">
        <ele>1479.61</ele>
        <time>2025-03-08T12:48:33Z</time>
      </trkpt>
      <trkpt lat="43.98412" lon="6.82609">
        <ele>1481.53</ele>
        <time>2025-03-08T12:48:47Z</time>
      </trkpt>
      <trkpt lat="43.98412" lon="6.82622">
        <ele>1482.97</ele>
        <time>2025-03-08T12:49:00Z</time>
      </trkpt>
      <trkpt lat="43.98411" lon="6.82635">
        <ele>1483.93</ele>
        <time>2025-03-08T12:49:12Z</time>
      </trkpt>
      <trkpt lat="43.98406" lon="6.8265">
        <ele>1485.37</ele>
        <time>2025-03-08T12:49:28Z</time>
      </trkpt>
      <trkpt lat="43.98403" lon="6.82668">
        <ele>1486.82</ele>
        <time>2025-03-08T12:49:44Z</time>
      </trkpt>
      <trkpt lat="43.98397" lon="6.82691">
        <ele>1487.3</ele>
        <time>2025-03-08T12:50:02Z</time>
      </trkpt>
      <trkpt lat="43.98393" lon="6.82707">
        <ele>1489.22</ele>
        <time>2025-03-08T12:50:16Z</time>
      </trkpt>
      <trkpt lat="43.98392" lon="6.82724">
        <ele>1491.14</ele>
        <time>2025-03-08T12:50:31Z</time>
      </trkpt>
      <trkpt lat="43.98389" lon="6.82737">
        <ele>1492.58</ele>
        <time>2025-03-08T12:50:45Z</time>
      </trkpt>
      <trkpt lat="43.98384" lon="6.82747">
        <ele>1494.99</ele>
        <time>2025-03-08T12:50:58Z</time>
      </trkpt>
      <trkpt lat="43.9838" lon="6.82763">
        <ele>1496.43</ele>
        <time>2025-03-08T12:51:12Z</time>
      </trkpt>
      <trkpt lat="43.98375" lon="6.82777">
        <ele>1497.39</ele>
        <time>2025-03-08T12:51:26Z</time>
      </trkpt>
      <trkpt lat="43.98372" lon="6.82789">
        <ele>1498.83</ele>
        <time>2025-03-08T12:51:39Z</time>
      </trkpt>
      <trkpt lat="43.98367" lon="6.828">
        <ele>1500.27</ele>
        <time>2025-03-08T12:51:52Z</time>
      </trkpt>
      <trkpt lat="43.9836" lon="6.82811">
        <ele>1501.24</ele>
        <time>2025-03-08T12:52:04Z</time>
      </trkpt>
      <trkpt lat="43.98356" lon="6.82823">
        <ele>1501.72</ele>
        <time>2025-03-08T12:52:16Z</time>
      </trkpt>
      <trkpt lat="43.98354" lon="6.82824">
        <ele>1501.72</ele>
        <time>2025-03-08T12:52:18Z</time>
      </trkpt>
      <trkpt lat="43.98353" lon="6.82827">
        <ele>1501.72</ele>
        <time>2025-03-08T12:52:20Z</time>
      </trkpt>
      <trkpt lat="43.98347" lon="6.82838">
        <ele>1501.72</ele>
        <time>2025-03-08T12:52:32Z</time>
      </trkpt>
      <trkpt lat="43.98343" lon="6.82849">
        <ele>1504.12</ele>
        <time>2025-03-08T12:52:46Z</time>
      </trkpt>
      <trkpt lat="43.98339" lon="6.82859">
        <ele>1506.52</ele>
        <time>2025-03-08T12:53:02Z</time>
      </trkpt>
      <trkpt lat="43.98337" lon="6.82863">
        <ele>1507.97</ele>
        <time>2025-03-08T12:53:13Z</time>
      </trkpt>
      <trkpt lat="43.98337" lon="6.82867">
        <ele>1509.41</ele>
        <time>2025-03-08T12:53:27Z</time>
      </trkpt>
      <trkpt lat="43.98334" lon="6.82875">
        <ele>1510.85</ele>
        <time>2025-03-08T12:53:40Z</time>
      </trkpt>
      <trkpt lat="43.9833" lon="6.82883">
        <ele>1512.77</ele>
        <time>2025-03-08T12:53:53Z</time>
      </trkpt>
      <trkpt lat="43.98326" lon="6.82891">
        <ele>1514.21</ele>
        <time>2025-03-08T12:54:07Z</time>
      </trkpt>
      <trkpt lat="43.98322" lon="6.82897">
        <ele>1515.66</ele>
        <time>2025-03-08T12:54:20Z</time>
      </trkpt>
      <trkpt lat="43.98319" lon="6.82905">
        <ele>1518.06</ele>
        <time>2025-03-08T12:54:33Z</time>
      </trkpt>
      <trkpt lat="43.98317" lon="6.82913">
        <ele>1519.5</ele>
        <time>2025-03-08T12:54:45Z</time>
      </trkpt>
      <trkpt lat="43.98313" lon="6.8292">
        <ele>1520.94</ele>
        <time>2025-03-08T12:54:59Z</time>
      </trkpt>
      <trkpt lat="43.98312" lon="6.82927">
        <ele>1522.87</ele>
        <time>2025-03-08T12:55:11Z</time>
      </trkpt>
      <trkpt lat="43.9831" lon="6.82934">
        <ele>1524.79</ele>
        <time>2025-03-08T12:55:22Z</time>
      </trkpt>
      <trkpt lat="43.98305" lon="6.82943">
        <ele>1526.23</ele>
        <time>2025-03-08T12:55:35Z</time>
      </trkpt>
      <trkpt lat="43.98304" lon="6.82948">
        <ele>1526.71</ele>
        <time>2025-03-08T12:55:50Z</time>
      </trkpt>
      <trkpt lat="43.98302" lon="6.8295">
        <ele>1526.71</ele>
        <time>2025-03-08T12:56:01Z</time>
      </trkpt>
      <trkpt lat="43.98301" lon="6.8295">
        <ele>1527.67</ele>
        <time>2025-03-08T12:56:16Z</time>
      </trkpt>
      <trkpt lat="43.98302" lon="6.8295">
        <ele>1527.67</ele>
        <time>2025-03-08T12:56:36Z</time>
      </trkpt>
      <trkpt lat="43.98302" lon="6.82949">
        <ele>1526.23</ele>
        <time>2025-03-08T12:56:39Z</time>
      </trkpt>
      <trkpt lat="43.98302" lon="6.82947">
        <ele>1526.23</ele>
        <time>2025-03-08T12:56:54Z</time>
      </trkpt>
      <trkpt lat="43.98302" lon="6.82946">
        <ele>1526.23</ele>
        <time>2025-03-08T12:57:09Z</time>
      </trkpt>
      <trkpt lat="43.98304" lon="6.82944">
        <ele>1525.75</ele>
        <time>2025-03-08T12:57:24Z</time>
      </trkpt>
      <trkpt lat="43.98304" lon="6.82948">
        <ele>1525.27</ele>
        <time>2025-03-08T12:57:35Z</time>
      </trkpt>
      <trkpt lat="43.98303" lon="6.82947">
        <ele>1525.75</ele>
        <time>2025-03-08T12:57:56Z</time>
      </trkpt>
      <trkpt lat="43.98303" lon="6.82947">
        <ele>1526.71</ele>
        <time>2025-03-08T12:58:20Z</time>
      </trkpt>
      <trkpt lat="43.98301" lon="6.82942">
        <ele>1525.27</ele>
        <time>2025-03-08T12:58:30Z</time>
      </trkpt>
      <trkpt lat="43.98297" lon="6.82937">
        <ele>1522.87</ele>
        <time>2025-03-08T12:58:42Z</time>
      </trkpt>
      <trkpt lat="43.98294" lon="6.82936">
        <ele>1521.9</ele>
        <time>2025-03-08T12:58:54Z</time>
      </trkpt>
      <trkpt lat="43.98294" lon="6.82937">
        <ele>1520.94</ele>
        <time>2025-03-08T12:59:11Z</time>
      </trkpt>
      <trkpt lat="43.9829" lon="6.82937">
        <ele>1521.9</ele>
        <time>2025-03-08T12:59:23Z</time>
      </trkpt>
      <trkpt lat="43.98287" lon="6.82936">
        <ele>1521.9</ele>
        <time>2025-03-08T12:59:32Z</time>
      </trkpt>
      <trkpt lat="43.9828" lon="6.82934">
        <ele>1519.5</ele>
        <time>2025-03-08T12:59:45Z</time>
      </trkpt>
      <trkpt lat="43.98275" lon="6.82932">
        <ele>1518.06</ele>
        <time>2025-03-08T12:59:57Z</time>
      </trkpt>
      <trkpt lat="43.98271" lon="6.82937">
        <ele>1517.1</ele>
        <time>2025-03-08T13:00:09Z</time>
      </trkpt>
      <trkpt lat="43.98266" lon="6.82934">
        <ele>1515.66</ele>
        <time>2025-03-08T13:00:21Z</time>
      </trkpt>
      <trkpt lat="43.98262" lon="6.82934">
        <ele>1513.73</ele>
        <time>2025-03-08T13:00:34Z</time>
      </trkpt>
      <trkpt lat="43.98261" lon="6.82928">
        <ele>1512.29</ele>
        <time>2025-03-08T13:00:47Z</time>
      </trkpt>
      <trkpt lat="43.98257" lon="6.82926">
        <ele>1509.41</ele>
        <time>2025-03-08T13:01:00Z</time>
      </trkpt>
      <trkpt lat="43.98256" lon="6.82925">
        <ele>1508.93</ele>
        <time>2025-03-08T13:01:14Z</time>
      </trkpt>
      <trkpt lat="43.98256" lon="6.82925">
        <ele>1508.93</ele>
        <time>2025-03-08T13:01:31Z</time>
      </trkpt>
      <trkpt lat="43.98254" lon="6.82926">
        <ele>1507.48</ele>
        <time>2025-03-08T13:01:45Z</time>
      </trkpt>
      <trkpt lat="43.98249" lon="6.82925">
        <ele>1506.52</ele>
        <time>2025-03-08T13:01:58Z</time>
      </trkpt>
      <trkpt lat="43.98245" lon="6.82924">
        <ele>1503.16</ele>
        <time>2025-03-08T13:02:09Z</time>
      </trkpt>
      <trkpt lat="43.98243" lon="6.82923">
        <ele>1502.68</ele>
        <time>2025-03-08T13:02:33Z</time>
      </trkpt>
      <trkpt lat="43.98237" lon="6.82922">
        <ele>1500.27</ele>
        <time>2025-03-08T13:02:51Z</time>
      </trkpt>
      <trkpt lat="43.9823" lon="6.82921">
        <ele>1497.39</ele>
        <time>2025-03-08T13:03:04Z</time>
      </trkpt>
      <trkpt lat="43.98224" lon="6.8292">
        <ele>1494.99</ele>
        <time>2025-03-08T13:03:16Z</time>
      </trkpt>
      <trkpt lat="43.98214" lon="6.8292">
        <ele>1491.62</ele>
        <time>2025-03-08T13:03:31Z</time>
      </trkpt>
      <trkpt lat="43.98211" lon="6.82921">
        <ele>1491.14</ele>
        <time>2025-03-08T13:03:44Z</time>
      </trkpt>
      <trkpt lat="43.98208" lon="6.82921">
        <ele>1490.66</ele>
        <time>2025-03-08T13:04:04Z</time>
      </trkpt>
      <trkpt lat="43.98203" lon="6.82924">
        <ele>1488.74</ele>
        <time>2025-03-08T13:04:17Z</time>
      </trkpt>
      <trkpt lat="43.98201" lon="6.82926">
        <ele>1488.26</ele>
        <time>2025-03-08T13:04:20Z</time>
      </trkpt>
      <trkpt lat="43.98196" lon="6.82927">
        <ele>1485.85</ele>
        <time>2025-03-08T13:04:34Z</time>
      </trkpt>
      <trkpt lat="43.98191" lon="6.82923">
        <ele>1484.41</ele>
        <time>2025-03-08T13:04:57Z</time>
      </trkpt>
      <trkpt lat="43.98185" lon="6.82921">
        <ele>1481.53</ele>
        <time>2025-03-08T13:05:08Z</time>
      </trkpt>
      <trkpt lat="43.98178" lon="6.8292">
        <ele>1478.65</ele>
        <time>2025-03-08T13:05:19Z</time>
      </trkpt>
      <trkpt lat="43.98171" lon="6.8292">
        <ele>1475.76</ele>
        <time>2025-03-08T13:05:32Z</time>
      </trkpt>
      <trkpt lat="43.98168" lon="6.82914">
        <ele>1474.8</ele>
        <time>2025-03-08T13:05:44Z</time>
      </trkpt>
      <trkpt lat="43.98165" lon="6.82909">
        <ele>1473.36</ele>
        <time>2025-03-08T13:05:56Z</time>
      </trkpt>
      <trkpt lat="43.98161" lon="6.82907">
        <ele>1469.99</ele>
        <time>2025-03-08T13:06:05Z</time>
      </trkpt>
      <trkpt lat="43.98158" lon="6.82904">
        <ele>1468.07</ele>
        <time>2025-03-08T13:06:16Z</time>
      </trkpt>
      <trkpt lat="43.98155" lon="6.82904">
        <ele>1466.63</ele>
        <time>2025-03-08T13:06:28Z</time>
      </trkpt>
      <trkpt lat="43.98154" lon="6.82904">
        <ele>1466.15</ele>
        <time>2025-03-08T13:06:30Z</time>
      </trkpt>
      <trkpt lat="43.98152" lon="6.82899">
        <ele>1464.23</ele>
        <time>2025-03-08T13:06:36Z</time>
      </trkpt>
      <trkpt lat="43.98147" lon="6.82896">
        <ele>1460.86</ele>
        <time>2025-03-08T13:06:48Z</time>
      </trkpt>
      <trkpt lat="43.98143" lon="6.82894">
        <ele>1458.46</ele>
        <time>2025-03-08T13:07:00Z</time>
      </trkpt>
      <trkpt lat="43.9814" lon="6.82892">
        <ele>1455.57</ele>
        <time>2025-03-08T13:07:11Z</time>
      </trkpt>
      <trkpt lat="43.98138" lon="6.8289">
        <ele>1453.65</ele>
        <time>2025-03-08T13:07:26Z</time>
      </trkpt>
      <trkpt lat="43.98133" lon="6.82888">
        <ele>1452.21</ele>
        <time>2025-03-08T13:07:44Z</time>
      </trkpt>
      <trkpt lat="43.98129" lon="6.82884">
        <ele>1449.32</ele>
        <time>2025-03-08T13:07:58Z</time>
      </trkpt>
      <trkpt lat="43.98126" lon="6.82882">
        <ele>1448.84</ele>
        <time>2025-03-08T13:08:21Z</time>
      </trkpt>
      <trkpt lat="43.98121" lon="6.82883">
        <ele>1447.88</ele>
        <time>2025-03-08T13:08:55Z</time>
      </trkpt>
      <trkpt lat="43.98121" lon="6.82883">
        <ele>1449.32</ele>
        <time>2025-03-08T13:09:10Z</time>
      </trkpt>
      <trkpt lat="43.98122" lon="6.82885">
        <ele>1448.84</ele>
        <time>2025-03-08T13:09:29Z</time>
      </trkpt>
      <trkpt lat="43.98122" lon="6.82887">
        <ele>1449.81</ele>
        <time>2025-03-08T13:09:35Z</time>
      </trkpt>
      <trkpt lat="43.98115" lon="6.82889">
        <ele>1446.92</ele>
        <time>2025-03-08T13:09:47Z</time>
      </trkpt>
      <trkpt lat="43.98112" lon="6.8289">
        <ele>1446.92</ele>
        <time>2025-03-08T13:09:53Z</time>
      </trkpt>
      <trkpt lat="43.98106" lon="6.82894">
        <ele>1443.56</ele>
        <time>2025-03-08T13:10:08Z</time>
      </trkpt>
      <trkpt lat="43.981" lon="6.82892">
        <ele>1440.67</ele>
        <time>2025-03-08T13:10:19Z</time>
      </trkpt>
      <trkpt lat="43.98099" lon="6.82891">
        <ele>1441.15</ele>
        <time>2025-03-08T13:10:26Z</time>
      </trkpt>
      <trkpt lat="43.98094" lon="6.82885">
        <ele>1437.79</ele>
        <time>2025-03-08T13:10:39Z</time>
      </trkpt>
      <trkpt lat="43.98086" lon="6.8288">
        <ele>1434.42</ele>
        <time>2025-03-08T13:10:50Z</time>
      </trkpt>
      <trkpt lat="43.98082" lon="6.82876">
        <ele>1432.98</ele>
        <time>2025-03-08T13:10:55Z</time>
      </trkpt>
      <trkpt lat="43.98077" lon="6.8287">
        <ele>1431.06</ele>
        <time>2025-03-08T13:11:09Z</time>
      </trkpt>
      <trkpt lat="43.98076" lon="6.8287">
        <ele>1430.58</ele>
        <time>2025-03-08T13:11:26Z</time>
      </trkpt>
      <trkpt lat="43.98073" lon="6.82869">
        <ele>1429.62</ele>
        <time>2025-03-08T13:11:43Z</time>
      </trkpt>
      <trkpt lat="43.98068" lon="6.82875">
        <ele>1429.14</ele>
        <time>2025-03-08T13:11:59Z</time>
      </trkpt>
      <trkpt lat="43.98062" lon="6.82872">
        <ele>1426.25</ele>
        <time>2025-03-08T13:12:10Z</time>
      </trkpt>
      <trkpt lat="43.98061" lon="6.82872">
        <ele>1426.25</ele>
        <time>2025-03-08T13:12:11Z</time>
      </trkpt>
      <trkpt lat="43.98051" lon="6.82864">
        <ele>1422.89</ele>
        <time>2025-03-08T13:12:23Z</time>
      </trkpt>
      <trkpt lat="43.9804" lon="6.82866">
        <ele>1420.49</ele>
        <time>2025-03-08T13:12:36Z</time>
      </trkpt>
      <trkpt lat="43.98037" lon="6.82866">
        <ele>1420</ele>
        <time>2025-03-08T13:12:38Z</time>
      </trkpt>
      <trkpt lat="43.98033" lon="6.82864">
        <ele>1420</ele>
        <time>2025-03-08T13:12:54Z</time>
      </trkpt>
      <trkpt lat="43.98031" lon="6.82866">
        <ele>1420</ele>
        <time>2025-03-08T13:12:57Z</time>
      </trkpt>
      <trkpt lat="43.98024" lon="6.82878">
        <ele>1421.45</ele>
        <time>2025-03-08T13:13:11Z</time>
      </trkpt>
      <trkpt lat="43.98022" lon="6.82883">
        <ele>1422.41</ele>
        <time>2025-03-08T13:13:26Z</time>
      </trkpt>
      <trkpt lat="43.98021" lon="6.82885">
        <ele>1422.41</ele>
        <time>2025-03-08T13:13:44Z</time>
      </trkpt>
      <trkpt lat="43.9802" lon="6.82883">
        <ele>1422.41</ele>
        <time>2025-03-08T13:14:21Z</time>
      </trkpt>
      <trkpt lat="43.98016" lon="6.82882">
        <ele>1421.45</ele>
        <time>2025-03-08T13:14:35Z</time>
      </trkpt>
      <trkpt lat="43.98008" lon="6.82887">
        <ele>1419.04</ele>
        <time>2025-03-08T13:14:48Z</time>
      </trkpt>
      <trkpt lat="43.98006" lon="6.82886">
        <ele>1418.08</ele>
        <time>2025-03-08T13:14:52Z</time>
      </trkpt>
      <trkpt lat="43.97995" lon="6.8289">
        <ele>1414.72</ele>
        <time>2025-03-08T13:15:07Z</time>
      </trkpt>
      <trkpt lat="43.97985" lon="6.8289">
        <ele>1410.87</ele>
        <time>2025-03-08T13:15:19Z</time>
      </trkpt>
      <trkpt lat="43.97974" lon="6.82891">
        <ele>1408.95</ele>
        <time>2025-03-08T13:15:30Z</time>
      </trkpt>
      <trkpt lat="43.97974" lon="6.8289">
        <ele>1408.47</ele>
        <time>2025-03-08T13:15:45Z</time>
      </trkpt>
      <trkpt lat="43.97974" lon="6.8289">
        <ele>1407.03</ele>
        <time>2025-03-08T13:15:57Z</time>
      </trkpt>
      <trkpt lat="43.97973" lon="6.82891">
        <ele>1407.03</ele>
        <time>2025-03-08T13:16:06Z</time>
      </trkpt>
      <trkpt lat="43.97971" lon="6.82891">
        <ele>1406.55</ele>
        <time>2025-03-08T13:16:09Z</time>
      </trkpt>
      <trkpt lat="43.97964" lon="6.82887">
        <ele>1404.62</ele>
        <time>2025-03-08T13:16:17Z</time>
      </trkpt>
      <trkpt lat="43.97955" lon="6.82882">
        <ele>1401.26</ele>
        <time>2025-03-08T13:16:25Z</time>
      </trkpt>
      <trkpt lat="43.97953" lon="6.8288">
        <ele>1400.78</ele>
        <time>2025-03-08T13:16:27Z</time>
      </trkpt>
      <trkpt lat="43.97951" lon="6.82877">
        <ele>1400.78</ele>
        <time>2025-03-08T13:16:29Z</time>
      </trkpt>
      <trkpt lat="43.97941" lon="6.82861">
        <ele>1397.41</ele>
        <time>2025-03-08T13:16:42Z</time>
      </trkpt>
      <trkpt lat="43.97935" lon="6.82861">
        <ele>1395.49</ele>
        <time>2025-03-08T13:16:58Z</time>
      </trkpt>
      <trkpt lat="43.97934" lon="6.82864">
        <ele>1397.41</ele>
        <time>2025-03-08T13:17:01Z</time>
      </trkpt>
      <trkpt lat="43.97927" lon="6.82861">
        <ele>1396.93</ele>
        <time>2025-03-08T13:17:07Z</time>
      </trkpt>
      <trkpt lat="43.97924" lon="6.82857">
        <ele>1395.49</ele>
        <time>2025-03-08T13:17:10Z</time>
      </trkpt>
      <trkpt lat="43.97922" lon="6.82857">
        <ele>1395.49</ele>
        <time>2025-03-08T13:17:11Z</time>
      </trkpt>
      <trkpt lat="43.97913" lon="6.82836">
        <ele>1392.13</ele>
        <time>2025-03-08T13:17:26Z</time>
      </trkpt>
      <trkpt lat="43.97916" lon="6.82828">
        <ele>1390.2</ele>
        <time>2025-03-08T13:17:39Z</time>
      </trkpt>
      <trkpt lat="43.97913" lon="6.8282">
        <ele>1388.76</ele>
        <time>2025-03-08T13:17:46Z</time>
      </trkpt>
      <trkpt lat="43.97913" lon="6.82806">
        <ele>1384.92</ele>
        <time>2025-03-08T13:17:57Z</time>
      </trkpt>
      <trkpt lat="43.97906" lon="6.82802">
        <ele>1383.47</ele>
        <time>2025-03-08T13:18:12Z</time>
      </trkpt>
      <trkpt lat="43.97906" lon="6.82793">
        <ele>1382.03</ele>
        <time>2025-03-08T13:18:19Z</time>
      </trkpt>
      <trkpt lat="43.97904" lon="6.8279">
        <ele>1381.55</ele>
        <time>2025-03-08T13:18:22Z</time>
      </trkpt>
      <trkpt lat="43.97906" lon="6.82777">
        <ele>1378.19</ele>
        <time>2025-03-08T13:18:34Z</time>
      </trkpt>
      <trkpt lat="43.97906" lon="6.82771">
        <ele>1377.23</ele>
        <time>2025-03-08T13:18:49Z</time>
      </trkpt>
      <trkpt lat="43.97904" lon="6.82768">
        <ele>1376.26</ele>
        <time>2025-03-08T13:19:03Z</time>
      </trkpt>
      <trkpt lat="43.97904" lon="6.82767">
        <ele>1375.3</ele>
        <time>2025-03-08T13:19:04Z</time>
      </trkpt>
      <trkpt lat="43.97901" lon="6.82757">
        <ele>1372.9</ele>
        <time>2025-03-08T13:19:19Z</time>
      </trkpt>
      <trkpt lat="43.979" lon="6.82749">
        <ele>1370.98</ele>
        <time>2025-03-08T13:19:27Z</time>
      </trkpt>
      <trkpt lat="43.97899" lon="6.82746">
        <ele>1370.5</ele>
        <time>2025-03-08T13:19:29Z</time>
      </trkpt>
      <trkpt lat="43.97899" lon="6.82733">
        <ele>1367.61</ele>
        <time>2025-03-08T13:19:38Z</time>
      </trkpt>
      <trkpt lat="43.97901" lon="6.82719">
        <ele>1364.25</ele>
        <time>2025-03-08T13:19:49Z</time>
      </trkpt>
      <trkpt lat="43.979" lon="6.82706">
        <ele>1361.84</ele>
        <time>2025-03-08T13:19:58Z</time>
      </trkpt>
      <trkpt lat="43.97891" lon="6.82688">
        <ele>1358.48</ele>
        <time>2025-03-08T13:20:12Z</time>
      </trkpt>
      <trkpt lat="43.97892" lon="6.82679">
        <ele>1356.56</ele>
        <time>2025-03-08T13:20:19Z</time>
      </trkpt>
      <trkpt lat="43.97887" lon="6.82666">
        <ele>1352.23</ele>
        <time>2025-03-08T13:20:33Z</time>
      </trkpt>
      <trkpt lat="43.97886" lon="6.82657">
        <ele>1351.27</ele>
        <time>2025-03-08T13:20:40Z</time>
      </trkpt>
      <trkpt lat="43.97882" lon="6.82646">
        <ele>1348.87</ele>
        <time>2025-03-08T13:20:50Z</time>
      </trkpt>
      <trkpt lat="43.97876" lon="6.82636">
        <ele>1346.46</ele>
        <time>2025-03-08T13:21:01Z</time>
      </trkpt>
      <trkpt lat="43.97869" lon="6.8263">
        <ele>1345.02</ele>
        <time>2025-03-08T13:21:15Z</time>
      </trkpt>
      <trkpt lat="43.97866" lon="6.82631">
        <ele>1344.06</ele>
        <time>2025-03-08T13:21:24Z</time>
      </trkpt>
      <trkpt lat="43.97863" lon="6.8263">
        <ele>1342.62</ele>
        <time>2025-03-08T13:21:29Z</time>
      </trkpt>
      <trkpt lat="43.97863" lon="6.82625">
        <ele>1342.62</ele>
        <time>2025-03-08T13:21:34Z</time>
      </trkpt>
      <trkpt lat="43.9786" lon="6.82614">
        <ele>1340.7</ele>
        <time>2025-03-08T13:21:47Z</time>
      </trkpt>
      <trkpt lat="43.97858" lon="6.82611">
        <ele>1340.22</ele>
        <time>2025-03-08T13:22:03Z</time>
      </trkpt>
      <trkpt lat="43.97856" lon="6.82607">
        <ele>1338.77</ele>
        <time>2025-03-08T13:22:26Z</time>
      </trkpt>
      <trkpt lat="43.97855" lon="6.826">
        <ele>1338.29</ele>
        <time>2025-03-08T13:22:39Z</time>
      </trkpt>
      <trkpt lat="43.97854" lon="6.82597">
        <ele>1335.89</ele>
        <time>2025-03-08T13:22:55Z</time>
      </trkpt>
      <trkpt lat="43.97854" lon="6.82596">
        <ele>1337.81</ele>
        <time>2025-03-08T13:23:29Z</time>
      </trkpt>
      <trkpt lat="43.97855" lon="6.82588">
        <ele>1337.81</ele>
        <time>2025-03-08T13:23:44Z</time>
      </trkpt>
      <trkpt lat="43.97856" lon="6.82571">
        <ele>1338.77</ele>
        <time>2025-03-08T13:23:59Z</time>
      </trkpt>
      <trkpt lat="43.97853" lon="6.82545">
        <ele>1338.77</ele>
        <time>2025-03-08T13:24:17Z</time>
      </trkpt>
      <trkpt lat="43.97852" lon="6.8254">
        <ele>1336.85</ele>
        <time>2025-03-08T13:24:21Z</time>
      </trkpt>
      <trkpt lat="43.97844" lon="6.82514">
        <ele>1336.37</ele>
        <time>2025-03-08T13:24:36Z</time>
      </trkpt>
      <trkpt lat="43.97837" lon="6.82481">
        <ele>1335.41</ele>
        <time>2025-03-08T13:24:55Z</time>
      </trkpt>
      <trkpt lat="43.97827" lon="6.82449">
        <ele>1335.41</ele>
        <time>2025-03-08T13:25:13Z</time>
      </trkpt>
      <trkpt lat="43.9782" lon="6.82438">
        <ele>1336.85</ele>
        <time>2025-03-08T13:25:20Z</time>
      </trkpt>
      <trkpt lat="43.97808" lon="6.82419">
        <ele>1339.25</ele>
        <time>2025-03-08T13:25:38Z</time>
      </trkpt>
      <trkpt lat="43.97794" lon="6.82401">
        <ele>1342.62</ele>
        <time>2025-03-08T13:25:58Z</time>
      </trkpt>
      <trkpt lat="43.9779" lon="6.82393">
        <ele>1343.1</ele>
        <time>2025-03-08T13:26:14Z</time>
      </trkpt>
      <trkpt lat="43.97782" lon="6.82384">
        <ele>1344.54</ele>
        <time>2025-03-08T13:26:31Z</time>
      </trkpt>
      <trkpt lat="43.97772" lon="6.8237">
        <ele>1346.46</ele>
        <time>2025-03-08T13:26:45Z</time>
      </trkpt>
      <trkpt lat="43.97767" lon="6.82355">
        <ele>1346.94</ele>
        <time>2025-03-08T13:26:59Z</time>
      </trkpt>
      <trkpt lat="43.97763" lon="6.82324">
        <ele>1345.02</ele>
        <time>2025-03-08T13:27:17Z</time>
      </trkpt>
      <trkpt lat="43.9776" lon="6.823">
        <ele>1341.66</ele>
        <time>2025-03-08T13:27:32Z</time>
      </trkpt>
      <trkpt lat="43.9776" lon="6.82284">
        <ele>1338.77</ele>
        <time>2025-03-08T13:27:42Z</time>
      </trkpt>
      <trkpt lat="43.97759" lon="6.82277">
        <ele>1336.85</ele>
        <time>2025-03-08T13:27:47Z</time>
      </trkpt>
      <trkpt lat="43.97756" lon="6.82255">
        <ele>1334.45</ele>
        <time>2025-03-08T13:28:02Z</time>
      </trkpt>
      <trkpt lat="43.9775" lon="6.82238">
        <ele>1333.97</ele>
        <time>2025-03-08T13:28:13Z</time>
      </trkpt>
      <trkpt lat="43.97749" lon="6.82235">
        <ele>1333.97</ele>
        <time>2025-03-08T13:28:15Z</time>
      </trkpt>
      <trkpt lat="43.97739" lon="6.82208">
        <ele>1331.56</ele>
        <time>2025-03-08T13:28:32Z</time>
      </trkpt>
      <trkpt lat="43.97738" lon="6.82197">
        <ele>1329.16</ele>
        <time>2025-03-08T13:28:39Z</time>
      </trkpt>
      <trkpt lat="43.97738" lon="6.82192">
        <ele>1327.72</ele>
        <time>2025-03-08T13:28:43Z</time>
      </trkpt>
      <trkpt lat="43.9774" lon="6.82181">
        <ele>1324.35</ele>
        <time>2025-03-08T13:28:51Z</time>
      </trkpt>
      <trkpt lat="43.97744" lon="6.82157">
        <ele>1320.99</ele>
        <time>2025-03-08T13:29:03Z</time>
      </trkpt>
      <trkpt lat="43.97744" lon="6.82153">
        <ele>1320.51</ele>
        <time>2025-03-08T13:29:05Z</time>
      </trkpt>
      <trkpt lat="43.97747" lon="6.82137">
        <ele>1317.14</ele>
        <time>2025-03-08T13:29:15Z</time>
      </trkpt>
      <trkpt lat="43.9775" lon="6.82129">
        <ele>1315.7</ele>
        <time>2025-03-08T13:29:20Z</time>
      </trkpt>
      <trkpt lat="43.9775" lon="6.82125">
        <ele>1314.74</ele>
        <time>2025-03-08T13:29:22Z</time>
      </trkpt>
      <trkpt lat="43.97753" lon="6.82101">
        <ele>1311.86</ele>
        <time>2025-03-08T13:29:38Z</time>
      </trkpt>
      <trkpt lat="43.97755" lon="6.82087">
        <ele>1308.49</ele>
        <time>2025-03-08T13:29:47Z</time>
      </trkpt>
      <trkpt lat="43.97753" lon="6.82071">
        <ele>1306.57</ele>
        <time>2025-03-08T13:30:06Z</time>
      </trkpt>
      <trkpt lat="43.97751" lon="6.8206">
        <ele>1305.61</ele>
        <time>2025-03-08T13:30:31Z</time>
      </trkpt>
      <trkpt lat="43.97752" lon="6.82048">
        <ele>1303.69</ele>
        <time>2025-03-08T13:30:55Z</time>
      </trkpt>
      <trkpt lat="43.97752" lon="6.82044">
        <ele>1302.24</ele>
        <time>2025-03-08T13:31:00Z</time>
      </trkpt>
      <trkpt lat="43.97755" lon="6.82034">
        <ele>1298.88</ele>
        <time>2025-03-08T13:31:11Z</time>
      </trkpt>
      <trkpt lat="43.97756" lon="6.82029">
        <ele>1297.44</ele>
        <time>2025-03-08T13:31:16Z</time>
      </trkpt>
      <trkpt lat="43.97756" lon="6.82013">
        <ele>1294.07</ele>
        <time>2025-03-08T13:31:25Z</time>
      </trkpt>
      <trkpt lat="43.97756" lon="6.82005">
        <ele>1293.11</ele>
        <time>2025-03-08T13:31:31Z</time>
      </trkpt>
      <trkpt lat="43.97753" lon="6.8198">
        <ele>1289.75</ele>
        <time>2025-03-08T13:31:46Z</time>
      </trkpt>
      <trkpt lat="43.97752" lon="6.81977">
        <ele>1289.75</ele>
        <time>2025-03-08T13:31:48Z</time>
      </trkpt>
      <trkpt lat="43.97749" lon="6.81948">
        <ele>1285.9</ele>
        <time>2025-03-08T13:32:04Z</time>
      </trkpt>
      <trkpt lat="43.97749" lon="6.81946">
        <ele>1285.9</ele>
        <time>2025-03-08T13:32:05Z</time>
      </trkpt>
      <trkpt lat="43.97744" lon="6.81932">
        <ele>1285.42</ele>
        <time>2025-03-08T13:32:14Z</time>
      </trkpt>
      <trkpt lat="43.9774" lon="6.81897">
        <ele>1282.54</ele>
        <time>2025-03-08T13:32:33Z</time>
      </trkpt>
      <trkpt lat="43.97732" lon="6.81873">
        <ele>1281.09</ele>
        <time>2025-03-08T13:32:50Z</time>
      </trkpt>
      <trkpt lat="43.97722" lon="6.81846">
        <ele>1277.73</ele>
        <time>2025-03-08T13:33:05Z</time>
      </trkpt>
      <trkpt lat="43.97715" lon="6.81829">
        <ele>1277.73</ele>
        <time>2025-03-08T13:33:16Z</time>
      </trkpt>
      <trkpt lat="43.97713" lon="6.81807">
        <ele>1276.77</ele>
        <time>2025-03-08T13:33:32Z</time>
      </trkpt>
      <trkpt lat="43.97707" lon="6.81785">
        <ele>1273.88</ele>
        <time>2025-03-08T13:33:46Z</time>
      </trkpt>
      <trkpt lat="43.97704" lon="6.81766">
        <ele>1270.52</ele>
        <time>2025-03-08T13:33:59Z</time>
      </trkpt>
      <trkpt lat="43.97703" lon="6.81753">
        <ele>1267.16</ele>
        <time>2025-03-08T13:34:10Z</time>
      </trkpt>
      <trkpt lat="43.97702" lon="6.81751">
        <ele>1270.04</ele>
        <time>2025-03-08T13:34:12Z</time>
      </trkpt>
      <trkpt lat="43.97702" lon="6.8175">
        <ele>1268.6</ele>
        <time>2025-03-08T13:34:15Z</time>
      </trkpt>
      <trkpt lat="43.97698" lon="6.81742">
        <ele>1267.16</ele>
        <time>2025-03-08T13:34:31Z</time>
      </trkpt>
      <trkpt lat="43.97697" lon="6.81727">
        <ele>1264.27</ele>
        <time>2025-03-08T13:34:40Z</time>
      </trkpt>
      <trkpt lat="43.97696" lon="6.81721">
        <ele>1262.83</ele>
        <time>2025-03-08T13:34:44Z</time>
      </trkpt>
      <trkpt lat="43.97695" lon="6.8171">
        <ele>1260.43</ele>
        <time>2025-03-08T13:34:51Z</time>
      </trkpt>
      <trkpt lat="43.97695" lon="6.81693">
        <ele>1257.06</ele>
        <time>2025-03-08T13:35:03Z</time>
      </trkpt>
      <trkpt lat="43.97695" lon="6.81679">
        <ele>1253.7</ele>
        <time>2025-03-08T13:35:11Z</time>
      </trkpt>
      <trkpt lat="43.97689" lon="6.81656">
        <ele>1250.81</ele>
        <time>2025-03-08T13:35:26Z</time>
      </trkpt>
      <trkpt lat="43.97689" lon="6.81646">
        <ele>1248.89</ele>
        <time>2025-03-08T13:35:31Z</time>
      </trkpt>
      <trkpt lat="43.97688" lon="6.81635">
        <ele>1247.93</ele>
        <time>2025-03-08T13:35:38Z</time>
      </trkpt>
      <trkpt lat="43.97684" lon="6.81607">
        <ele>1245.04</ele>
        <time>2025-03-08T13:35:53Z</time>
      </trkpt>
      <trkpt lat="43.97683" lon="6.81606">
        <ele>1245.04</ele>
        <time>2025-03-08T13:35:54Z</time>
      </trkpt>
      <trkpt lat="43.97676" lon="6.81592">
        <ele>1244.08</ele>
        <time>2025-03-08T13:36:03Z</time>
      </trkpt>
      <trkpt lat="43.97672" lon="6.81564">
        <ele>1241.2</ele>
        <time>2025-03-08T13:36:21Z</time>
      </trkpt>
      <trkpt lat="43.97667" lon="6.8154">
        <ele>1238.32</ele>
        <time>2025-03-08T13:36:37Z</time>
      </trkpt>
      <trkpt lat="43.97667" lon="6.81538">
        <ele>1238.32</ele>
        <time>2025-03-08T13:37:01Z</time>
      </trkpt>
      <trkpt lat="43.97663" lon="6.81526">
        <ele>1234.95</ele>
        <time>2025-03-08T13:37:23Z</time>
      </trkpt>
      <trkpt lat="43.97663" lon="6.81515">
        <ele>1231.59</ele>
        <time>2025-03-08T13:37:33Z</time>
      </trkpt>
      <trkpt lat="43.97668" lon="6.81499">
        <ele>1228.7</ele>
        <time>2025-03-08T13:37:45Z</time>
      </trkpt>
      <trkpt lat="43.9767" lon="6.81494">
        <ele>1227.74</ele>
        <time>2025-03-08T13:37:48Z</time>
      </trkpt>
      <trkpt lat="43.97676" lon="6.81485">
        <ele>1224.86</ele>
        <time>2025-03-08T13:38:02Z</time>
      </trkpt>
      <trkpt lat="43.97679" lon="6.81479">
        <ele>1223.42</ele>
        <time>2025-03-08T13:38:17Z</time>
      </trkpt>
      <trkpt lat="43.97678" lon="6.81471">
        <ele>1221.49</ele>
        <time>2025-03-08T13:38:31Z</time>
      </trkpt>
      <trkpt lat="43.97678" lon="6.81462">
        <ele>1220.05</ele>
        <time>2025-03-08T13:38:45Z</time>
      </trkpt>
      <trkpt lat="43.97674" lon="6.81455">
        <ele>1218.61</ele>
        <time>2025-03-08T13:39:02Z</time>
      </trkpt>
      <trkpt lat="43.97672" lon="6.81447">
        <ele>1217.65</ele>
        <time>2025-03-08T13:39:16Z</time>
      </trkpt>
      <trkpt lat="43.97672" lon="6.81445">
        <ele>1217.17</ele>
        <time>2025-03-08T13:39:32Z</time>
      </trkpt>
      <trkpt lat="43.9767" lon="6.81431">
        <ele>1215.24</ele>
        <time>2025-03-08T13:39:45Z</time>
      </trkpt>
      <trkpt lat="43.97669" lon="6.81415">
        <ele>1212.36</ele>
        <time>2025-03-08T13:40:01Z</time>
      </trkpt>
      <trkpt lat="43.9767" lon="6.81401">
        <ele>1210.44</ele>
        <time>2025-03-08T13:40:14Z</time>
      </trkpt>
      <trkpt lat="43.9767" lon="6.81395">
        <ele>1209</ele>
        <time>2025-03-08T13:40:18Z</time>
      </trkpt>
      <trkpt lat="43.9767" lon="6.81376">
        <ele>1205.15</ele>
        <time>2025-03-08T13:40:30Z</time>
      </trkpt>
      <trkpt lat="43.9767" lon="6.81368">
        <ele>1204.67</ele>
        <time>2025-03-08T13:40:37Z</time>
      </trkpt>
      <trkpt lat="43.97671" lon="6.81358">
        <ele>1202.75</ele>
        <time>2025-03-08T13:40:42Z</time>
      </trkpt>
      <trkpt lat="43.97671" lon="6.81354">
        <ele>1201.3</ele>
        <time>2025-03-08T13:40:44Z</time>
      </trkpt>
      <trkpt lat="43.97669" lon="6.8135">
        <ele>1201.3</ele>
        <time>2025-03-08T13:40:47Z</time>
      </trkpt>
      <trkpt lat="43.97666" lon="6.81331">
        <ele>1200.34</ele>
        <time>2025-03-08T13:41:01Z</time>
      </trkpt>
      <trkpt lat="43.97661" lon="6.81309">
        <ele>1199.38</ele>
        <time>2025-03-08T13:41:16Z</time>
      </trkpt>
      <trkpt lat="43.97658" lon="6.81292">
        <ele>1197.46</ele>
        <time>2025-03-08T13:41:28Z</time>
      </trkpt>
      <trkpt lat="43.97653" lon="6.81272">
        <ele>1196.5</ele>
        <time>2025-03-08T13:41:43Z</time>
      </trkpt>
      <trkpt lat="43.97648" lon="6.81261">
        <ele>1198.42</ele>
        <time>2025-03-08T13:41:55Z</time>
      </trkpt>
      <trkpt lat="43.97641" lon="6.81248">
        <ele>1199.86</ele>
        <time>2025-03-08T13:42:10Z</time>
      </trkpt>
      <trkpt lat="43.97637" lon="6.81235">
        <ele>1198.42</ele>
        <time>2025-03-08T13:42:24Z</time>
      </trkpt>
      <trkpt lat="43.97637" lon="6.81234">
        <ele>1198.42</ele>
        <time>2025-03-08T13:42:25Z</time>
      </trkpt>
      <trkpt lat="43.9764" lon="6.81225">
        <ele>1195.54</ele>
        <time>2025-03-08T13:42:36Z</time>
      </trkpt>
      <trkpt lat="43.97641" lon="6.8122">
        <ele>1194.09</ele>
        <time>2025-03-08T13:42:41Z</time>
      </trkpt>
      <trkpt lat="43.97642" lon="6.81206">
        <ele>1190.73</ele>
        <time>2025-03-08T13:42:54Z</time>
      </trkpt>
      <trkpt lat="43.97645" lon="6.81191">
        <ele>1187.85</ele>
        <time>2025-03-08T13:43:08Z</time>
      </trkpt>
      <trkpt lat="43.97647" lon="6.81186">
        <ele>1187.37</ele>
        <time>2025-03-08T13:43:13Z</time>
      </trkpt>
      <trkpt lat="43.97644" lon="6.81178">
        <ele>1185.44</ele>
        <time>2025-03-08T13:43:21Z</time>
      </trkpt>
      <trkpt lat="43.97647" lon="6.81164">
        <ele>1182.08</ele>
        <time>2025-03-08T13:43:33Z</time>
      </trkpt>
      <trkpt lat="43.97648" lon="6.81163">
        <ele>1182.56</ele>
        <time>2025-03-08T13:43:34Z</time>
      </trkpt>
      <trkpt lat="43.97648" lon="6.81154">
        <ele>1179.19</ele>
        <time>2025-03-08T13:43:44Z</time>
      </trkpt>
      <trkpt lat="43.97648" lon="6.81146">
        <ele>1177.75</ele>
        <time>2025-03-08T13:43:51Z</time>
      </trkpt>
      <trkpt lat="43.97643" lon="6.81134">
        <ele>1177.27</ele>
        <time>2025-03-08T13:44:01Z</time>
      </trkpt>
      <trkpt lat="43.97643" lon="6.8113">
        <ele>1178.23</ele>
        <time>2025-03-08T13:44:03Z</time>
      </trkpt>
      <trkpt lat="43.97641" lon="6.81113">
        <ele>1179.19</ele>
        <time>2025-03-08T13:44:18Z</time>
      </trkpt>
      <trkpt lat="43.97634" lon="6.81101">
        <ele>1180.16</ele>
        <time>2025-03-08T13:44:34Z</time>
      </trkpt>
      <trkpt lat="43.97634" lon="6.81095">
        <ele>1178.71</ele>
        <time>2025-03-08T13:44:45Z</time>
      </trkpt>
      <trkpt lat="43.97632" lon="6.81091">
        <ele>1179.19</ele>
        <time>2025-03-08T13:45:02Z</time>
      </trkpt>
      <trkpt lat="43.97632" lon="6.81087">
        <ele>1177.75</ele>
        <time>2025-03-08T13:45:11Z</time>
      </trkpt>
      <trkpt lat="43.9763" lon="6.81087">
        <ele>1177.75</ele>
        <time>2025-03-08T13:45:24Z</time>
      </trkpt>
      <trkpt lat="43.9763" lon="6.81083">
        <ele>1177.75</ele>
        <time>2025-03-08T13:45:33Z</time>
      </trkpt>
      <trkpt lat="43.9763" lon="6.81065">
        <ele>1174.87</ele>
        <time>2025-03-08T13:45:48Z</time>
      </trkpt>
      <trkpt lat="43.9763" lon="6.81051">
        <ele>1172.47</ele>
        <time>2025-03-08T13:46:04Z</time>
      </trkpt>
      <trkpt lat="43.97629" lon="6.81042">
        <ele>1169.1</ele>
        <time>2025-03-08T13:46:15Z</time>
      </trkpt>
      <trkpt lat="43.97629" lon="6.81026">
        <ele>1166.22</ele>
        <time>2025-03-08T13:46:30Z</time>
      </trkpt>
      <trkpt lat="43.97627" lon="6.81006">
        <ele>1164.77</ele>
        <time>2025-03-08T13:46:45Z</time>
      </trkpt>
      <trkpt lat="43.97625" lon="6.80989">
        <ele>1162.85</ele>
        <time>2025-03-08T13:47:02Z</time>
      </trkpt>
      <trkpt lat="43.97624" lon="6.80975">
        <ele>1160.93</ele>
        <time>2025-03-08T13:47:15Z</time>
      </trkpt>
      <trkpt lat="43.97621" lon="6.80969">
        <ele>1162.37</ele>
        <time>2025-03-08T13:47:24Z</time>
      </trkpt>
      <trkpt lat="43.97617" lon="6.80952">
        <ele>1162.85</ele>
        <time>2025-03-08T13:47:40Z</time>
      </trkpt>
      <trkpt lat="43.97616" lon="6.80942">
        <ele>1161.41</ele>
        <time>2025-03-08T13:47:48Z</time>
      </trkpt>
      <trkpt lat="43.97616" lon="6.80924">
        <ele>1159.97</ele>
        <time>2025-03-08T13:48:03Z</time>
      </trkpt>
      <trkpt lat="43.97616" lon="6.80921">
        <ele>1160.93</ele>
        <time>2025-03-08T13:48:09Z</time>
      </trkpt>
      <trkpt lat="43.97614" lon="6.80915">
        <ele>1160.93</ele>
        <time>2025-03-08T13:48:42Z</time>
      </trkpt>
      <trkpt lat="43.97613" lon="6.80909">
        <ele>1161.41</ele>
        <time>2025-03-08T13:48:56Z</time>
      </trkpt>
      <trkpt lat="43.97609" lon="6.80898">
        <ele>1162.85</ele>
        <time>2025-03-08T13:49:16Z</time>
      </trkpt>
      <trkpt lat="43.97604" lon="6.8089">
        <ele>1164.77</ele>
        <time>2025-03-08T13:49:34Z</time>
      </trkpt>
      <trkpt lat="43.97596" lon="6.80877">
        <ele>1164.77</ele>
        <time>2025-03-08T13:49:49Z</time>
      </trkpt>
      <trkpt lat="43.97586" lon="6.80863">
        <ele>1164.77</ele>
        <time>2025-03-08T13:50:04Z</time>
      </trkpt>
      <trkpt lat="43.97576" lon="6.80839">
        <ele>1164.77</ele>
        <time>2025-03-08T13:50:22Z</time>
      </trkpt>
      <trkpt lat="43.97575" lon="6.80832">
        <ele>1164.77</ele>
        <time>2025-03-08T13:50:25Z</time>
      </trkpt>
      <trkpt lat="43.97568" lon="6.80806">
        <ele>1165.26</ele>
        <time>2025-03-08T13:50:43Z</time>
      </trkpt>
      <trkpt lat="43.97566" lon="6.80797">
        <ele>1164.29</ele>
        <time>2025-03-08T13:50:49Z</time>
      </trkpt>
      <trkpt lat="43.97561" lon="6.80776">
        <ele>1163.81</ele>
        <time>2025-03-08T13:51:05Z</time>
      </trkpt>
      <trkpt lat="43.97563" lon="6.80753">
        <ele>1160.45</ele>
        <time>2025-03-08T13:51:22Z</time>
      </trkpt>
      <trkpt lat="43.97563" lon="6.80731">
        <ele>1157.56</ele>
        <time>2025-03-08T13:51:38Z</time>
      </trkpt>
      <trkpt lat="43.97565" lon="6.80722">
        <ele>1154.2</ele>
        <time>2025-03-08T13:51:49Z</time>
      </trkpt>
      <trkpt lat="43.97563" lon="6.807">
        <ele>1153.72</ele>
        <time>2025-03-08T13:52:04Z</time>
      </trkpt>
      <trkpt lat="43.97562" lon="6.8069">
        <ele>1154.68</ele>
        <time>2025-03-08T13:52:17Z</time>
      </trkpt>
      <trkpt lat="43.97561" lon="6.80689">
        <ele>1153.24</ele>
        <time>2025-03-08T13:52:23Z</time>
      </trkpt>
      <trkpt lat="43.9756" lon="6.80686">
        <ele>1152.76</ele>
        <time>2025-03-08T13:52:37Z</time>
      </trkpt>
      <trkpt lat="43.97555" lon="6.80663">
        <ele>1152.76</ele>
        <time>2025-03-08T13:52:54Z</time>
      </trkpt>
      <trkpt lat="43.97552" lon="6.80657">
        <ele>1154.2</ele>
        <time>2025-03-08T13:53:00Z</time>
      </trkpt>
      <trkpt lat="43.97551" lon="6.80636">
        <ele>1152.76</ele>
        <time>2025-03-08T13:53:12Z</time>
      </trkpt>
      <trkpt lat="43.97547" lon="6.80616">
        <ele>1152.28</ele>
        <time>2025-03-08T13:53:28Z</time>
      </trkpt>
      <trkpt lat="43.97545" lon="6.80604">
        <ele>1152.28</ele>
        <time>2025-03-08T13:53:36Z</time>
      </trkpt>
      <trkpt lat="43.9754" lon="6.80575">
        <ele>1151.32</ele>
        <time>2025-03-08T13:53:52Z</time>
      </trkpt>
      <trkpt lat="43.97535" lon="6.80548">
        <ele>1151.32</ele>
        <time>2025-03-08T13:54:09Z</time>
      </trkpt>
      <trkpt lat="43.97535" lon="6.80547">
        <ele>1151.32</ele>
        <time>2025-03-08T13:54:10Z</time>
      </trkpt>
      <trkpt lat="43.97526" lon="6.80523">
        <ele>1150.84</ele>
        <time>2025-03-08T13:54:28Z</time>
      </trkpt>
      <trkpt lat="43.97526" lon="6.80522">
        <ele>1151.8</ele>
        <time>2025-03-08T13:54:30Z</time>
      </trkpt>
      <trkpt lat="43.97519" lon="6.80503">
        <ele>1152.76</ele>
        <time>2025-03-08T13:54:46Z</time>
      </trkpt>
      <trkpt lat="43.9751" lon="6.80479">
        <ele>1154.2</ele>
        <time>2025-03-08T13:55:06Z</time>
      </trkpt>
      <trkpt lat="43.97504" lon="6.80464">
        <ele>1153.24</ele>
        <time>2025-03-08T13:55:17Z</time>
      </trkpt>
      <trkpt lat="43.97493" lon="6.80435">
        <ele>1151.32</ele>
        <time>2025-03-08T13:55:36Z</time>
      </trkpt>
      <trkpt lat="43.9749" lon="6.80419">
        <ele>1149.87</ele>
        <time>2025-03-08T13:55:55Z</time>
      </trkpt>
      <trkpt lat="43.9749" lon="6.80417">
        <ele>1149.39</ele>
        <time>2025-03-08T13:56:16Z</time>
      </trkpt>
      <trkpt lat="43.9749" lon="6.8041">
        <ele>1148.91</ele>
        <time>2025-03-08T13:56:39Z</time>
      </trkpt>
      <trkpt lat="43.9749" lon="6.80409">
        <ele>1148.43</ele>
        <time>2025-03-08T13:57:10Z</time>
      </trkpt>
      <trkpt lat="43.9749" lon="6.80404">
        <ele>1148.43</ele>
        <time>2025-03-08T13:57:40Z</time>
      </trkpt>
      <trkpt lat="43.97489" lon="6.80404">
        <ele>1149.87</ele>
        <time>2025-03-08T13:57:42Z</time>
      </trkpt>
      <trkpt lat="43.97487" lon="6.80398">
        <ele>1149.87</ele>
        <time>2025-03-08T13:58:00Z</time>
      </trkpt>
      <trkpt lat="43.97486" lon="6.80384">
        <ele>1146.51</ele>
        <time>2025-03-08T13:58:11Z</time>
      </trkpt>
      <trkpt lat="43.97486" lon="6.8038">
        <ele>1145.55</ele>
        <time>2025-03-08T13:58:35Z</time>
      </trkpt>
      <trkpt lat="43.97487" lon="6.8035">
        <ele>1142.66</ele>
        <time>2025-03-08T13:58:54Z</time>
      </trkpt>
      <trkpt lat="43.97487" lon="6.80325">
        <ele>1139.78</ele>
        <time>2025-03-08T13:59:12Z</time>
      </trkpt>
      <trkpt lat="43.97483" lon="6.80294">
        <ele>1138.82</ele>
        <time>2025-03-08T13:59:30Z</time>
      </trkpt>
      <trkpt lat="43.97485" lon="6.80265">
        <ele>1138.82</ele>
        <time>2025-03-08T13:59:48Z</time>
      </trkpt>
      <trkpt lat="43.9748" lon="6.80243">
        <ele>1138.82</ele>
        <time>2025-03-08T14:00:02Z</time>
      </trkpt>
      <trkpt lat="43.97473" lon="6.80216">
        <ele>1136.9</ele>
        <time>2025-03-08T14:00:18Z</time>
      </trkpt>
      <trkpt lat="43.97472" lon="6.80211">
        <ele>1135.94</ele>
        <time>2025-03-08T14:00:21Z</time>
      </trkpt>
      <trkpt lat="43.97469" lon="6.80192">
        <ele>1133.05</ele>
        <time>2025-03-08T14:00:39Z</time>
      </trkpt>
      <trkpt lat="43.9747" lon="6.80177">
        <ele>1130.17</ele>
        <time>2025-03-08T14:00:55Z</time>
      </trkpt>
      <trkpt lat="43.97468" lon="6.80165">
        <ele>1126.8</ele>
        <time>2025-03-08T14:01:05Z</time>
      </trkpt>
      <trkpt lat="43.97454" lon="6.80153">
        <ele>1125.36</ele>
        <time>2025-03-08T14:01:23Z</time>
      </trkpt>
      <trkpt lat="43.9745" lon="6.80149">
        <ele>1123.92</ele>
        <time>2025-03-08T14:01:29Z</time>
      </trkpt>
      <trkpt lat="43.97448" lon="6.80145">
        <ele>1122</ele>
        <time>2025-03-08T14:01:35Z</time>
      </trkpt>
      <trkpt lat="43.97435" lon="6.80139">
        <ele>1118.15</ele>
        <time>2025-03-08T14:01:50Z</time>
      </trkpt>
      <trkpt lat="43.9743" lon="6.80128">
        <ele>1115.27</ele>
        <time>2025-03-08T14:02:02Z</time>
      </trkpt>
      <trkpt lat="43.97429" lon="6.80127">
        <ele>1115.27</ele>
        <time>2025-03-08T14:02:03Z</time>
      </trkpt>
      <trkpt lat="43.97426" lon="6.80121">
        <ele>1113.34</ele>
        <time>2025-03-08T14:02:09Z</time>
      </trkpt>
      <trkpt lat="43.97422" lon="6.80108">
        <ele>1110.94</ele>
        <time>2025-03-08T14:02:27Z</time>
      </trkpt>
      <trkpt lat="43.9742" lon="6.80097">
        <ele>1108.06</ele>
        <time>2025-03-08T14:02:44Z</time>
      </trkpt>
      <trkpt lat="43.97412" lon="6.80092">
        <ele>1104.69</ele>
        <time>2025-03-08T14:02:56Z</time>
      </trkpt>
      <trkpt lat="43.97407" lon="6.80082">
        <ele>1104.69</ele>
        <time>2025-03-08T14:03:19Z</time>
      </trkpt>
      <trkpt lat="43.97409" lon="6.8007">
        <ele>1101.33</ele>
        <time>2025-03-08T14:03:32Z</time>
      </trkpt>
      <trkpt lat="43.9741" lon="6.80062">
        <ele>1099.4</ele>
        <time>2025-03-08T14:03:45Z</time>
      </trkpt>
      <trkpt lat="43.9741" lon="6.80053">
        <ele>1096.04</ele>
        <time>2025-03-08T14:03:56Z</time>
      </trkpt>
      <trkpt lat="43.97406" lon="6.8005">
        <ele>1095.08</ele>
        <time>2025-03-08T14:04:10Z</time>
      </trkpt>
      <trkpt lat="43.97402" lon="6.80043">
        <ele>1092.68</ele>
        <time>2025-03-08T14:04:28Z</time>
      </trkpt>
      <trkpt lat="43.974" lon="6.80038">
        <ele>1090.75</ele>
        <time>2025-03-08T14:04:43Z</time>
      </trkpt>
      <trkpt lat="43.97393" lon="6.80028">
        <ele>1087.87</ele>
        <time>2025-03-08T14:04:58Z</time>
      </trkpt>
      <trkpt lat="43.97391" lon="6.80021">
        <ele>1086.43</ele>
        <time>2025-03-08T14:05:11Z</time>
      </trkpt>
      <trkpt lat="43.97387" lon="6.80012">
        <ele>1085.95</ele>
        <time>2025-03-08T14:05:32Z</time>
      </trkpt>
      <trkpt lat="43.97386" lon="6.80007">
        <ele>1084.99</ele>
        <time>2025-03-08T14:05:49Z</time>
      </trkpt>
      <trkpt lat="43.97381" lon="6.80004">
        <ele>1084.02</ele>
        <time>2025-03-08T14:06:04Z</time>
      </trkpt>
      <trkpt lat="43.97372" lon="6.79991">
        <ele>1082.58</ele>
        <time>2025-03-08T14:06:14Z</time>
      </trkpt>
      <trkpt lat="43.97362" lon="6.79975">
        <ele>1079.22</ele>
        <time>2025-03-08T14:06:26Z</time>
      </trkpt>
      <trkpt lat="43.97354" lon="6.7997">
        <ele>1077.78</ele>
        <time>2025-03-08T14:06:34Z</time>
      </trkpt>
      <trkpt lat="43.97354" lon="6.79954">
        <ele>1075.37</ele>
        <time>2025-03-08T14:06:46Z</time>
      </trkpt>
      <trkpt lat="43.97355" lon="6.79944">
        <ele>1072.01</ele>
        <time>2025-03-08T14:06:57Z</time>
      </trkpt>
      <trkpt lat="43.97358" lon="6.79935">
        <ele>1068.64</ele>
        <time>2025-03-08T14:07:11Z</time>
      </trkpt>
      <trkpt lat="43.97361" lon="6.79927">
        <ele>1065.28</ele>
        <time>2025-03-08T14:07:23Z</time>
      </trkpt>
      <trkpt lat="43.97363" lon="6.79921">
        <ele>1062.39</ele>
        <time>2025-03-08T14:07:37Z</time>
      </trkpt>
      <trkpt lat="43.97362" lon="6.79916">
        <ele>1059.03</ele>
        <time>2025-03-08T14:07:48Z</time>
      </trkpt>
      <trkpt lat="43.97359" lon="6.79908">
        <ele>1056.15</ele>
        <time>2025-03-08T14:07:59Z</time>
      </trkpt>
      <trkpt lat="43.97358" lon="6.79893">
        <ele>1052.78</ele>
        <time>2025-03-08T14:08:11Z</time>
      </trkpt>
      <trkpt lat="43.97356" lon="6.79882">
        <ele>1050.86</ele>
        <time>2025-03-08T14:08:19Z</time>
      </trkpt>
      <trkpt lat="43.97347" lon="6.79876">
        <ele>1047.01</ele>
        <time>2025-03-08T14:08:31Z</time>
      </trkpt>
      <trkpt lat="43.97342" lon="6.79861">
        <ele>1044.61</ele>
        <time>2025-03-08T14:08:44Z</time>
      </trkpt>
      <trkpt lat="43.97337" lon="6.79848">
        <ele>1043.17</ele>
        <time>2025-03-08T14:09:00Z</time>
      </trkpt>
      <trkpt lat="43.9734" lon="6.79837">
        <ele>1040.28</ele>
        <time>2025-03-08T14:09:13Z</time>
      </trkpt>
      <trkpt lat="43.9734" lon="6.79832">
        <ele>1036.92</ele>
        <time>2025-03-08T14:09:25Z</time>
      </trkpt>
      <trkpt lat="43.9734" lon="6.79832">
        <ele>1036.92</ele>
        <time>2025-03-08T14:09:26Z</time>
      </trkpt>
      <trkpt lat="43.97332" lon="6.79817">
        <ele>1033.55</ele>
        <time>2025-03-08T14:09:40Z</time>
      </trkpt>
      <trkpt lat="43.97327" lon="6.79805">
        <ele>1030.19</ele>
        <time>2025-03-08T14:09:54Z</time>
      </trkpt>
      <trkpt lat="43.97323" lon="6.79793">
        <ele>1027.31</ele>
        <time>2025-03-08T14:10:06Z</time>
      </trkpt>
      <trkpt lat="43.97318" lon="6.79778">
        <ele>1024.42</ele>
        <time>2025-03-08T14:10:18Z</time>
      </trkpt>
      <trkpt lat="43.97316" lon="6.7977">
        <ele>1022.98</ele>
        <time>2025-03-08T14:10:25Z</time>
      </trkpt>
      <trkpt lat="43.97313" lon="6.79762">
        <ele>1021.06</ele>
        <time>2025-03-08T14:10:31Z</time>
      </trkpt>
      <trkpt lat="43.97311" lon="6.79742">
        <ele>1017.69</ele>
        <time>2025-03-08T14:10:46Z</time>
      </trkpt>
      <trkpt lat="43.9731" lon="6.79726">
        <ele>1014.33</ele>
        <time>2025-03-08T14:10:59Z</time>
      </trkpt>
      <trkpt lat="43.9731" lon="6.79716">
        <ele>1012.41</ele>
        <time>2025-03-08T14:11:11Z</time>
      </trkpt>
      <trkpt lat="43.97311" lon="6.7971">
        <ele>1011.44</ele>
        <time>2025-03-08T14:11:31Z</time>
      </trkpt>
      <trkpt lat="43.97312" lon="6.79712">
        <ele>1011.44</ele>
        <time>2025-03-08T14:11:51Z</time>
      </trkpt>
      <trkpt lat="43.97311" lon="6.79708">
        <ele>1010.96</ele>
        <time>2025-03-08T14:12:15Z</time>
      </trkpt>
      <trkpt lat="43.97311" lon="6.79705">
        <ele>1010.96</ele>
        <time>2025-03-08T14:12:30Z</time>
      </trkpt>
      <trkpt lat="43.97306" lon="6.79695">
        <ele>1008.08</ele>
        <time>2025-03-08T14:12:46Z</time>
      </trkpt>
      <trkpt lat="43.97303" lon="6.79685">
        <ele>1004.72</ele>
        <time>2025-03-08T14:12:58Z</time>
      </trkpt>
      <trkpt lat="43.97297" lon="6.79671">
        <ele>1001.35</ele>
        <time>2025-03-08T14:13:11Z</time>
      </trkpt>
      <trkpt lat="43.97291" lon="6.7965">
        <ele>998.47</ele>
        <time>2025-03-08T14:13:27Z</time>
      </trkpt>
      <trkpt lat="43.97285" lon="6.7963">
        <ele>995.58</ele>
        <time>2025-03-08T14:13:41Z</time>
      </trkpt>
      <trkpt lat="43.9728" lon="6.79615">
        <ele>994.14</ele>
        <time>2025-03-08T14:13:56Z</time>
      </trkpt>
      <trkpt lat="43.9728" lon="6.79613">
        <ele>993.66</ele>
        <time>2025-03-08T14:14:11Z</time>
      </trkpt>
      <trkpt lat="43.97283" lon="6.79616">
        <ele>992.22</ele>
        <time>2025-03-08T14:14:28Z</time>
      </trkpt>
      <trkpt lat="43.97279" lon="6.79625">
        <ele>988.85</ele>
        <time>2025-03-08T14:14:40Z</time>
      </trkpt>
      <trkpt lat="43.97277" lon="6.79632">
        <ele>985.97</ele>
        <time>2025-03-08T14:14:53Z</time>
      </trkpt>
      <trkpt lat="43.97269" lon="6.79637">
        <ele>983.57</ele>
        <time>2025-03-08T14:15:06Z</time>
      </trkpt>
      <trkpt lat="43.9727" lon="6.79646">
        <ele>980.2</ele>
        <time>2025-03-08T14:15:20Z</time>
      </trkpt>
      <trkpt lat="43.97265" lon="6.79653">
        <ele>977.8</ele>
        <time>2025-03-08T14:15:32Z</time>
      </trkpt>
      <trkpt lat="43.97259" lon="6.7966">
        <ele>974.91</ele>
        <time>2025-03-08T14:15:45Z</time>
      </trkpt>
      <trkpt lat="43.97254" lon="6.79671">
        <ele>972.03</ele>
        <time>2025-03-08T14:15:58Z</time>
      </trkpt>
      <trkpt lat="43.97246" lon="6.79683">
        <ele>969.15</ele>
        <time>2025-03-08T14:16:13Z</time>
      </trkpt>
      <trkpt lat="43.97239" lon="6.79681">
        <ele>966.26</ele>
        <time>2025-03-08T14:16:27Z</time>
      </trkpt>
      <trkpt lat="43.97238" lon="6.79672">
        <ele>964.34</ele>
        <time>2025-03-08T14:16:39Z</time>
      </trkpt>
      <trkpt lat="43.97238" lon="6.79662">
        <ele>961.94</ele>
        <time>2025-03-08T14:16:52Z</time>
      </trkpt>
      <trkpt lat="43.97239" lon="6.79651">
        <ele>959.05</ele>
        <time>2025-03-08T14:17:06Z</time>
      </trkpt>
      <trkpt lat="43.97241" lon="6.79639">
        <ele>955.69</ele>
        <time>2025-03-08T14:17:20Z</time>
      </trkpt>
      <trkpt lat="43.9724" lon="6.79637">
        <ele>953.28</ele>
        <time>2025-03-08T14:17:34Z</time>
      </trkpt>
      <trkpt lat="43.97238" lon="6.79649">
        <ele>950.4</ele>
        <time>2025-03-08T14:17:46Z</time>
      </trkpt>
      <trkpt lat="43.9723" lon="6.79664">
        <ele>947.52</ele>
        <time>2025-03-08T14:18:01Z</time>
      </trkpt>
      <trkpt lat="43.97221" lon="6.79676">
        <ele>945.59</ele>
        <time>2025-03-08T14:18:14Z</time>
      </trkpt>
      <trkpt lat="43.97213" lon="6.7969">
        <ele>942.71</ele>
        <time>2025-03-08T14:18:30Z</time>
      </trkpt>
      <trkpt lat="43.97211" lon="6.79703">
        <ele>939.35</ele>
        <time>2025-03-08T14:18:43Z</time>
      </trkpt>
      <trkpt lat="43.97211" lon="6.79715">
        <ele>937.9</ele>
        <time>2025-03-08T14:19:00Z</time>
      </trkpt>
      <trkpt lat="43.97211" lon="6.79725">
        <ele>935.02</ele>
        <time>2025-03-08T14:19:13Z</time>
      </trkpt>
      <trkpt lat="43.97212" lon="6.79734">
        <ele>932.14</ele>
        <time>2025-03-08T14:19:27Z</time>
      </trkpt>
      <trkpt lat="43.97212" lon="6.79746">
        <ele>928.77</ele>
        <time>2025-03-08T14:19:39Z</time>
      </trkpt>
      <trkpt lat="43.97215" lon="6.79761">
        <ele>926.85</ele>
        <time>2025-03-08T14:19:54Z</time>
      </trkpt>
      <trkpt lat="43.97217" lon="6.79779">
        <ele>923.48</ele>
        <time>2025-03-08T14:20:09Z</time>
      </trkpt>
      <trkpt lat="43.97217" lon="6.79801">
        <ele>923</ele>
        <time>2025-03-08T14:20:23Z</time>
      </trkpt>
      <trkpt lat="43.97218" lon="6.79821">
        <ele>920.12</ele>
        <time>2025-03-08T14:20:38Z</time>
      </trkpt>
      <trkpt lat="43.97213" lon="6.79848">
        <ele>917.72</ele>
        <time>2025-03-08T14:20:56Z</time>
      </trkpt>
      <trkpt lat="43.97213" lon="6.79859">
        <ele>917.24</ele>
        <time>2025-03-08T14:21:09Z</time>
      </trkpt>
      <trkpt lat="43.97214" lon="6.79856">
        <ele>915.79</ele>
        <time>2025-03-08T14:21:20Z</time>
      </trkpt>
      <trkpt lat="43.97211" lon="6.79858">
        <ele>917.24</ele>
        <time>2025-03-08T14:21:31Z</time>
      </trkpt>
      <trkpt lat="43.97208" lon="6.79857">
        <ele>916.27</ele>
        <time>2025-03-08T14:21:47Z</time>
      </trkpt>
      <trkpt lat="43.97205" lon="6.79853">
        <ele>917.72</ele>
        <time>2025-03-08T14:22:15Z</time>
      </trkpt>
      <trkpt lat="43.97205" lon="6.79854">
        <ele>917.72</ele>
        <time>2025-03-08T14:22:16Z</time>
      </trkpt>
      <trkpt lat="43.97204" lon="6.79858">
        <ele>917.72</ele>
        <time>2025-03-08T14:22:32Z</time>
      </trkpt>
      <trkpt lat="43.97202" lon="6.79877">
        <ele>918.2</ele>
        <time>2025-03-08T14:22:46Z</time>
      </trkpt>
      <trkpt lat="43.9721" lon="6.79893">
        <ele>919.16</ele>
        <time>2025-03-08T14:23:03Z</time>
      </trkpt>
      <trkpt lat="43.97206" lon="6.79895">
        <ele>917.24</ele>
        <time>2025-03-08T14:23:10Z</time>
      </trkpt>
      <trkpt lat="43.972" lon="6.79902">
        <ele>914.83</ele>
        <time>2025-03-08T14:23:22Z</time>
      </trkpt>
      <trkpt lat="43.97188" lon="6.79906">
        <ele>912.91</ele>
        <time>2025-03-08T14:23:36Z</time>
      </trkpt>
      <trkpt lat="43.97185" lon="6.79928">
        <ele>910.51</ele>
        <time>2025-03-08T14:23:47Z</time>
      </trkpt>
      <trkpt lat="43.97187" lon="6.79938">
        <ele>907.62</ele>
        <time>2025-03-08T14:24:00Z</time>
      </trkpt>
      <trkpt lat="43.97182" lon="6.79941">
        <ele>905.22</ele>
        <time>2025-03-08T14:24:14Z</time>
      </trkpt>
      <trkpt lat="43.97186" lon="6.79956">
        <ele>901.85</ele>
        <time>2025-03-08T14:24:29Z</time>
      </trkpt>
      <trkpt lat="43.97185" lon="6.79967">
        <ele>899.45</ele>
        <time>2025-03-08T14:24:42Z</time>
      </trkpt>
      <trkpt lat="43.97181" lon="6.79972">
        <ele>897.53</ele>
        <time>2025-03-08T14:24:52Z</time>
      </trkpt>
      <trkpt lat="43.97175" lon="6.79976">
        <ele>895.12</ele>
        <time>2025-03-08T14:25:07Z</time>
      </trkpt>
      <trkpt lat="43.97172" lon="6.79986">
        <ele>893.2</ele>
        <time>2025-03-08T14:25:19Z</time>
      </trkpt>
      <trkpt lat="43.97167" lon="6.8">
        <ele>889.84</ele>
        <time>2025-03-08T14:25:32Z</time>
      </trkpt>
      <trkpt lat="43.97167" lon="6.80005">
        <ele>889.84</ele>
        <time>2025-03-08T14:25:35Z</time>
      </trkpt>
      <trkpt lat="43.97169" lon="6.80024">
        <ele>886.95</ele>
        <time>2025-03-08T14:25:48Z</time>
      </trkpt>
      <trkpt lat="43.97169" lon="6.80029">
        <ele>885.03</ele>
        <time>2025-03-08T14:26:01Z</time>
      </trkpt>
      <trkpt lat="43.97167" lon="6.80032">
        <ele>883.59</ele>
        <time>2025-03-08T14:26:12Z</time>
      </trkpt>
      <trkpt lat="43.97164" lon="6.80034">
        <ele>882.63</ele>
        <time>2025-03-08T14:26:18Z</time>
      </trkpt>
      <trkpt lat="43.97158" lon="6.80031">
        <ele>879.74</ele>
        <time>2025-03-08T14:26:31Z</time>
      </trkpt>
      <trkpt lat="43.97152" lon="6.80033">
        <ele>877.34</ele>
        <time>2025-03-08T14:26:42Z</time>
      </trkpt>
      <trkpt lat="43.97142" lon="6.80034">
        <ele>874.46</ele>
        <time>2025-03-08T14:26:54Z</time>
      </trkpt>
      <trkpt lat="43.97135" lon="6.80041">
        <ele>872.05</ele>
        <time>2025-03-08T14:27:06Z</time>
      </trkpt>
      <trkpt lat="43.97131" lon="6.8004">
        <ele>871.09</ele>
        <time>2025-03-08T14:27:10Z</time>
      </trkpt>
      <trkpt lat="43.97116" lon="6.80036">
        <ele>868.69</ele>
        <time>2025-03-08T14:27:23Z</time>
      </trkpt>
      <trkpt lat="43.97111" lon="6.80039">
        <ele>868.21</ele>
        <time>2025-03-08T14:27:34Z</time>
      </trkpt>
      <trkpt lat="43.97111" lon="6.8004">
        <ele>868.21</ele>
        <time>2025-03-08T14:27:36Z</time>
      </trkpt>
      <trkpt lat="43.97109" lon="6.80053">
        <ele>867.73</ele>
        <time>2025-03-08T14:27:45Z</time>
      </trkpt>
      <trkpt lat="43.97107" lon="6.80062">
        <ele>866.77</ele>
        <time>2025-03-08T14:27:50Z</time>
      </trkpt>
      <trkpt lat="43.97111" lon="6.80093">
        <ele>864.36</ele>
        <time>2025-03-08T14:28:03Z</time>
      </trkpt>
      <trkpt lat="43.97123" lon="6.80125">
        <ele>861.48</ele>
        <time>2025-03-08T14:28:20Z</time>
      </trkpt>
      <trkpt lat="43.97124" lon="6.80132">
        <ele>860.52</ele>
        <time>2025-03-08T14:28:35Z</time>
      </trkpt>
      <trkpt lat="43.97127" lon="6.80134">
        <ele>860.04</ele>
        <time>2025-03-08T14:28:51Z</time>
      </trkpt>
      <trkpt lat="43.97129" lon="6.80137">
        <ele>859.08</ele>
        <time>2025-03-08T14:29:03Z</time>
      </trkpt>
      <trkpt lat="43.97132" lon="6.80148">
        <ele>855.71</ele>
        <time>2025-03-08T14:29:16Z</time>
      </trkpt>
      <trkpt lat="43.97129" lon="6.80161">
        <ele>852.83</ele>
        <time>2025-03-08T14:29:30Z</time>
      </trkpt>
      <trkpt lat="43.97129" lon="6.80171">
        <ele>850.9</ele>
        <time>2025-03-08T14:29:44Z</time>
      </trkpt>
      <trkpt lat="43.97125" lon="6.80176">
        <ele>848.98</ele>
        <time>2025-03-08T14:29:57Z</time>
      </trkpt>
      <trkpt lat="43.97125" lon="6.80181">
        <ele>847.54</ele>
        <time>2025-03-08T14:30:02Z</time>
      </trkpt>
      <trkpt lat="43.97125" lon="6.8019">
        <ele>845.14</ele>
        <time>2025-03-08T14:30:09Z</time>
      </trkpt>
      <trkpt lat="43.97127" lon="6.80204">
        <ele>842.25</ele>
        <time>2025-03-08T14:30:22Z</time>
      </trkpt>
      <trkpt lat="43.97124" lon="6.80206">
        <ele>840.33</ele>
        <time>2025-03-08T14:30:33Z</time>
      </trkpt>
      <trkpt lat="43.97121" lon="6.80209">
        <ele>838.89</ele>
        <time>2025-03-08T14:30:43Z</time>
      </trkpt>
      <trkpt lat="43.97129" lon="6.80221">
        <ele>836</ele>
        <time>2025-03-08T14:30:56Z</time>
      </trkpt>
      <trkpt lat="43.97133" lon="6.8023">
        <ele>834.56</ele>
        <time>2025-03-08T14:31:08Z</time>
      </trkpt>
      <trkpt lat="43.97131" lon="6.80235">
        <ele>832.16</ele>
        <time>2025-03-08T14:31:18Z</time>
      </trkpt>
      <trkpt lat="43.97129" lon="6.8024">
        <ele>830.72</ele>
        <time>2025-03-08T14:31:29Z</time>
      </trkpt>
      <trkpt lat="43.97128" lon="6.80244">
        <ele>828.31</ele>
        <time>2025-03-08T14:31:43Z</time>
      </trkpt>
      <trkpt lat="43.97126" lon="6.80256">
        <ele>825.91</ele>
        <time>2025-03-08T14:31:57Z</time>
      </trkpt>
      <trkpt lat="43.97126" lon="6.80261">
        <ele>825.43</ele>
        <time>2025-03-08T14:32:00Z</time>
      </trkpt>
      <trkpt lat="43.97136" lon="6.80273">
        <ele>823.51</ele>
        <time>2025-03-08T14:32:19Z</time>
      </trkpt>
      <trkpt lat="43.97131" lon="6.80278">
        <ele>823.03</ele>
        <time>2025-03-08T14:32:28Z</time>
      </trkpt>
      <trkpt lat="43.9712" lon="6.80286">
        <ele>819.66</ele>
        <time>2025-03-08T14:32:45Z</time>
      </trkpt>
      <trkpt lat="43.97115" lon="6.8029">
        <ele>817.26</ele>
        <time>2025-03-08T14:33:00Z</time>
      </trkpt>
      <trkpt lat="43.97108" lon="6.80292">
        <ele>814.37</ele>
        <time>2025-03-08T14:33:12Z</time>
      </trkpt>
      <trkpt lat="43.971" lon="6.803">
        <ele>811.49</ele>
        <time>2025-03-08T14:33:26Z</time>
      </trkpt>
      <trkpt lat="43.97101" lon="6.80308">
        <ele>810.05</ele>
        <time>2025-03-08T14:33:31Z</time>
      </trkpt>
      <trkpt lat="43.97102" lon="6.80325">
        <ele>808.61</ele>
        <time>2025-03-08T14:33:45Z</time>
      </trkpt>
      <trkpt lat="43.97103" lon="6.8033">
        <ele>808.13</ele>
        <time>2025-03-08T14:33:57Z</time>
      </trkpt>
      <trkpt lat="43.97102" lon="6.80332">
        <ele>807.16</ele>
        <time>2025-03-08T14:34:15Z</time>
      </trkpt>
      <trkpt lat="43.97101" lon="6.8033">
        <ele>807.16</ele>
        <time>2025-03-08T14:34:36Z</time>
      </trkpt>
      <trkpt lat="43.97103" lon="6.8033">
        <ele>807.16</ele>
        <time>2025-03-08T14:34:55Z</time>
      </trkpt>
      <trkpt lat="43.97103" lon="6.80331">
        <ele>807.16</ele>
        <time>2025-03-08T14:35:14Z</time>
      </trkpt>
      <trkpt lat="43.97103" lon="6.8033">
        <ele>807.16</ele>
        <time>2025-03-08T14:35:33Z</time>
      </trkpt>
      <trkpt lat="43.971" lon="6.8033">
        <ele>808.13</ele>
        <time>2025-03-08T14:35:44Z</time>
      </trkpt>
      <trkpt lat="43.971" lon="6.80333">
        <ele>808.13</ele>
        <time>2025-03-08T14:36:00Z</time>
      </trkpt>
      <trkpt lat="43.97102" lon="6.80339">
        <ele>808.61</ele>
        <time>2025-03-08T14:36:12Z</time>
      </trkpt>
      <trkpt lat="43.97099" lon="6.80344">
        <ele>809.57</ele>
        <time>2025-03-08T14:36:24Z</time>
      </trkpt>
      <trkpt lat="43.97097" lon="6.80345">
        <ele>808.61</ele>
        <time>2025-03-08T14:36:26Z</time>
      </trkpt>
      <trkpt lat="43.97089" lon="6.80347">
        <ele>806.2</ele>
        <time>2025-03-08T14:36:40Z</time>
      </trkpt>
      <trkpt lat="43.97085" lon="6.80341">
        <ele>803.8</ele>
        <time>2025-03-08T14:36:50Z</time>
      </trkpt>
      <trkpt lat="43.97078" lon="6.80344">
        <ele>800.92</ele>
        <time>2025-03-08T14:37:03Z</time>
      </trkpt>
      <trkpt lat="43.97071" lon="6.80346">
        <ele>798.51</ele>
        <time>2025-03-08T14:37:16Z</time>
      </trkpt>
      <trkpt lat="43.97072" lon="6.8035">
        <ele>798.51</ele>
        <time>2025-03-08T14:37:29Z</time>
      </trkpt>
      <trkpt lat="43.97071" lon="6.80348">
        <ele>798.51</ele>
        <time>2025-03-08T14:37:49Z</time>
      </trkpt>
      <trkpt lat="43.97071" lon="6.80348">
        <ele>798.51</ele>
        <time>2025-03-08T14:38:07Z</time>
      </trkpt>
      <trkpt lat="43.97072" lon="6.80347">
        <ele>797.55</ele>
        <time>2025-03-08T14:38:28Z</time>
      </trkpt>
      <trkpt lat="43.97068" lon="6.80346">
        <ele>795.63</ele>
        <time>2025-03-08T14:38:43Z</time>
      </trkpt>
      <trkpt lat="43.97066" lon="6.80362">
        <ele>792.74</ele>
        <time>2025-03-08T14:38:58Z</time>
      </trkpt>
      <trkpt lat="43.97065" lon="6.80361">
        <ele>792.26</ele>
        <time>2025-03-08T14:38:59Z</time>
      </trkpt>
      <trkpt lat="43.97061" lon="6.80348">
        <ele>789.38</ele>
        <time>2025-03-08T14:39:16Z</time>
      </trkpt>
      <trkpt lat="43.97057" lon="6.80356">
        <ele>786.98</ele>
        <time>2025-03-08T14:39:29Z</time>
      </trkpt>
      <trkpt lat="43.97057" lon="6.80371">
        <ele>783.61</ele>
        <time>2025-03-08T14:39:43Z</time>
      </trkpt>
      <trkpt lat="43.97054" lon="6.80382">
        <ele>782.17</ele>
        <time>2025-03-08T14:39:55Z</time>
      </trkpt>
      <trkpt lat="43.97049" lon="6.80388">
        <ele>780.25</ele>
        <time>2025-03-08T14:40:07Z</time>
      </trkpt>
      <trkpt lat="43.97049" lon="6.80392">
        <ele>779.77</ele>
        <time>2025-03-08T14:40:10Z</time>
      </trkpt>
      <trkpt lat="43.97045" lon="6.80408">
        <ele>776.4</ele>
        <time>2025-03-08T14:40:24Z</time>
      </trkpt>
      <trkpt lat="43.97045" lon="6.80415">
        <ele>776.4</ele>
        <time>2025-03-08T14:40:31Z</time>
      </trkpt>
      <trkpt lat="43.97038" lon="6.80421">
        <ele>773.04</ele>
        <time>2025-03-08T14:40:47Z</time>
      </trkpt>
      <trkpt lat="43.97031" lon="6.80432">
        <ele>770.15</ele>
        <time>2025-03-08T14:41:02Z</time>
      </trkpt>
      <trkpt lat="43.97025" lon="6.80436">
        <ele>767.75</ele>
        <time>2025-03-08T14:41:13Z</time>
      </trkpt>
      <trkpt lat="43.97017" lon="6.80455">
        <ele>764.39</ele>
        <time>2025-03-08T14:41:28Z</time>
      </trkpt>
      <trkpt lat="43.97012" lon="6.80473">
        <ele>764.39</ele>
        <time>2025-03-08T14:41:42Z</time>
      </trkpt>
      <trkpt lat="43.97007" lon="6.80483">
        <ele>764.39</ele>
        <time>2025-03-08T14:41:56Z</time>
      </trkpt>
      <trkpt lat="43.97004" lon="6.80484">
        <ele>763.9</ele>
        <time>2025-03-08T14:42:03Z</time>
      </trkpt>
      <trkpt lat="43.97003" lon="6.80486">
        <ele>763.9</ele>
        <time>2025-03-08T14:42:05Z</time>
      </trkpt>
      <trkpt lat="43.96995" lon="6.80494">
        <ele>761.02</ele>
        <time>2025-03-08T14:42:20Z</time>
      </trkpt>
      <trkpt lat="43.96988" lon="6.80501">
        <ele>758.14</ele>
        <time>2025-03-08T14:42:34Z</time>
      </trkpt>
      <trkpt lat="43.96975" lon="6.80507">
        <ele>754.77</ele>
        <time>2025-03-08T14:42:50Z</time>
      </trkpt>
      <trkpt lat="43.96967" lon="6.80509">
        <ele>751.89</ele>
        <time>2025-03-08T14:43:04Z</time>
      </trkpt>
      <trkpt lat="43.96959" lon="6.80507">
        <ele>748.52</ele>
        <time>2025-03-08T14:43:18Z</time>
      </trkpt>
      <trkpt lat="43.96952" lon="6.80509">
        <ele>746.12</ele>
        <time>2025-03-08T14:43:28Z</time>
      </trkpt>
      <trkpt lat="43.96943" lon="6.80508">
        <ele>743.72</ele>
        <time>2025-03-08T14:43:42Z</time>
      </trkpt>
      <trkpt lat="43.96936" lon="6.80515">
        <ele>740.35</ele>
        <time>2025-03-08T14:43:53Z</time>
      </trkpt>
      <trkpt lat="43.96934" lon="6.8052">
        <ele>737.95</ele>
        <time>2025-03-08T14:44:06Z</time>
      </trkpt>
      <trkpt lat="43.96928" lon="6.80525">
        <ele>736.51</ele>
        <time>2025-03-08T14:44:22Z</time>
      </trkpt>
      <trkpt lat="43.96926" lon="6.80528">
        <ele>735.55</ele>
        <time>2025-03-08T14:44:27Z</time>
      </trkpt>
      <trkpt lat="43.96926" lon="6.80525">
        <ele>735.55</ele>
        <time>2025-03-08T14:44:29Z</time>
      </trkpt>
      <trkpt lat="43.96922" lon="6.80521">
        <ele>733.14</ele>
        <time>2025-03-08T14:44:41Z</time>
      </trkpt>
      <trkpt lat="43.96917" lon="6.80526">
        <ele>729.78</ele>
        <time>2025-03-08T14:44:54Z</time>
      </trkpt>
      <trkpt lat="43.96912" lon="6.8053">
        <ele>727.86</ele>
        <time>2025-03-08T14:45:05Z</time>
      </trkpt>
      <trkpt lat="43.96909" lon="6.80529">
        <ele>726.41</ele>
        <time>2025-03-08T14:45:10Z</time>
      </trkpt>
      <trkpt lat="43.969" lon="6.80527">
        <ele>723.53</ele>
        <time>2025-03-08T14:45:24Z</time>
      </trkpt>
      <trkpt lat="43.96889" lon="6.80522">
        <ele>720.16</ele>
        <time>2025-03-08T14:45:41Z</time>
      </trkpt>
      <trkpt lat="43.96884" lon="6.80522">
        <ele>717.76</ele>
        <time>2025-03-08T14:45:53Z</time>
      </trkpt>
      <trkpt lat="43.96876" lon="6.80518">
        <ele>715.36</ele>
        <time>2025-03-08T14:46:06Z</time>
      </trkpt>
      <trkpt lat="43.96869" lon="6.80524">
        <ele>712.47</ele>
        <time>2025-03-08T14:46:17Z</time>
      </trkpt>
      <trkpt lat="43.96863" lon="6.80524">
        <ele>710.07</ele>
        <time>2025-03-08T14:46:25Z</time>
      </trkpt>
      <trkpt lat="43.96859" lon="6.80525">
        <ele>709.11</ele>
        <time>2025-03-08T14:46:29Z</time>
      </trkpt>
      <trkpt lat="43.96841" lon="6.80521">
        <ele>706.71</ele>
        <time>2025-03-08T14:46:46Z</time>
      </trkpt>
      <trkpt lat="43.96823" lon="6.80519">
        <ele>704.3</ele>
        <time>2025-03-08T14:47:05Z</time>
      </trkpt>
      <trkpt lat="43.96815" lon="6.8052">
        <ele>700.94</ele>
        <time>2025-03-08T14:47:16Z</time>
      </trkpt>
      <trkpt lat="43.96807" lon="6.80516">
        <ele>697.57</ele>
        <time>2025-03-08T14:47:29Z</time>
      </trkpt>
      <trkpt lat="43.96801" lon="6.80516">
        <ele>697.09</ele>
        <time>2025-03-08T14:47:42Z</time>
      </trkpt>
      <trkpt lat="43.96797" lon="6.80514">
        <ele>696.13</ele>
        <time>2025-03-08T14:47:56Z</time>
      </trkpt>
      <trkpt lat="43.96794" lon="6.80514">
        <ele>695.65</ele>
        <time>2025-03-08T14:48:07Z</time>
      </trkpt>
      <trkpt lat="43.96792" lon="6.80511">
        <ele>694.69</ele>
        <time>2025-03-08T14:48:09Z</time>
      </trkpt>
      <trkpt lat="43.96791" lon="6.80509">
        <ele>693.25</ele>
        <time>2025-03-08T14:48:11Z</time>
      </trkpt>
      <trkpt lat="43.96791" lon="6.80508">
        <ele>692.77</ele>
        <time>2025-03-08T14:48:24Z</time>
      </trkpt>
      <trkpt lat="43.96792" lon="6.8051">
        <ele>691.81</ele>
        <time>2025-03-08T14:48:47Z</time>
      </trkpt>
      <trkpt lat="43.96791" lon="6.80509">
        <ele>693.25</ele>
        <time>2025-03-08T14:49:00Z</time>
      </trkpt>
      <trkpt lat="43.96791" lon="6.80509">
        <ele>693.25</ele>
        <time>2025-03-08T14:49:01Z</time>
      </trkpt>
      <trkpt lat="43.96794" lon="6.80507">
        <ele>693.25</ele>
        <time>2025-03-08T14:49:15Z</time>
      </trkpt>
      <trkpt lat="43.96795" lon="6.80503">
        <ele>691.81</ele>
        <time>2025-03-08T14:49:19Z</time>
      </trkpt>
      <trkpt lat="43.96789" lon="6.80491">
        <ele>688.44</ele>
        <time>2025-03-08T14:49:31Z</time>
      </trkpt>
      <trkpt lat="43.96778" lon="6.80477">
        <ele>685.08</ele>
        <time>2025-03-08T14:49:45Z</time>
      </trkpt>
      <trkpt lat="43.96776" lon="6.80475">
        <ele>685.08</ele>
        <time>2025-03-08T14:49:47Z</time>
      </trkpt>
      <trkpt lat="43.9676" lon="6.80465">
        <ele>681.71</ele>
        <time>2025-03-08T14:50:02Z</time>
      </trkpt>
      <trkpt lat="43.96748" lon="6.8045">
        <ele>678.35</ele>
        <time>2025-03-08T14:50:17Z</time>
      </trkpt>
      <trkpt lat="43.96732" lon="6.80441">
        <ele>675.94</ele>
        <time>2025-03-08T14:50:30Z</time>
      </trkpt>
      <trkpt lat="43.96713" lon="6.80436">
        <ele>673.54</ele>
        <time>2025-03-08T14:50:46Z</time>
      </trkpt>
      <trkpt lat="43.96695" lon="6.80432">
        <ele>670.66</ele>
        <time>2025-03-08T14:51:02Z</time>
      </trkpt>
      <trkpt lat="43.96679" lon="6.80431">
        <ele>667.29</ele>
        <time>2025-03-08T14:51:17Z</time>
      </trkpt>
      <trkpt lat="43.96668" lon="6.80427">
        <ele>665.37</ele>
        <time>2025-03-08T14:51:29Z</time>
      </trkpt>
      <trkpt lat="43.96668" lon="6.80426">
        <ele>664.89</ele>
        <time>2025-03-08T14:51:30Z</time>
      </trkpt>
      <trkpt lat="43.96668" lon="6.80425">
        <ele>664.89</ele>
        <time>2025-03-08T14:51:31Z</time>
      </trkpt>
      <trkpt lat="43.96668" lon="6.80424">
        <ele>664.41</ele>
        <time>2025-03-08T14:51:32Z</time>
      </trkpt>
      <trkpt lat="43.96669" lon="6.80423">
        <ele>664.41</ele>
        <time>2025-03-08T14:51:33Z</time>
      </trkpt>
      <trkpt lat="43.96669" lon="6.80422">
        <ele>664.41</ele>
        <time>2025-03-08T14:51:34Z</time>
      </trkpt>
      <trkpt lat="43.9667" lon="6.80421">
        <ele>664.41</ele>
        <time>2025-03-08T14:51:35Z</time>
      </trkpt>
      <trkpt lat="43.9667" lon="6.80421">
        <ele>664.41</ele>
        <time>2025-03-08T14:51:36Z</time>
      </trkpt>
      <trkpt lat="43.96671" lon="6.8042">
        <ele>663.93</ele>
        <time>2025-03-08T14:51:37Z</time>
      </trkpt>
      <trkpt lat="43.96682" lon="6.80404">
        <ele>661.52</ele>
        <time>2025-03-08T14:51:53Z</time>
      </trkpt>
      <trkpt lat="43.96698" lon="6.80383">
        <ele>659.12</ele>
        <time>2025-03-08T14:52:12Z</time>
      </trkpt>
      <trkpt lat="43.96698" lon="6.8038">
        <ele>658.64</ele>
        <time>2025-03-08T14:52:14Z</time>
      </trkpt>
      <trkpt lat="43.96698" lon="6.80379">
        <ele>658.64</ele>
        <time>2025-03-08T14:52:15Z</time>
      </trkpt>
      <trkpt lat="43.96695" lon="6.80375">
        <ele>658.16</ele>
        <time>2025-03-08T14:52:20Z</time>
      </trkpt>
      <trkpt lat="43.96678" lon="6.80377">
        <ele>655.76</ele>
        <time>2025-03-08T14:52:38Z</time>
      </trkpt>
      <trkpt lat="43.96671" lon="6.80382">
        <ele>654.8</ele>
        <time>2025-03-08T14:52:48Z</time>
      </trkpt>
      <trkpt lat="43.96669" lon="6.80373">
        <ele>652.87</ele>
        <time>2025-03-08T14:53:01Z</time>
      </trkpt>
      <trkpt lat="43.96669" lon="6.80369">
        <ele>652.39</ele>
        <time>2025-03-08T14:53:18Z</time>
      </trkpt>
      <trkpt lat="43.96671" lon="6.80369">
        <ele>651.91</ele>
        <time>2025-03-08T14:53:33Z</time>
      </trkpt>
      <trkpt lat="43.96671" lon="6.80363">
        <ele>649.99</ele>
        <time>2025-03-08T14:53:45Z</time>
      </trkpt>
      <trkpt lat="43.96672" lon="6.8036">
        <ele>649.99</ele>
        <time>2025-03-08T14:53:48Z</time>
      </trkpt>
      <trkpt lat="43.96675" lon="6.80343">
        <ele>647.59</ele>
        <time>2025-03-08T14:54:06Z</time>
      </trkpt>
      <trkpt lat="43.96671" lon="6.80334">
        <ele>646.62</ele>
        <time>2025-03-08T14:54:20Z</time>
      </trkpt>
      <trkpt lat="43.96667" lon="6.80335">
        <ele>646.14</ele>
        <time>2025-03-08T14:54:23Z</time>
      </trkpt>
      <trkpt lat="43.96657" lon="6.80339">
        <ele>644.7</ele>
        <time>2025-03-08T14:54:33Z</time>
      </trkpt>
      <trkpt lat="43.96652" lon="6.80337">
        <ele>643.74</ele>
        <time>2025-03-08T14:54:38Z</time>
      </trkpt>
      <trkpt lat="43.96651" lon="6.80336">
        <ele>643.74</ele>
        <time>2025-03-08T14:54:39Z</time>
      </trkpt>
      <trkpt lat="43.9665" lon="6.80335">
        <ele>643.74</ele>
        <time>2025-03-08T14:54:40Z</time>
      </trkpt>
      <trkpt lat="43.96642" lon="6.8032">
        <ele>643.26</ele>
        <time>2025-03-08T14:54:51Z</time>
      </trkpt>
      <trkpt lat="43.96635" lon="6.80321">
        <ele>644.22</ele>
        <time>2025-03-08T14:55:04Z</time>
      </trkpt>
      <trkpt lat="43.96634" lon="6.80321">
        <ele>644.22</ele>
        <time>2025-03-08T14:55:05Z</time>
      </trkpt>
      <trkpt lat="43.96634" lon="6.80319">
        <ele>644.22</ele>
        <time>2025-03-08T14:55:17Z</time>
      </trkpt>
      <trkpt lat="43.96637" lon="6.80318">
        <ele>642.78</ele>
        <time>2025-03-08T14:55:26Z</time>
      </trkpt>
      <trkpt lat="43.96636" lon="6.80315">
        <ele>642.78</ele>
        <time>2025-03-08T14:55:28Z</time>
      </trkpt>
      <trkpt lat="43.96625" lon="6.80299">
        <ele>639.89</ele>
        <time>2025-03-08T14:55:45Z</time>
      </trkpt>
      <trkpt lat="43.96622" lon="6.80291">
        <ele>638.93</ele>
        <time>2025-03-08T14:55:51Z</time>
      </trkpt>
      <trkpt lat="43.96622" lon="6.80289">
        <ele>638.93</ele>
        <time>2025-03-08T14:55:52Z</time>
      </trkpt>
      <trkpt lat="43.96623" lon="6.80288">
        <ele>638.93</ele>
        <time>2025-03-08T14:55:53Z</time>
      </trkpt>
      <trkpt lat="43.96623" lon="6.80286">
        <ele>638.93</ele>
        <time>2025-03-08T14:55:54Z</time>
      </trkpt>
      <trkpt lat="43.96623" lon="6.80285">
        <ele>638.93</ele>
        <time>2025-03-08T14:55:55Z</time>
      </trkpt>
      <trkpt lat="43.96624" lon="6.80284">
        <ele>638.45</ele>
        <time>2025-03-08T14:55:56Z</time>
      </trkpt>
      <trkpt lat="43.96625" lon="6.80283">
        <ele>638.45</ele>
        <time>2025-03-08T14:55:57Z</time>
      </trkpt>
      <trkpt lat="43.96626" lon="6.80282">
        <ele>638.45</ele>
        <time>2025-03-08T14:55:58Z</time>
      </trkpt>
      <trkpt lat="43.96642" lon="6.80281">
        <ele>637.49</ele>
        <time>2025-03-08T14:56:13Z</time>
      </trkpt>
      <trkpt lat="43.96668" lon="6.80285">
        <ele>637.01</ele>
        <time>2025-03-08T14:56:34Z</time>
      </trkpt>
      <trkpt lat="43.96692" lon="6.8028">
        <ele>636.05</ele>
        <time>2025-03-08T14:56:54Z</time>
      </trkpt>
      <trkpt lat="43.96714" lon="6.8028">
        <ele>634.61</ele>
        <time>2025-03-08T14:57:11Z</time>
      </trkpt>
      <trkpt lat="43.96735" lon="6.8027">
        <ele>633.17</ele>
        <time>2025-03-08T14:57:28Z</time>
      </trkpt>
      <trkpt lat="43.96752" lon="6.80264">
        <ele>631.24</ele>
        <time>2025-03-08T14:57:45Z</time>
      </trkpt>
      <trkpt lat="43.96762" lon="6.8026">
        <ele>630.76</ele>
        <time>2025-03-08T14:57:56Z</time>
      </trkpt>
      <trkpt lat="43.96769" lon="6.80259">
        <ele>629.8</ele>
        <time>2025-03-08T14:58:09Z</time>
      </trkpt>
      <trkpt lat="43.96773" lon="6.80257">
        <ele>629.32</ele>
        <time>2025-03-08T14:58:27Z</time>
      </trkpt>
      <trkpt lat="43.96778" lon="6.80253">
        <ele>628.36</ele>
        <time>2025-03-08T14:58:33Z</time>
      </trkpt>
      <trkpt lat="43.96778" lon="6.80248">
        <ele>627.88</ele>
        <time>2025-03-08T14:58:36Z</time>
      </trkpt>
      <trkpt lat="43.96777" lon="6.80247">
        <ele>627.88</ele>
        <time>2025-03-08T14:58:37Z</time>
      </trkpt>
      <trkpt lat="43.96764" lon="6.80234">
        <ele>625.96</ele>
        <time>2025-03-08T14:58:53Z</time>
      </trkpt>
      <trkpt lat="43.96744" lon="6.80225">
        <ele>624.51</ele>
        <time>2025-03-08T14:59:10Z</time>
      </trkpt>
      <trkpt lat="43.96723" lon="6.8022">
        <ele>621.63</ele>
        <time>2025-03-08T14:59:26Z</time>
      </trkpt>
      <trkpt lat="43.96702" lon="6.8021">
        <ele>618.26</ele>
        <time>2025-03-08T14:59:44Z</time>
      </trkpt>
      <trkpt lat="43.96693" lon="6.80203">
        <ele>616.82</ele>
        <time>2025-03-08T14:59:52Z</time>
      </trkpt>
      <trkpt lat="43.96692" lon="6.80202">
        <ele>616.82</ele>
        <time>2025-03-08T14:59:53Z</time>
      </trkpt>
      <trkpt lat="43.96676" lon="6.80186">
        <ele>613.46</ele>
        <time>2025-03-08T15:00:11Z</time>
      </trkpt>
      <trkpt lat="43.96653" lon="6.80182">
        <ele>611.54</ele>
        <time>2025-03-08T15:00:29Z</time>
      </trkpt>
      <trkpt lat="43.96637" lon="6.80179">
        <ele>608.65</ele>
        <time>2025-03-08T15:00:42Z</time>
      </trkpt>
      <trkpt lat="43.96626" lon="6.80175">
        <ele>607.21</ele>
        <time>2025-03-08T15:00:58Z</time>
      </trkpt>
      <trkpt lat="43.96625" lon="6.80176">
        <ele>606.73</ele>
        <time>2025-03-08T15:01:19Z</time>
      </trkpt>
      <trkpt lat="43.96625" lon="6.80177">
        <ele>606.73</ele>
        <time>2025-03-08T15:01:36Z</time>
      </trkpt>
      <trkpt lat="43.96623" lon="6.80176">
        <ele>607.69</ele>
        <time>2025-03-08T15:01:51Z</time>
      </trkpt>
      <trkpt lat="43.96608" lon="6.80175">
        <ele>605.29</ele>
        <time>2025-03-08T15:02:06Z</time>
      </trkpt>
      <trkpt lat="43.96596" lon="6.80176">
        <ele>604.81</ele>
        <time>2025-03-08T15:02:17Z</time>
      </trkpt>
      <trkpt lat="43.96595" lon="6.80175">
        <ele>604.81</ele>
        <time>2025-03-08T15:02:18Z</time>
      </trkpt>
      <trkpt lat="43.96594" lon="6.80174">
        <ele>604.81</ele>
        <time>2025-03-08T15:02:19Z</time>
      </trkpt>
      <trkpt lat="43.96592" lon="6.80174">
        <ele>604.33</ele>
        <time>2025-03-08T15:02:20Z</time>
      </trkpt>
      <trkpt lat="43.96591" lon="6.80173">
        <ele>604.33</ele>
        <time>2025-03-08T15:02:21Z</time>
      </trkpt>
      <trkpt lat="43.9659" lon="6.80173">
        <ele>604.33</ele>
        <time>2025-03-08T15:02:22Z</time>
      </trkpt>
      <trkpt lat="43.96575" lon="6.80161">
        <ele>600.96</ele>
        <time>2025-03-08T15:02:37Z</time>
      </trkpt>
      <trkpt lat="43.9656" lon="6.8015">
        <ele>597.6</ele>
        <time>2025-03-08T15:02:52Z</time>
      </trkpt>
      <trkpt lat="43.96545" lon="6.80141">
        <ele>594.71</ele>
        <time>2025-03-08T15:03:07Z</time>
      </trkpt>
      <trkpt lat="43.9654" lon="6.80132">
        <ele>592.79</ele>
        <time>2025-03-08T15:03:15Z</time>
      </trkpt>
      <trkpt lat="43.96537" lon="6.80112">
        <ele>589.43</ele>
        <time>2025-03-08T15:03:29Z</time>
      </trkpt>
      <trkpt lat="43.96536" lon="6.80108">
        <ele>588.95</ele>
        <time>2025-03-08T15:03:32Z</time>
      </trkpt>
      <trkpt lat="43.96535" lon="6.80107">
        <ele>588.95</ele>
        <time>2025-03-08T15:03:33Z</time>
      </trkpt>
      <trkpt lat="43.96532" lon="6.80101">
        <ele>587.5</ele>
        <time>2025-03-08T15:03:38Z</time>
      </trkpt>
      <trkpt lat="43.96531" lon="6.80099">
        <ele>587.02</ele>
        <time>2025-03-08T15:03:40Z</time>
      </trkpt>
      <trkpt lat="43.9653" lon="6.80098">
        <ele>587.02</ele>
        <time>2025-03-08T15:03:41Z</time>
      </trkpt>
      <trkpt lat="43.9653" lon="6.80096">
        <ele>587.02</ele>
        <time>2025-03-08T15:03:42Z</time>
      </trkpt>
      <trkpt lat="43.96529" lon="6.80095">
        <ele>586.54</ele>
        <time>2025-03-08T15:03:43Z</time>
      </trkpt>
      <trkpt lat="43.96528" lon="6.80094">
        <ele>586.54</ele>
        <time>2025-03-08T15:03:44Z</time>
      </trkpt>
      <trkpt lat="43.96517" lon="6.80087">
        <ele>584.62</ele>
        <time>2025-03-08T15:03:55Z</time>
      </trkpt>
      <trkpt lat="43.96516" lon="6.80086">
        <ele>584.62</ele>
        <time>2025-03-08T15:03:56Z</time>
      </trkpt>
      <trkpt lat="43.96513" lon="6.80086">
        <ele>583.66</ele>
        <time>2025-03-08T15:03:59Z</time>
      </trkpt>
      <trkpt lat="43.96512" lon="6.80086">
        <ele>583.66</ele>
        <time>2025-03-08T15:04:00Z</time>
      </trkpt>
      <trkpt lat="43.9651" lon="6.80086">
        <ele>583.66</ele>
        <time>2025-03-08T15:04:01Z</time>
      </trkpt>
      <trkpt lat="43.96509" lon="6.80086">
        <ele>583.66</ele>
        <time>2025-03-08T15:04:02Z</time>
      </trkpt>
      <trkpt lat="43.96508" lon="6.80086">
        <ele>583.66</ele>
        <time>2025-03-08T15:04:03Z</time>
      </trkpt>
      <trkpt lat="43.96507" lon="6.80086">
        <ele>582.7</ele>
        <time>2025-03-08T15:04:04Z</time>
      </trkpt>
      <trkpt lat="43.96506" lon="6.80087">
        <ele>582.7</ele>
        <time>2025-03-08T15:04:05Z</time>
      </trkpt>
      <trkpt lat="43.96497" lon="6.80091">
        <ele>581.25</ele>
        <time>2025-03-08T15:04:13Z</time>
      </trkpt>
      <trkpt lat="43.96496" lon="6.80092">
        <ele>581.25</ele>
        <time>2025-03-08T15:04:14Z</time>
      </trkpt>
      <trkpt lat="43.9648" lon="6.80108">
        <ele>578.85</ele>
        <time>2025-03-08T15:04:31Z</time>
      </trkpt>
      <trkpt lat="43.96468" lon="6.80106">
        <ele>576.93</ele>
        <time>2025-03-08T15:04:46Z</time>
      </trkpt>
      <trkpt lat="43.96469" lon="6.801">
        <ele>575.97</ele>
        <time>2025-03-08T15:05:01Z</time>
      </trkpt>
      <trkpt lat="43.96469" lon="6.8009">
        <ele>575.01</ele>
        <time>2025-03-08T15:05:16Z</time>
      </trkpt>
      <trkpt lat="43.96465" lon="6.80086">
        <ele>572.12</ele>
        <time>2025-03-08T15:05:30Z</time>
      </trkpt>
      <trkpt lat="43.96458" lon="6.8008">
        <ele>569.24</ele>
        <time>2025-03-08T15:05:43Z</time>
      </trkpt>
      <trkpt lat="43.96449" lon="6.80081">
        <ele>566.83</ele>
        <time>2025-03-08T15:05:57Z</time>
      </trkpt>
      <trkpt lat="43.96445" lon="6.80085">
        <ele>566.35</ele>
        <time>2025-03-08T15:06:02Z</time>
      </trkpt>
      <trkpt lat="43.96444" lon="6.80086">
        <ele>566.35</ele>
        <time>2025-03-08T15:06:03Z</time>
      </trkpt>
      <trkpt lat="43.96433" lon="6.80102">
        <ele>565.87</ele>
        <time>2025-03-08T15:06:18Z</time>
      </trkpt>
      <trkpt lat="43.96423" lon="6.80119">
        <ele>565.87</ele>
        <time>2025-03-08T15:06:34Z</time>
      </trkpt>
      <trkpt lat="43.96422" lon="6.80123">
        <ele>565.87</ele>
        <time>2025-03-08T15:06:38Z</time>
      </trkpt>
      <trkpt lat="43.96413" lon="6.80141">
        <ele>564.91</ele>
        <time>2025-03-08T15:06:55Z</time>
      </trkpt>
      <trkpt lat="43.96412" lon="6.80145">
        <ele>563.95</ele>
        <time>2025-03-08T15:07:09Z</time>
      </trkpt>
      <trkpt lat="43.96413" lon="6.80145">
        <ele>563.47</ele>
        <time>2025-03-08T15:07:28Z</time>
      </trkpt>
      <trkpt lat="43.96413" lon="6.80144">
        <ele>563.47</ele>
        <time>2025-03-08T15:07:42Z</time>
      </trkpt>
      <trkpt lat="43.96412" lon="6.80145">
        <ele>563.47</ele>
        <time>2025-03-08T15:07:57Z</time>
      </trkpt>
      <trkpt lat="43.96408" lon="6.80151">
        <ele>562.51</ele>
        <time>2025-03-08T15:08:09Z</time>
      </trkpt>
      <trkpt lat="43.96412" lon="6.80143">
        <ele>563.95</ele>
        <time>2025-03-08T15:08:17Z</time>
      </trkpt>
      <trkpt lat="43.96412" lon="6.80142">
        <ele>563.95</ele>
        <time>2025-03-08T15:08:18Z</time>
      </trkpt>
      <trkpt lat="43.96414" lon="6.8014">
        <ele>563.95</ele>
        <time>2025-03-08T15:08:21Z</time>
      </trkpt>
      <trkpt lat="43.96422" lon="6.80124">
        <ele>565.87</ele>
        <time>2025-03-08T15:08:36Z</time>
      </trkpt>
      <trkpt lat="43.96428" lon="6.80115">
        <ele>565.87</ele>
        <time>2025-03-08T15:08:45Z</time>
      </trkpt>
      <trkpt lat="43.96438" lon="6.80097">
        <ele>565.87</ele>
        <time>2025-03-08T15:09:02Z</time>
      </trkpt>
      <trkpt lat="43.96443" lon="6.80088">
        <ele>565.87</ele>
        <time>2025-03-08T15:09:10Z</time>
      </trkpt>
      <trkpt lat="43.9645" lon="6.80068">
        <ele>565.87</ele>
        <time>2025-03-08T15:09:27Z</time>
      </trkpt>
      <trkpt lat="43.96453" lon="6.80057">
        <ele>565.87</ele>
        <time>2025-03-08T15:09:36Z</time>
      </trkpt>
      <trkpt lat="43.96454" lon="6.80055">
        <ele>564.43</ele>
        <time>2025-03-08T15:09:38Z</time>
      </trkpt>
      <trkpt lat="43.96455" lon="6.80038">
        <ele>562.99</ele>
        <time>2025-03-08T15:09:52Z</time>
      </trkpt>
      <trkpt lat="43.96455" lon="6.80037">
        <ele>562.99</ele>
        <time>2025-03-08T15:09:53Z</time>
      </trkpt>
      <trkpt lat="43.96454" lon="6.80026">
        <ele>562.51</ele>
        <time>2025-03-08T15:10:02Z</time>
      </trkpt>
      <trkpt lat="43.96456" lon="6.80019">
        <ele>561.55</ele>
        <time>2025-03-08T15:10:10Z</time>
      </trkpt>
      <trkpt lat="43.96445" lon="6.80013">
        <ele>558.18</ele>
        <time>2025-03-08T15:10:22Z</time>
      </trkpt>
      <trkpt lat="43.9643" lon="6.80008">
        <ele>554.34</ele>
        <time>2025-03-08T15:10:35Z</time>
      </trkpt>
      <trkpt lat="43.96418" lon="6.79999">
        <ele>551.45</ele>
        <time>2025-03-08T15:10:47Z</time>
      </trkpt>
      <trkpt lat="43.96407" lon="6.79982">
        <ele>548.09</ele>
        <time>2025-03-08T15:11:01Z</time>
      </trkpt>
      <trkpt lat="43.96391" lon="6.79966">
        <ele>545.69</ele>
        <time>2025-03-08T15:11:17Z</time>
      </trkpt>
      <trkpt lat="43.96379" lon="6.79963">
        <ele>543.76</ele>
        <time>2025-03-08T15:11:27Z</time>
      </trkpt>
      <trkpt lat="43.96355" lon="6.79961">
        <ele>541.36</ele>
        <time>2025-03-08T15:11:45Z</time>
      </trkpt>
      <trkpt lat="43.96332" lon="6.7996">
        <ele>537.99</ele>
        <time>2025-03-08T15:12:04Z</time>
      </trkpt>
      <trkpt lat="43.96309" lon="6.79961">
        <ele>535.11</ele>
        <time>2025-03-08T15:12:24Z</time>
      </trkpt>
      <trkpt lat="43.96299" lon="6.79959">
        <ele>534.15</ele>
        <time>2025-03-08T15:12:32Z</time>
      </trkpt>
      <trkpt lat="43.96286" lon="6.79961">
        <ele>532.23</ele>
        <time>2025-03-08T15:12:44Z</time>
      </trkpt>
      <trkpt lat="43.96269" lon="6.79952">
        <ele>528.86</ele>
        <time>2025-03-08T15:13:00Z</time>
      </trkpt>
      <trkpt lat="43.96268" lon="6.7995">
        <ele>528.86</ele>
        <time>2025-03-08T15:13:01Z</time>
      </trkpt>
      <trkpt lat="43.96267" lon="6.79943">
        <ele>527.9</ele>
        <time>2025-03-08T15:13:06Z</time>
      </trkpt>
      <trkpt lat="43.96267" lon="6.79911">
        <ele>525.98</ele>
        <time>2025-03-08T15:13:25Z</time>
      </trkpt>
      <trkpt lat="43.96263" lon="6.79907">
        <ele>525.02</ele>
        <time>2025-03-08T15:13:29Z</time>
      </trkpt>
      <trkpt lat="43.96255" lon="6.79908">
        <ele>524.06</ele>
        <time>2025-03-08T15:13:37Z</time>
      </trkpt>
      <trkpt lat="43.96238" lon="6.79919">
        <ele>519.73</ele>
        <time>2025-03-08T15:13:54Z</time>
      </trkpt>
      <trkpt lat="43.96226" lon="6.79927">
        <ele>516.85</ele>
        <time>2025-03-08T15:14:06Z</time>
      </trkpt>
      <trkpt lat="43.96202" lon="6.7995">
        <ele>513.48</ele>
        <time>2025-03-08T15:14:28Z</time>
      </trkpt>
      <trkpt lat="43.96177" lon="6.79968">
        <ele>511.08</ele>
        <time>2025-03-08T15:14:50Z</time>
      </trkpt>
      <trkpt lat="43.96159" lon="6.79989">
        <ele>509.16</ele>
        <time>2025-03-08T15:15:09Z</time>
      </trkpt>
      <trkpt lat="43.96142" lon="6.80006">
        <ele>506.75</ele>
        <time>2025-03-08T15:15:27Z</time>
      </trkpt>
      <trkpt lat="43.96124" lon="6.8002">
        <ele>504.35</ele>
        <time>2025-03-08T15:15:45Z</time>
      </trkpt>
      <trkpt lat="43.96104" lon="6.80029">
        <ele>501.95</ele>
        <time>2025-03-08T15:16:03Z</time>
      </trkpt>
      <trkpt lat="43.96086" lon="6.80041">
        <ele>500.98</ele>
        <time>2025-03-08T15:16:21Z</time>
      </trkpt>
      <trkpt lat="43.96068" lon="6.80045">
        <ele>500.5</ele>
        <time>2025-03-08T15:16:37Z</time>
      </trkpt>
      <trkpt lat="43.96051" lon="6.80045">
        <ele>500.02</ele>
        <time>2025-03-08T15:16:52Z</time>
      </trkpt>
      <trkpt lat="43.96033" lon="6.80066">
        <ele>501.46</ele>
        <time>2025-03-08T15:17:12Z</time>
      </trkpt>
      <trkpt lat="43.96032" lon="6.80066">
        <ele>501.46</ele>
        <time>2025-03-08T15:17:13Z</time>
      </trkpt>
      <trkpt lat="43.96022" lon="6.80074">
        <ele>501.46</ele>
        <time>2025-03-08T15:17:26Z</time>
      </trkpt>
      <trkpt lat="43.96023" lon="6.80075">
        <ele>501.46</ele>
        <time>2025-03-08T15:17:31Z</time>
      </trkpt>
      <trkpt lat="43.96004" lon="6.80096">
        <ele>500.98</ele>
        <time>2025-03-08T15:17:53Z</time>
      </trkpt>
      <trkpt lat="43.95989" lon="6.80107">
        <ele>497.62</ele>
        <time>2025-03-08T15:18:08Z</time>
      </trkpt>
      <trkpt lat="43.95976" lon="6.8012">
        <ele>497.14</ele>
        <time>2025-03-08T15:18:22Z</time>
      </trkpt>
      <trkpt lat="43.95969" lon="6.80133">
        <ele>497.14</ele>
        <time>2025-03-08T15:18:38Z</time>
      </trkpt>
      <trkpt lat="43.95968" lon="6.80135">
        <ele>497.14</ele>
        <time>2025-03-08T15:18:43Z</time>
      </trkpt>
      <trkpt lat="43.95959" lon="6.80152">
        <ele>496.66</ele>
        <time>2025-03-08T15:19:00Z</time>
      </trkpt>
      <trkpt lat="43.95955" lon="6.80153">
        <ele>496.66</ele>
        <time>2025-03-08T15:19:17Z</time>
      </trkpt>
      <trkpt lat="43.95953" lon="6.80158">
        <ele>496.66</ele>
        <time>2025-03-08T15:19:34Z</time>
      </trkpt>
      <trkpt lat="43.95953" lon="6.80161">
        <ele>497.14</ele>
        <time>2025-03-08T15:19:55Z</time>
      </trkpt>
      <trkpt lat="43.95955" lon="6.80162">
        <ele>497.14</ele>
        <time>2025-03-08T15:20:12Z</time>
      </trkpt>
      <trkpt lat="43.95954" lon="6.80162">
        <ele>497.14</ele>
        <time>2025-03-08T15:20:29Z</time>
      </trkpt>
      <trkpt lat="43.95952" lon="6.80162">
        <ele>497.14</ele>
        <time>2025-03-08T15:20:32Z</time>
      </trkpt>
      <trkpt lat="43.95933" lon="6.80169">
        <ele>497.14</ele>
        <time>2025-03-08T15:20:50Z</time>
      </trkpt>
      <trkpt lat="43.95915" lon="6.80179">
        <ele>497.14</ele>
        <time>2025-03-08T15:21:06Z</time>
      </trkpt>
      <trkpt lat="43.95899" lon="6.80192">
        <ele>497.14</ele>
        <time>2025-03-08T15:21:23Z</time>
      </trkpt>
      <trkpt lat="43.95886" lon="6.80207">
        <ele>496.66</ele>
        <time>2025-03-08T15:21:38Z</time>
      </trkpt>
      <trkpt lat="43.95872" lon="6.80213">
        <ele>496.66</ele>
        <time>2025-03-08T15:21:54Z</time>
      </trkpt>
      <trkpt lat="43.95856" lon="6.80218">
        <ele>496.66</ele>
        <time>2025-03-08T15:22:10Z</time>
      </trkpt>
      <trkpt lat="43.95838" lon="6.80217">
        <ele>496.66</ele>
        <time>2025-03-08T15:22:26Z</time>
      </trkpt>
      <trkpt lat="43.95828" lon="6.80219">
        <ele>496.18</ele>
        <time>2025-03-08T15:22:33Z</time>
      </trkpt>
      <trkpt lat="43.95799" lon="6.8024">
        <ele>496.18</ele>
        <time>2025-03-08T15:22:56Z</time>
      </trkpt>
      <trkpt lat="43.95781" lon="6.80259">
        <ele>495.7</ele>
        <time>2025-03-08T15:23:15Z</time>
      </trkpt>
      <trkpt lat="43.95765" lon="6.80271">
        <ele>495.7</ele>
        <time>2025-03-08T15:23:32Z</time>
      </trkpt>
      <trkpt lat="43.95747" lon="6.80284">
        <ele>497.14</ele>
        <time>2025-03-08T15:23:50Z</time>
      </trkpt>
      <trkpt lat="43.95736" lon="6.80289">
        <ele>497.62</ele>
        <time>2025-03-08T15:24:01Z</time>
      </trkpt>
      <trkpt lat="43.95725" lon="6.80289">
        <ele>498.58</ele>
        <time>2025-03-08T15:24:11Z</time>
      </trkpt>
      <trkpt lat="43.95717" lon="6.80292">
        <ele>500.02</ele>
        <time>2025-03-08T15:24:19Z</time>
      </trkpt>
      <trkpt lat="43.95714" lon="6.80292">
        <ele>500.5</ele>
        <time>2025-03-08T15:24:22Z</time>
      </trkpt>
      <trkpt lat="43.95699" lon="6.80296">
        <ele>501.95</ele>
        <time>2025-03-08T15:24:37Z</time>
      </trkpt>
      <trkpt lat="43.95685" lon="6.80303">
        <ele>502.91</ele>
        <time>2025-03-08T15:24:52Z</time>
      </trkpt>
      <trkpt lat="43.9568" lon="6.80304">
        <ele>503.39</ele>
        <time>2025-03-08T15:24:57Z</time>
      </trkpt>
      <trkpt lat="43.95677" lon="6.80305">
        <ele>503.39</ele>
        <time>2025-03-08T15:25:00Z</time>
      </trkpt>
      <trkpt lat="43.95672" lon="6.80307">
        <ele>504.35</ele>
        <time>2025-03-08T15:25:05Z</time>
      </trkpt>
      <trkpt lat="43.95669" lon="6.80309">
        <ele>504.35</ele>
        <time>2025-03-08T15:25:09Z</time>
      </trkpt>
      <trkpt lat="43.9565" lon="6.80311">
        <ele>505.31</ele>
        <time>2025-03-08T15:25:28Z</time>
      </trkpt>
      <trkpt lat="43.95633" lon="6.80314">
        <ele>506.75</ele>
        <time>2025-03-08T15:25:44Z</time>
      </trkpt>
      <trkpt lat="43.95628" lon="6.80325">
        <ele>507.71</ele>
        <time>2025-03-08T15:25:54Z</time>
      </trkpt>
      <trkpt lat="43.95623" lon="6.80341">
        <ele>508.67</ele>
        <time>2025-03-08T15:26:09Z</time>
      </trkpt>
      <trkpt lat="43.95622" lon="6.80341">
        <ele>508.67</ele>
        <time>2025-03-08T15:26:26Z</time>
      </trkpt>
      <trkpt lat="43.95621" lon="6.80344">
        <ele>508.67</ele>
        <time>2025-03-08T15:26:32Z</time>
      </trkpt>
      <trkpt lat="43.95619" lon="6.80358">
        <ele>507.23</ele>
        <time>2025-03-08T15:26:42Z</time>
      </trkpt>
      <trkpt lat="43.95615" lon="6.80368">
        <ele>505.79</ele>
        <time>2025-03-08T15:26:50Z</time>
      </trkpt>
      <trkpt lat="43.95613" lon="6.80371">
        <ele>505.79</ele>
        <time>2025-03-08T15:26:53Z</time>
      </trkpt>
      <trkpt lat="43.95602" lon="6.80391">
        <ele>503.39</ele>
        <time>2025-03-08T15:27:09Z</time>
      </trkpt>
      <trkpt lat="43.95593" lon="6.8041">
        <ele>501.95</ele>
        <time>2025-03-08T15:27:24Z</time>
      </trkpt>
      <trkpt lat="43.9559" lon="6.80416">
        <ele>501.46</ele>
        <time>2025-03-08T15:27:28Z</time>
      </trkpt>
      <trkpt lat="43.95583" lon="6.80449">
        <ele>500.5</ele>
        <time>2025-03-08T15:27:47Z</time>
      </trkpt>
      <trkpt lat="43.95582" lon="6.8047">
        <ele>500.5</ele>
        <time>2025-03-08T15:27:59Z</time>
      </trkpt>
      <trkpt lat="43.95563" lon="6.80486">
        <ele>498.58</ele>
        <time>2025-03-08T15:28:19Z</time>
      </trkpt>
      <trkpt lat="43.95562" lon="6.80486">
        <ele>498.58</ele>
        <time>2025-03-08T15:28:20Z</time>
      </trkpt>
      <trkpt lat="43.95546" lon="6.805">
        <ele>495.22</ele>
        <time>2025-03-08T15:28:35Z</time>
      </trkpt>
      <trkpt lat="43.95527" lon="6.80518">
        <ele>492.81</ele>
        <time>2025-03-08T15:28:53Z</time>
      </trkpt>
      <trkpt lat="43.95507" lon="6.80532">
        <ele>492.33</ele>
        <time>2025-03-08T15:29:11Z</time>
      </trkpt>
      <trkpt lat="43.95494" lon="6.80551">
        <ele>492.33</ele>
        <time>2025-03-08T15:29:26Z</time>
      </trkpt>
      <trkpt lat="43.95492" lon="6.80555">
        <ele>493.29</ele>
        <time>2025-03-08T15:29:29Z</time>
      </trkpt>
      <trkpt lat="43.95491" lon="6.80558">
        <ele>493.29</ele>
        <time>2025-03-08T15:29:31Z</time>
      </trkpt>
      <trkpt lat="43.9549" lon="6.8056">
        <ele>493.29</ele>
        <time>2025-03-08T15:29:33Z</time>
      </trkpt>
      <trkpt lat="43.95475" lon="6.80577">
        <ele>495.7</ele>
        <time>2025-03-08T15:29:51Z</time>
      </trkpt>
      <trkpt lat="43.95458" lon="6.80585">
        <ele>496.66</ele>
        <time>2025-03-08T15:30:07Z</time>
      </trkpt>
      <trkpt lat="43.95447" lon="6.80608">
        <ele>495.22</ele>
        <time>2025-03-08T15:30:24Z</time>
      </trkpt>
      <trkpt lat="43.95443" lon="6.80614">
        <ele>497.14</ele>
        <time>2025-03-08T15:30:31Z</time>
      </trkpt>
      <trkpt lat="43.9544" lon="6.80627">
        <ele>499.06</ele>
        <time>2025-03-08T15:30:42Z</time>
      </trkpt>
      <trkpt lat="43.95436" lon="6.80649">
        <ele>500.5</ele>
        <time>2025-03-08T15:30:59Z</time>
      </trkpt>
      <trkpt lat="43.95432" lon="6.80662">
        <ele>501.95</ele>
        <time>2025-03-08T15:31:10Z</time>
      </trkpt>
      <trkpt lat="43.95429" lon="6.80673">
        <ele>503.39</ele>
        <time>2025-03-08T15:31:19Z</time>
      </trkpt>
      <trkpt lat="43.95422" lon="6.80695">
        <ele>504.35</ele>
        <time>2025-03-08T15:31:36Z</time>
      </trkpt>
      <trkpt lat="43.9541" lon="6.8072">
        <ele>503.87</ele>
        <time>2025-03-08T15:31:56Z</time>
      </trkpt>
      <trkpt lat="43.95403" lon="6.80746">
        <ele>503.87</ele>
        <time>2025-03-08T15:32:13Z</time>
      </trkpt>
      <trkpt lat="43.95402" lon="6.8077">
        <ele>503.87</ele>
        <time>2025-03-08T15:32:28Z</time>
      </trkpt>
      <trkpt lat="43.95401" lon="6.80778">
        <ele>503.87</ele>
        <time>2025-03-08T15:32:35Z</time>
      </trkpt>
      <trkpt lat="43.9539" lon="6.8078">
        <ele>503.87</ele>
        <time>2025-03-08T15:32:53Z</time>
      </trkpt>
      <trkpt lat="43.95381" lon="6.80772">
        <ele>504.35</ele>
        <time>2025-03-08T15:33:06Z</time>
      </trkpt>
      <trkpt lat="43.95369" lon="6.80761">
        <ele>504.35</ele>
        <time>2025-03-08T15:33:20Z</time>
      </trkpt>
      <trkpt lat="43.95364" lon="6.80758">
        <ele>504.35</ele>
        <time>2025-03-08T15:33:26Z</time>
      </trkpt>
      <trkpt lat="43.9536" lon="6.80755">
        <ele>504.35</ele>
        <time>2025-03-08T15:33:30Z</time>
      </trkpt>
      <trkpt lat="43.95351" lon="6.80759">
        <ele>504.35</ele>
        <time>2025-03-08T15:33:37Z</time>
      </trkpt>
      <trkpt lat="43.95343" lon="6.80775">
        <ele>504.83</ele>
        <time>2025-03-08T15:33:50Z</time>
      </trkpt>
      <trkpt lat="43.95338" lon="6.80801">
        <ele>504.83</ele>
        <time>2025-03-08T15:34:08Z</time>
      </trkpt>
      <trkpt lat="43.95338" lon="6.80802">
        <ele>504.83</ele>
        <time>2025-03-08T15:34:09Z</time>
      </trkpt>
      <trkpt lat="43.95338" lon="6.8081">
        <ele>503.39</ele>
        <time>2025-03-08T15:34:14Z</time>
      </trkpt>
      <trkpt lat="43.95336" lon="6.80818">
        <ele>502.43</ele>
        <time>2025-03-08T15:34:21Z</time>
      </trkpt>
      <trkpt lat="43.9533" lon="6.80835">
        <ele>500.5</ele>
        <time>2025-03-08T15:34:36Z</time>
      </trkpt>
      <trkpt lat="43.95325" lon="6.80843">
        <ele>499.54</ele>
        <time>2025-03-08T15:34:43Z</time>
      </trkpt>
      <trkpt lat="43.95324" lon="6.80846">
        <ele>499.54</ele>
        <time>2025-03-08T15:34:46Z</time>
      </trkpt>
      <trkpt lat="43.95317" lon="6.80867">
        <ele>497.62</ele>
        <time>2025-03-08T15:35:01Z</time>
      </trkpt>
      <trkpt lat="43.95313" lon="6.80897">
        <ele>496.66</ele>
        <time>2025-03-08T15:35:20Z</time>
      </trkpt>
      <trkpt lat="43.95311" lon="6.80912">
        <ele>496.66</ele>
        <time>2025-03-08T15:35:34Z</time>
      </trkpt>
      <trkpt lat="43.95308" lon="6.80927">
        <ele>496.18</ele>
        <time>2025-03-08T15:35:53Z</time>
      </trkpt>
      <trkpt lat="43.95301" lon="6.80955">
        <ele>496.18</ele>
        <time>2025-03-08T15:36:12Z</time>
      </trkpt>
      <trkpt lat="43.95294" lon="6.8099">
        <ele>498.1</ele>
        <time>2025-03-08T15:36:34Z</time>
      </trkpt>
      <trkpt lat="43.95286" lon="6.81007">
        <ele>497.62</ele>
        <time>2025-03-08T15:36:48Z</time>
      </trkpt>
      <trkpt lat="43.95274" lon="6.81027">
        <ele>496.66</ele>
        <time>2025-03-08T15:37:06Z</time>
      </trkpt>
      <trkpt lat="43.95253" lon="6.81039">
        <ele>496.18</ele>
        <time>2025-03-08T15:37:25Z</time>
      </trkpt>
      <trkpt lat="43.95237" lon="6.81042">
        <ele>494.74</ele>
        <time>2025-03-08T15:37:41Z</time>
      </trkpt>
      <trkpt lat="43.95226" lon="6.81046">
        <ele>493.77</ele>
        <time>2025-03-08T15:37:56Z</time>
      </trkpt>
      <trkpt lat="43.95209" lon="6.81058">
        <ele>493.29</ele>
        <time>2025-03-08T15:38:11Z</time>
      </trkpt>
      <trkpt lat="43.95207" lon="6.81061">
        <ele>493.29</ele>
        <time>2025-03-08T15:38:27Z</time>
      </trkpt>
      <trkpt lat="43.95205" lon="6.81059">
        <ele>492.81</ele>
        <time>2025-03-08T15:38:58Z</time>
      </trkpt>
      <trkpt lat="43.95202" lon="6.81058">
        <ele>492.81</ele>
        <time>2025-03-08T15:39:19Z</time>
      </trkpt>
      <trkpt lat="43.95198" lon="6.81058">
        <ele>492.81</ele>
        <time>2025-03-08T15:39:35Z</time>
      </trkpt>
      <trkpt lat="43.95178" lon="6.81061">
        <ele>491.37</ele>
        <time>2025-03-08T15:39:53Z</time>
      </trkpt>
      <trkpt lat="43.95159" lon="6.81063">
        <ele>489.93</ele>
        <time>2025-03-08T15:40:10Z</time>
      </trkpt>
      <trkpt lat="43.95139" lon="6.81072">
        <ele>488.97</ele>
        <time>2025-03-08T15:40:28Z</time>
      </trkpt>
      <trkpt lat="43.95125" lon="6.81079">
        <ele>487.53</ele>
        <time>2025-03-08T15:40:42Z</time>
      </trkpt>
      <trkpt lat="43.95102" lon="6.81066">
        <ele>487.05</ele>
        <time>2025-03-08T15:41:03Z</time>
      </trkpt>
      <trkpt lat="43.95092" lon="6.81053">
        <ele>490.41</ele>
        <time>2025-03-08T15:41:18Z</time>
      </trkpt>
      <trkpt lat="43.95084" lon="6.81039">
        <ele>493.29</ele>
        <time>2025-03-08T15:41:32Z</time>
      </trkpt>
      <trkpt lat="43.95083" lon="6.81038">
        <ele>493.29</ele>
        <time>2025-03-08T15:41:33Z</time>
      </trkpt>
      <trkpt lat="43.95069" lon="6.81025">
        <ele>492.81</ele>
        <time>2025-03-08T15:41:49Z</time>
      </trkpt>
      <trkpt lat="43.95057" lon="6.81014">
        <ele>494.74</ele>
        <time>2025-03-08T15:42:03Z</time>
      </trkpt>
      <trkpt lat="43.95045" lon="6.81004">
        <ele>496.18</ele>
        <time>2025-03-08T15:42:20Z</time>
      </trkpt>
      <trkpt lat="43.95041" lon="6.81003">
        <ele>497.14</ele>
        <time>2025-03-08T15:42:35Z</time>
      </trkpt>
      <trkpt lat="43.95036" lon="6.81007">
        <ele>497.14</ele>
        <time>2025-03-08T15:42:53Z</time>
      </trkpt>
      <trkpt lat="43.95035" lon="6.81006">
        <ele>497.14</ele>
        <time>2025-03-08T15:43:08Z</time>
      </trkpt>
      <trkpt lat="43.95027" lon="6.81013">
        <ele>497.62</ele>
        <time>2025-03-08T15:43:24Z</time>
      </trkpt>
      <trkpt lat="43.95024" lon="6.81012">
        <ele>497.62</ele>
        <time>2025-03-08T15:43:27Z</time>
      </trkpt>
      <trkpt lat="43.95019" lon="6.81013">
        <ele>498.1</ele>
        <time>2025-03-08T15:43:31Z</time>
      </trkpt>
      <trkpt lat="43.95011" lon="6.81015">
        <ele>496.66</ele>
        <time>2025-03-08T15:43:45Z</time>
      </trkpt>
      <trkpt lat="43.95011" lon="6.81015">
        <ele>496.66</ele>
        <time>2025-03-08T15:43:46Z</time>
      </trkpt>
      <trkpt lat="43.9501" lon="6.81012">
        <ele>496.66</ele>
        <time>2025-03-08T15:44:02Z</time>
      </trkpt>
      <trkpt lat="43.95009" lon="6.81008">
        <ele>496.66</ele>
        <time>2025-03-08T15:44:15Z</time>
      </trkpt>
      <trkpt lat="43.95009" lon="6.81006">
        <ele>496.66</ele>
        <time>2025-03-08T15:44:32Z</time>
      </trkpt>
      <trkpt lat="43.95007" lon="6.81009">
        <ele>496.66</ele>
        <time>2025-03-08T15:44:44Z</time>
      </trkpt>
      <trkpt lat="43.95006" lon="6.81012">
        <ele>496.66</ele>
        <time>2025-03-08T15:44:49Z</time>
      </trkpt>
      <trkpt lat="43.94998" lon="6.81014">
        <ele>496.66</ele>
        <time>2025-03-08T15:44:59Z</time>
      </trkpt>
      <trkpt lat="43.94993" lon="6.81013">
        <ele>498.1</ele>
        <time>2025-03-08T15:45:02Z</time>
      </trkpt>
      <trkpt lat="43.94982" lon="6.8101">
        <ele>495.7</ele>
        <time>2025-03-08T15:45:15Z</time>
      </trkpt>
      <trkpt lat="43.94966" lon="6.81013">
        <ele>493.29</ele>
        <time>2025-03-08T15:45:28Z</time>
      </trkpt>
      <trkpt lat="43.9495" lon="6.81008">
        <ele>493.29</ele>
        <time>2025-03-08T15:45:43Z</time>
      </trkpt>
      <trkpt lat="43.94933" lon="6.81">
        <ele>493.29</ele>
        <time>2025-03-08T15:46:03Z</time>
      </trkpt>
      <trkpt lat="43.94931" lon="6.81001">
        <ele>494.74</ele>
        <time>2025-03-08T15:46:06Z</time>
      </trkpt>
      <trkpt lat="43.94918" lon="6.80994">
        <ele>494.74</ele>
        <time>2025-03-08T15:46:19Z</time>
      </trkpt>
      <trkpt lat="43.94915" lon="6.80998">
        <ele>495.22</ele>
        <time>2025-03-08T15:46:31Z</time>
      </trkpt>
      <trkpt lat="43.94914" lon="6.80997">
        <ele>494.74</ele>
        <time>2025-03-08T15:46:41Z</time>
      </trkpt>
    </trkseg>
  </trk>
</gpx>